[[{"header":{"parameterUnit":"m.s-1","parameterCategory":1,"la1":30.6,"la2":29.2853,"lo1":-89.7004,"lo2":-87.6739,"dy":0.0162,"dx":0.0183,"nx":112,"ny":82,"refTime":"2024-04-28T18:00:00:Z","depth":0,"parameterNumber":2,"parameterNumberName":"U-component_of_WINDS"},"data":[0.0,0.0,0.0,0.0,0.0,0.0,0.0,0.0,0.0,0.0,0.0,0.0,0.0,0.0,0.0,0.0,0.0,0.0,0.0,0.0,0.0,0.0,0.0,0.0,0.0,0.0,0.0,0.0,0.0,0.0,0.0,0.0,0.0,0.0,0.0,0.0,0.0,0.0,0.0,0.0,0.0,0.0,0.0,0.0,0.0,0.0,0.0,0.0,0.0,0.0,0.0,0.0,0.0,0.0,0.0,0.0,0.0,0.0,0.0,0.0,0.0,0.0,0.0,0.0,0.0,0.0,0.0,0.0,0.0,0.0,0.0,0.0,0.0,0.0,0.0,0.0,0.0,0.0,0.0,0.0,0.0,0.0,0.0,0.0,0.0,0.0,0.0,0.0,0.0,0.0,-3.55,-3.55,-3.55,-3.55,-3.55,-3.55,-3.55,-3.55,0.0,0.0,0.0,0.0,0.0,0.0,0.0,0.0,0.0,0.0,0.0,0.0,0.0,0.0,0.0,0.0,0.0,0.0,0.0,0.0,0.0,0.0,0.0,0.0,0.0,0.0,0.0,0.0,0.0,0.0,0.0,0.0,0.0,0.0,0.0,0.0,0.0,0.0,0.0,0.0,0.0,0.0,0.0,0.0,0.0,0.0,0.0,0.0,0.0,0.0,0.0,0.0,0.0,0.0,0.0,0.0,0.0,0.0,0.0,0.0,0.0,0.0,0.0,0.0,0.0,0.0,0.0,0.0,0.0,0.0,0.0,0.0,0.0,0.0,0.0,0.0,0.0,0.0,0.0,0.0,0.0,0.0,0.0,0.0,0.0,0.0,0.0,0.0,0.0,0.0,0.0,0.0,0.0,0.0,0.0,0.0,0.0,0.0,0.0,0.0,0.0,0.0,0.0,0.0,-3.55,-3.55,-3.55,-3.55,-3.55,-3.55,-3.55,-3.55,0.0,0.0,0.0,0.0,0.0,0.0,0.0,0.0,0.0,0.0,0.0,0.0,0.0,0.0,0.0,0.0,0.0,0.0,0.0,0.0,0.0,0.0,0.0,0.0,0.0,0.0,0.0,0.0,0.0,0.0,0.0,0.0,0.0,0.0,0.0,0.0,0.0,0.0,0.0,0.0,0.0,0.0,0.0,0.0,0.0,0.0,0.0,0.0,0.0,0.0,0.0,0.0,0.0,0.0,0.0,0.0,0.0,0.0,0.0,0.0,0.0,0.0,0.0,0.0,0.0,0.0,0.0,0.0,0.0,0.0,0.0,0.0,0.0,0.0,0.0,0.0,0.0,0.0,0.0,0.0,0.0,0.0,0.0,0.0,0.0,0.0,0.0,0.0,0.0,0.0,0.0,0.0,0.0,0.0,0.0,0.0,0.0,0.0,0.0,0.0,0.0,0.0,0.0,-3.55,-3.55,-3.55,-3.55,-3.55,-3.55,-3.55,-3.55,-3.55,-3.55,0.0,0.0,0.0,0.0,0.0,0.0,0.0,0.0,0.0,0.0,0.0,0.0,0.0,0.0,0.0,0.0,0.0,0.0,0.0,0.0,0.0,0.0,0.0,0.0,0.0,0.0,0.0,0.0,0.0,0.0,0.0,0.0,0.0,0.0,0.0,0.0,0.0,0.0,0.0,0.0,0.0,0.0,0.0,0.0,0.0,0.0,0.0,0.0,0.0,0.0,0.0,0.0,0.0,0.0,0.0,0.0,0.0,0.0,0.0,0.0,0.0,0.0,0.0,0.0,0.0,0.0,0.0,0.0,0.0,0.0,0.0,0.0,0.0,0.0,0.0,0.0,0.0,0.0,0.0,0.0,0.0,0.0,0.0,0.0,0.0,0.0,0.0,0.0,0.0,0.0,0.0,0.0,0.0,0.0,0.0,0.0,0.0,0.0,0.0,0.0,0.0,0.0,-3.55,-3.55,-3.55,-3.55,-3.55,-3.55,-3.55,-3.55,-3.55,-3.55,0.0,0.0,0.0,0.0,0.0,0.0,0.0,0.0,0.0,0.0,0.0,0.0,0.0,0.0,0.0,0.0,0.0,0.0,0.0,0.0,0.0,0.0,0.0,0.0,0.0,0.0,0.0,0.0,0.0,0.0,0.0,0.0,0.0,0.0,0.0,0.0,0.0,0.0,0.0,0.0,0.0,0.0,0.0,0.0,0.0,0.0,0.0,0.0,0.0,0.0,0.0,0.0,0.0,0.0,0.0,0.0,0.0,0.0,0.0,0.0,0.0,0.0,0.0,0.0,0.0,0.0,0.0,0.0,0.0,0.0,0.0,0.0,0.0,0.0,0.0,0.0,0.0,0.0,0.0,0.0,0.0,0.0,0.0,0.0,0.0,0.0,0.0,0.0,0.0,0.0,0.0,0.0,0.0,0.0,0.0,0.0,0.0,0.0,0.0,0.0,0.0,0.0,-3.55,-3.55,-3.55,-3.55,-3.55,-3.55,-3.55,-3.55,-3.55,-3.55,0.0,0.0,0.0,0.0,0.0,0.0,0.0,0.0,0.0,0.0,0.0,0.0,0.0,0.0,0.0,0.0,0.0,0.0,0.0,0.0,0.0,0.0,0.0,0.0,0.0,0.0,0.0,0.0,0.0,0.0,0.0,0.0,0.0,0.0,0.0,0.0,0.0,0.0,0.0,0.0,0.0,0.0,0.0,0.0,0.0,0.0,0.0,0.0,0.0,0.0,0.0,0.0,0.0,0.0,0.0,0.0,0.0,0.0,0.0,0.0,0.0,0.0,0.0,0.0,0.0,0.0,0.0,0.0,0.0,0.0,0.0,0.0,0.0,0.0,0.0,0.0,0.0,0.0,0.0,0.0,0.0,0.0,0.0,0.0,0.0,0.0,0.0,0.0,0.0,0.0,0.0,0.0,0.0,0.0,0.0,0.0,0.0,0.0,0.0,0.0,0.0,0.0,-3.55,-3.55,-3.55,-3.55,-3.55,-3.55,-3.55,-3.55,-3.55,0.0,0.0,0.0,0.0,0.0,0.0,0.0,0.0,0.0,0.0,0.0,0.0,0.0,0.0,0.0,0.0,0.0,0.0,0.0,0.0,0.0,0.0,0.0,0.0,0.0,0.0,0.0,0.0,0.0,0.0,0.0,0.0,0.0,0.0,0.0,0.0,0.0,0.0,0.0,0.0,0.0,0.0,0.0,0.0,0.0,0.0,0.0,0.0,0.0,0.0,0.0,0.0,0.0,0.0,0.0,0.0,0.0,0.0,0.0,0.0,0.0,0.0,0.0,0.0,0.0,0.0,0.0,0.0,0.0,0.0,0.0,0.0,0.0,0.0,0.0,0.0,0.0,0.0,0.0,0.0,0.0,0.0,0.0,0.0,0.0,0.0,0.0,0.0,0.0,0.0,0.0,0.0,0.0,0.0,0.0,0.0,0.0,0.0,0.0,0.0,0.0,0.0,-3.55,-3.55,-3.55,-3.55,-3.55,-3.55,-3.55,-3.55,-3.55,-3.55,0.0,0.0,0.0,0.0,0.0,0.0,0.0,0.0,0.0,0.0,0.0,0.0,0.0,0.0,0.0,0.0,0.0,0.0,0.0,0.0,0.0,0.0,0.0,0.0,0.0,0.0,0.0,0.0,0.0,0.0,0.0,0.0,0.0,0.0,0.0,0.0,0.0,0.0,0.0,0.0,0.0,0.0,0.0,0.0,0.0,0.0,0.0,0.0,0.0,0.0,0.0,0.0,0.0,0.0,0.0,0.0,0.0,0.0,0.0,0.0,0.0,0.0,0.0,0.0,0.0,0.0,0.0,0.0,0.0,0.0,0.0,0.0,0.0,0.0,0.0,0.0,0.0,0.0,0.0,0.0,0.0,0.0,0.0,0.0,0.0,0.0,0.0,0.0,0.0,0.0,0.0,0.0,0.0,0.0,0.0,0.0,0.0,0.0,0.0,0.0,0.0,0.0,-3.55,-3.55,-3.55,-3.55,-3.55,-3.55,-3.55,-3.55,-3.55,0.0,0.0,0.0,0.0,0.0,0.0,0.0,0.0,0.0,0.0,0.0,0.0,0.0,0.0,0.0,0.0,0.0,0.0,0.0,0.0,0.0,0.0,0.0,0.0,0.0,0.0,0.0,0.0,0.0,0.0,0.0,0.0,0.0,0.0,0.0,0.0,0.0,0.0,0.0,0.0,0.0,0.0,0.0,0.0,0.0,0.0,0.0,0.0,0.0,0.0,0.0,0.0,0.0,0.0,0.0,0.0,0.0,0.0,0.0,0.0,0.0,0.0,0.0,0.0,0.0,0.0,0.0,0.0,0.0,0.0,0.0,0.0,0.0,0.0,0.0,0.0,0.0,0.0,0.0,0.0,0.0,0.0,0.0,0.0,0.0,0.0,0.0,0.0,0.0,0.0,0.0,0.0,0.0,0.0,0.0,0.0,0.0,0.0,0.0,0.0,0.0,0.0,0.0,-3.55,-3.55,-3.55,-3.55,-3.55,-3.55,-3.55,-3.55,-3.55,-3.55,0.0,0.0,0.0,0.0,0.0,0.0,0.0,0.0,0.0,0.0,0.0,0.0,0.0,0.0,0.0,0.0,0.0,0.0,0.0,0.0,0.0,0.0,0.0,0.0,0.0,0.0,0.0,0.0,0.0,0.0,0.0,0.0,0.0,0.0,0.0,0.0,0.0,0.0,0.0,0.0,0.0,0.0,0.0,0.0,0.0,0.0,0.0,0.0,0.0,0.0,0.0,0.0,0.0,0.0,0.0,0.0,0.0,0.0,0.0,0.0,0.0,0.0,0.0,0.0,0.0,0.0,0.0,0.0,0.0,0.0,0.0,0.0,0.0,0.0,0.0,0.0,0.0,0.0,0.0,0.0,0.0,0.0,0.0,0.0,0.0,0.0,0.0,0.0,0.0,0.0,0.0,0.0,0.0,0.0,0.0,0.0,0.0,0.0,0.0,0.0,0.0,0.0,-3.55,-3.55,-3.55,-3.55,-3.55,-3.55,-3.55,-3.55,-3.55,-3.55,0.0,0.0,0.0,0.0,0.0,0.0,0.0,0.0,0.0,0.0,0.0,0.0,0.0,0.0,0.0,0.0,0.0,0.0,0.0,0.0,0.0,0.0,0.0,0.0,0.0,0.0,0.0,0.0,0.0,0.0,0.0,0.0,0.0,0.0,0.0,0.0,0.0,0.0,0.0,0.0,0.0,0.0,0.0,0.0,0.0,0.0,0.0,0.0,0.0,0.0,0.0,0.0,0.0,0.0,0.0,0.0,0.0,0.0,0.0,0.0,0.0,0.0,0.0,0.0,0.0,0.0,0.0,0.0,0.0,0.0,0.0,0.0,0.0,0.0,0.0,0.0,0.0,0.0,0.0,0.0,0.0,0.0,0.0,0.0,0.0,0.0,0.0,0.0,0.0,0.0,0.0,0.0,0.0,0.0,0.0,0.0,0.0,0.0,0.0,0.0,0.0,0.0,-3.55,-3.55,-3.55,-3.55,-3.55,-3.55,-3.55,-3.55,-3.55,-3.55,0.0,0.0,0.0,0.0,0.0,0.0,0.0,0.0,0.0,0.0,0.0,0.0,0.0,0.0,0.0,0.0,0.0,0.0,0.0,0.0,0.0,0.0,0.0,0.0,0.0,0.0,0.0,0.0,0.0,0.0,0.0,0.0,0.0,0.0,0.0,0.0,0.0,0.0,0.0,0.0,0.0,0.0,0.0,0.0,0.0,0.0,0.0,0.0,0.0,0.0,0.0,0.0,0.0,0.0,0.0,0.0,0.0,0.0,0.0,0.0,-3.5126,-3.481,0.0,0.0,0.0,0.0,0.0,0.0,0.0,0.0,0.0,0.0,0.0,0.0,0.0,0.0,0.0,0.0,0.0,0.0,0.0,0.0,0.0,0.0,0.0,0.0,0.0,0.0,0.0,0.0,0.0,0.0,0.0,0.0,0.0,0.0,0.0,0.0,0.0,0.0,0.0,0.0,-3.5479,-3.55,-3.55,-3.55,-3.55,-3.55,-3.55,-3.55,-3.55,-3.55,-3.55,0.0,0.0,0.0,0.0,0.0,0.0,0.0,0.0,0.0,0.0,0.0,0.0,0.0,0.0,0.0,0.0,0.0,0.0,0.0,0.0,0.0,0.0,0.0,0.0,0.0,0.0,0.0,0.0,0.0,0.0,0.0,0.0,0.0,0.0,0.0,0.0,0.0,0.0,0.0,0.0,0.0,0.0,0.0,0.0,0.0,0.0,0.0,0.0,0.0,0.0,0.0,0.0,0.0,0.0,0.0,0.0,0.0,0.0,0.0,-3.56,-3.5363,0.0,0.0,0.0,0.0,0.0,0.0,0.0,0.0,0.0,0.0,0.0,0.0,0.0,0.0,0.0,0.0,0.0,0.0,0.0,0.0,0.0,0.0,0.0,0.0,0.0,0.0,0.0,0.0,0.0,0.0,0.0,0.0,0.0,0.0,0.0,0.0,0.0,0.0,0.0,0.0,-3.5479,-3.5383,-3.5361,-3.5493,-3.55,-3.55,-3.55,-3.55,-3.55,-3.55,-3.55,0.0,0.0,0.0,0.0,0.0,0.0,0.0,0.0,0.0,0.0,0.0,0.0,0.0,0.0,0.0,0.0,0.0,0.0,0.0,0.0,0.0,0.0,0.0,0.0,0.0,0.0,0.0,0.0,0.0,0.0,0.0,0.0,0.0,0.0,0.0,0.0,0.0,0.0,0.0,0.0,0.0,0.0,0.0,0.0,0.0,0.0,0.0,0.0,0.0,0.0,0.0,0.0,0.0,-3.6998,-3.6637,-3.6005,-3.6005,-3.6005,-3.5971,-3.587,-3.5735,-3.56,-3.56,0.0,0.0,0.0,0.0,0.0,0.0,0.0,0.0,0.0,0.0,0.0,0.0,0.0,0.0,0.0,0.0,0.0,0.0,0.0,0.0,0.0,0.0,0.0,0.0,-3.3564,-3.3807,-3.3807,0.0,0.0,0.0,0.0,0.0,0.0,0.0,0.0,0.0,0.0,0.0,-3.5339,-3.5174,-3.5149,-3.5391,-3.5412,-3.5465,-3.55,-3.55,-3.55,-3.55,-3.55,-3.55,0.0,0.0,0.0,0.0,0.0,0.0,0.0,0.0,0.0,0.0,0.0,0.0,0.0,0.0,0.0,0.0,0.0,0.0,0.0,0.0,0.0,0.0,0.0,0.0,0.0,0.0,0.0,0.0,0.0,0.0,0.0,0.0,-3.6259,-3.5725,0.0,0.0,0.0,0.0,0.0,0.0,0.0,0.0,0.0,0.0,0.0,0.0,0.0,-3.7922,-3.7922,-3.7922,-3.7855,-3.7753,-3.7753,-3.7719,-3.7618,-3.7618,-3.7618,-3.7584,-3.6907,0.0,-3.56,-3.56,0.0,0.0,0.0,0.0,0.0,0.0,0.0,0.0,0.0,0.0,0.0,0.0,0.0,0.0,0.0,0.0,0.0,0.0,0.0,0.0,0.0,0.0,-3.3364,-3.3634,-3.378,-3.3807,0.0,-3.3807,-3.3807,-3.3807,-3.3807,-3.3807,0.0,0.0,0.0,0.0,0.0,0.0,-3.4745,-3.4783,-3.486,-3.5102,-3.5166,-3.5239,-3.5486,-3.55,-3.55,-3.55,-3.55,-3.55,-3.55,-3.4661,0.0,0.0,0.0,0.0,0.0,0.0,0.0,0.0,0.0,0.0,0.0,0.0,0.0,0.0,0.0,0.0,0.0,0.0,0.0,0.0,0.0,0.0,0.0,0.0,0.0,0.0,0.0,0.0,0.0,-3.5975,-3.6038,-3.6102,-3.6415,-3.7084,0.0,0.0,0.0,0.0,0.0,0.0,0.0,0.0,0.0,-3.8461,-3.8908,-3.914,-3.914,-3.914,-3.8937,-3.8531,-3.8531,-3.8294,-3.7922,-3.7922,-3.7922,-3.7889,-3.755,-3.7212,-3.684,-3.5938,-3.56,-3.56,0.0,0.0,0.0,0.0,-3.5115,-3.5081,-3.4754,-3.437,-3.4032,-3.4032,0.0,0.0,0.0,0.0,0.0,0.0,0.0,-3.1844,0.0,0.0,-3.2858,-3.3045,-3.327,-3.3522,-3.3766,-3.3807,-3.3807,0.0,-3.3807,-3.3807,-3.3807,-3.3928,0.0,0.0,0.0,-3.4304,-3.4682,-3.454,-3.4551,-3.4851,-3.4879,-3.4981,-3.5246,-3.5262,-3.5346,-3.5493,-3.55,-3.55,-3.55,-3.5115,-3.4507,0.0,0.0,0.0,0.0,0.0,0.0,0.0,0.0,0.0,0.0,0.0,0.0,0.0,0.0,0.0,0.0,0.0,0.0,0.0,0.0,0.0,0.0,0.0,0.0,0.0,0.0,0.0,0.0,-3.5519,-3.5686,-3.6259,-3.6508,-3.7023,0.0,0.0,0.0,0.0,0.0,0.0,-3.8908,-3.9662,-3.9892,-3.9501,-4.0068,-4.0485,-4.0654,-4.0654,-4.0383,-3.9851,-3.9851,-3.9546,-3.9039,-3.9039,-3.9039,-3.9005,-3.8836,-3.8633,-3.8338,-3.6817,-3.6174,-3.6174,-3.5971,-3.5926,-3.5893,-3.5667,-3.56,-3.56,-3.56,-3.525,-3.4776,-3.4776,-3.4269,-3.366,-3.3457,0.0,0.0,0.0,0.0,-3.1919,-3.1822,-3.2057,-3.2366,-3.2614,-3.2952,-3.3321,-3.3689,-3.3807,-3.3807,0.0,-3.3807,-3.3807,-3.3807,-3.3979,0.0,-3.4117,-3.4117,-3.4201,-3.4431,-3.426,-3.4237,-3.454,-3.4572,-3.4675,-3.4972,-3.5051,-3.519,-3.5383,-3.5472,-3.55,-3.55,-3.55,-3.5084,-3.4205,0.0,0.0,0.0,0.0,0.0,0.0,0.0,0.0,0.0,0.0,0.0,0.0,0.0,0.0,0.0,0.0,0.0,0.0,0.0,0.0,0.0,0.0,0.0,0.0,0.0,0.0,0.0,0.0,0.0,-3.5554,-3.6165,0.0,0.0,0.0,0.0,-3.7966,-3.9209,-3.9688,-3.8935,-3.9662,-4.0392,-4.105,-4.111,-4.1474,-4.2185,-4.2185,-4.2151,-4.2117,-4.2117,-4.2117,-4.2083,-4.2083,-4.2083,-4.2016,-4.1339,-4.0663,-3.9859,-3.8396,-3.7787,-3.7719,-3.7032,-3.6761,-3.666,-3.5893,-3.56,-3.56,-3.56,-3.5566,-3.5532,-3.5532,-3.5047,-3.4303,-3.3626,-3.3389,0.0,0.0,-3.2266,-3.2196,-3.1869,-3.1808,-3.2057,-3.2968,-3.3166,-3.3321,-3.3689,-3.3807,-3.3807,0.0,-3.3807,-3.3807,-3.3807,0.0,-3.3834,-3.3834,-3.3834,-3.3834,-3.386,-3.3847,-3.3928,-3.4188,-3.4223,-3.4349,-3.4675,-3.4954,-3.5124,-3.5132,-3.5361,-3.55,-3.55,-3.55,-3.5084,-3.4205,-3.4205,0.0,0.0,0.0,0.0,0.0,0.0,0.0,0.0,0.0,0.0,0.0,0.0,0.0,0.0,0.0,0.0,0.0,0.0,0.0,0.0,0.0,0.0,0.0,0.0,0.0,0.0,0.0,0.0,-3.5519,-3.5718,0.0,-3.7294,-3.6965,-3.7392,-3.9036,-3.8721,-3.8565,-3.8711,-3.946,-4.0054,-4.0344,-4.0833,-4.147,-4.2286,-4.2286,-4.2286,-4.2286,-4.2286,-4.2286,-4.2286,-4.2286,-4.2286,-4.2286,-4.2016,-4.1745,-4.1474,-4.0933,-3.9614,-3.7889,-3.7618,-3.7516,-3.7483,-3.7212,-3.7087,-3.7087,-3.7087,-3.7087,-3.6986,-3.6535,-3.5859,-3.5081,-3.4336,-3.41,-3.3964,-3.322,-3.3017,-3.2991,-3.2869,-3.2841,-3.2985,-3.3613,-3.3986,-3.4341,-3.479,-3.471,-3.4564,-3.4564,-3.4174,-3.3807,-3.3807,-3.3807,-3.3807,-3.3807,-3.3807,-3.3807,-3.3807,-3.3807,-3.386,-3.3941,-3.3954,-3.4056,-3.4338,-3.4459,-3.4597,-3.4841,-3.5077,-3.5239,-3.5239,-3.5398,-3.5252,-3.4779,-3.4944,-3.4522,0.0,0.0,0.0,0.0,0.0,0.0,0.0,0.0,0.0,0.0,0.0,0.0,0.0,0.0,0.0,0.0,0.0,0.0,0.0,0.0,0.0,0.0,0.0,0.0,0.0,-3.6417,-3.6148,-3.6148,-3.6148,-3.6514,-3.7561,-3.6996,-3.7245,-3.8953,-3.8589,-3.856,-3.903,-3.9779,-4.045,-4.1066,-4.1531,-4.2206,-4.3064,-4.3091,-4.3091,-4.3091,-4.3091,-4.3091,-4.3091,-4.3091,-4.3091,-4.3091,-4.3091,-4.2895,-4.2658,-4.2658,-4.1373,-3.9343,-3.8836,-3.8633,-3.8599,-3.8091,-3.7922,-3.7922,-3.7922,-3.7922,-3.7821,-3.7313,-3.6806,-3.6276,-3.5791,-3.5656,-3.5453,-3.4438,-3.4146,-3.4032,-3.3525,-3.3423,-3.3556,-3.4187,-3.4549,-3.4976,-3.5627,-3.5586,-3.5445,-3.5445,-3.4541,-3.3807,-3.3807,-3.3807,-3.3807,-3.3807,-3.3807,-3.3807,-3.3807,-3.3807,-3.3807,-3.3807,-3.3807,-3.3863,-3.4056,-3.4128,-3.4281,-3.4518,-3.4908,-3.5051,-3.4972,-3.5324,-3.5376,-3.5124,-3.5369,-3.4983,-3.3938,0.0,0.0,0.0,0.0,0.0,0.0,0.0,0.0,0.0,0.0,0.0,0.0,0.0,0.0,0.0,0.0,0.0,0.0,0.0,0.0,0.0,0.0,0.0,-3.7524,-3.7434,-3.7404,-3.7404,-3.7404,-3.7404,-3.7439,-3.8116,-3.8282,-3.7571,-3.8933,-3.9842,-3.9934,-4.0622,-4.1768,-4.3354,-4.3382,-4.3781,-4.4615,-4.4615,-4.4615,-4.4615,-4.4615,-4.4615,-4.4615,-4.4615,-4.4615,-4.4615,-4.4615,-4.4147,-4.3443,-4.3443,-4.3031,-4.2245,-4.0756,-4.0155,-3.9995,-3.8565,-3.8024,-3.8024,-3.799,-3.7956,-3.7922,-3.7922,-3.7922,-3.7922,-3.7922,-3.7922,-3.7584,-3.6073,-3.5667,-3.5329,-3.3931,-3.3558,-3.3762,-3.4671,-3.4889,-3.5169,-3.6133,-3.6362,-3.634,-3.634,-3.5018,-3.388,-3.3844,-3.3807,-3.3807,-3.3807,-3.3807,0.0,-3.3807,-3.3807,-3.3807,-3.3807,-3.3807,-3.3807,-3.3807,-3.4043,-3.4176,-3.4176,-3.4755,-3.4963,-3.4713,-3.5207,-3.5369,-3.5124,-3.5361,-3.507,-3.4231,0.0,0.0,0.0,0.0,0.0,0.0,0.0,0.0,0.0,0.0,0.0,0.0,0.0,0.0,0.0,0.0,0.0,0.0,0.0,0.0,0.0,-3.926,-3.8901,-3.8212,-3.7704,-3.7404,-3.7404,-3.7404,-3.7643,-3.8216,-3.795,-3.8333,-3.9814,-3.9813,-4.0227,-4.1342,-4.1594,-4.2219,-4.3289,-4.3352,-4.3714,-4.4615,-4.4615,-4.4615,-4.4615,-4.4615,-4.4615,-4.4615,-4.4615,-4.4615,-4.4615,-4.4615,-4.4479,-4.4248,-4.4248,-4.4147,-4.3836,-4.2313,-4.1677,-4.1644,-4.1238,-4.0764,-4.0223,-3.9681,-3.914,-3.87,-3.87,-3.8328,-3.7922,-3.7922,-3.7922,-3.7821,-3.7415,-3.728,-3.7155,-3.6772,-3.6671,-3.674,-3.6989,-3.7192,-3.7423,-3.7684,-3.7462,-3.7162,-3.7162,-3.6354,-3.5422,-3.4784,-3.4211,-3.3807,-3.3807,-3.3807,0.0,-3.3807,-3.3807,-3.3807,-3.3807,-3.3807,-3.3807,-3.3807,-3.3863,-3.3915,-3.3915,-3.4235,-3.4405,-3.4327,-3.4888,-3.5182,-3.5086,-3.5182,-3.5092,0.0,0.0,0.0,0.0,0.0,0.0,0.0,0.0,0.0,0.0,0.0,0.0,0.0,0.0,0.0,0.0,0.0,0.0,0.0,0.0,0.0,0.0,-3.9373,-3.9254,-3.8871,-3.8482,-3.8242,-3.8242,-3.8242,-3.8417,-3.8903,-3.8521,-3.878,-4.0168,-4.0168,-4.0657,-4.1949,-4.2363,-4.2923,-4.3798,-4.3827,-4.4093,-4.4615,-4.4615,-4.4615,-4.4615,-4.4615,-4.4615,-4.4615,-4.4615,-4.4615,-4.4615,-4.4615,-4.4615,-4.4615,-4.4615,-4.4615,0.0,0.0,0.0,0.0,0.0,-4.2016,-4.161,-4.117,-4.0527,-3.9918,-3.9918,-3.9411,-3.8802,-3.8802,-3.8802,-3.8768,-3.8464,-3.8362,-3.8294,-3.799,-3.7922,-3.7936,-3.8161,-3.8313,-3.8541,-3.8977,-3.8598,-3.8214,-3.8438,-3.7603,0.0,-3.6119,-3.5078,-3.4307,-3.4307,-3.4027,-3.3807,-3.3807,-3.3807,-3.3807,-3.3807,-3.3807,-3.3807,-3.3807,-3.3807,0.0,0.0,0.0,-3.4258,-3.4383,-3.4735,0.0,0.0,0.0,-3.5166,-3.5254,0.0,0.0,0.0,-3.3237,-3.266,0.0,0.0,0.0,0.0,0.0,0.0,0.0,0.0,0.0,0.0,0.0,0.0,0.0,0.0,0.0,0.0,-3.9373,-3.9373,-3.9373,-3.9373,-3.9373,-3.9373,-3.9373,-3.9373,-3.9373,-3.9373,-3.9445,-3.9553,-4.0335,-4.1189,-4.2077,-4.3028,0.0,0.0,0.0,-4.4682,-4.4615,-4.4615,-4.4615,-4.4615,-4.4615,-4.4615,-4.4615,-4.4615,-4.4615,-4.4615,-4.4615,-4.4615,-4.4615,-4.4615,-4.4615,-4.4547,-4.3809,-4.3511,-4.347,-4.2692,-4.2422,-4.2388,-4.232,0.0,0.0,-4.1339,-4.0865,-4.035,-4.0248,-4.0214,-4.0079,-3.9309,-3.9106,-3.8971,-3.8328,-3.8159,-3.8245,-3.8677,-3.8753,-3.8977,-3.9935,-3.9589,-3.9281,-3.9719,-3.8695,-3.7749,-3.7639,-3.6266,-3.5114,-3.5004,-3.438,-3.3917,-3.3807,-3.3807,-3.3807,-3.3807,0.0,0.0,-3.3807,-3.3807,-3.3807,-3.3807,-3.4018,-3.4281,-3.4614,-3.4624,-3.4755,-3.5043,-3.5069,-3.5207,-3.5398,-3.5231,-3.5246,-3.5434,-3.3916,-3.3122,0.0,0.0,0.0,0.0,0.0,0.0,0.0,0.0,0.0,0.0,0.0,0.0,0.0,0.0,0.0,-3.9373,-3.9373,-3.9373,-3.9373,-3.9373,-3.9373,-3.9373,-3.9373,-3.9373,-3.9373,-3.9373,-3.9702,-4.0413,-4.1113,-4.1906,-4.278,-4.4202,-4.4803,-4.4365,-4.5085,-4.5196,-4.4615,-4.4615,-4.4615,-4.4615,-4.4615,0.0,-4.4615,-4.4615,-4.4615,-4.4615,-4.4615,-4.4615,-4.4615,-4.4615,-4.4615,-4.4581,-4.4445,-4.4378,-4.4248,-4.347,-4.32,-4.3098,-4.2489,-4.2185,-4.2083,-4.2083,-4.1982,-4.1745,-4.117,-4.1001,0.0,-4.0113,-3.991,-3.9876,-3.9706,-3.9673,-3.9697,-3.9787,-3.9637,-3.9546,-3.9734,-3.9913,-3.9824,-3.9263,-3.9312,-3.9239,-3.8579,-3.711,-3.5826,-3.5114,-3.4857,-3.4527,-3.388,-3.3807,-3.3807,-3.3807,-3.3807,-3.3807,-3.3807,-3.3807,-3.3807,-3.3807,-3.3837,-3.3993,-3.4269,-3.4281,-3.4464,-3.4783,-3.499,-3.5016,-3.486,-3.5231,-3.5346,-3.519,-3.5045,-3.4622,0.0,0.0,0.0,0.0,0.0,0.0,0.0,0.0,0.0,0.0,0.0,-3.9373,-3.9373,0.0,-3.9373,-3.9373,-3.9373,-3.9373,-3.9373,-3.9373,-3.9373,-3.9373,-3.9373,-3.9373,-3.9373,-3.9709,-4.007,-4.0512,-4.1586,-4.2381,-4.2802,-4.4035,-4.4529,-4.4172,-4.4621,-4.4479,-4.3786,-4.3786,-4.3833,-4.3948,-4.3948,-4.4184,-4.4615,-4.4615,-4.4615,-4.4615,-4.4615,-4.4615,-4.4615,-4.4615,-4.4615,-4.4615,-4.4615,-4.4615,-4.4547,-4.4147,-4.4012,-4.3944,-4.3572,-4.32,-4.2861,-4.2861,-4.2591,-4.2219,-4.1847,-4.1745,-4.161,-4.0865,-4.0629,-4.0561,-4.0214,-4.0113,-4.0113,-4.0113,-3.9997,-3.998,-4.0251,-4.0141,-4.0015,-4.0183,-4.0111,-3.9879,-3.9376,-3.8615,-3.7661,-3.645,-3.5555,-3.4857,-3.4454,-3.4064,-3.3807,-3.3807,-3.3807,-3.3807,-3.3807,-3.3807,-3.3807,-3.3807,-3.3807,-3.385,-3.3981,-3.4141,-3.4269,-3.4464,-3.4735,-3.4908,-3.4908,-3.5174,-3.5316,-3.5285,-3.5458,-3.5269,0.0,0.0,0.0,0.0,0.0,0.0,0.0,-3.9373,-3.9373,-3.9373,-3.9373,-3.9373,-3.9373,-3.9373,-3.9373,-3.9373,-3.9373,-3.9373,-3.9373,-3.9373,-3.9373,-3.9373,-3.9373,-3.9373,-3.9373,-4.0008,-4.0397,-4.0397,-4.1791,-4.2658,-4.2658,-4.358,-4.4172,-4.4184,-4.4184,-4.4066,-4.3751,-4.3557,-4.3555,-4.3761,-4.3611,-4.3905,-4.4615,-4.4412,-4.444,-4.4615,-4.4615,-4.4615,-4.4615,-4.4615,-4.4615,-4.4615,-4.4615,-4.4615,-4.4615,-4.4615,-4.4615,-4.4615,-4.4615,-4.4181,-4.3639,-4.3639,-4.3234,-4.2726,-4.2557,-4.2523,-4.2354,-4.161,-4.1407,-4.1238,-4.0519,-4.0316,-4.0282,-4.0146,-4.0113,-4.0229,-4.0672,-4.0296,-4.0175,-4.0927,-4.0721,-4.0329,-3.9999,-3.9926,-3.935,-3.7749,-3.634,-3.5371,-3.5041,-3.4417,-3.3954,-3.3807,-3.3807,-3.3807,-3.3807,-3.3807,-3.3807,-3.3807,-3.3807,-3.3807,-3.3807,-3.4006,-3.4128,-3.42,-3.4529,-3.4822,-3.5016,-3.5141,-3.5254,-3.5405,-3.5486,-3.55,-3.9373,-3.9373,-3.9373,-3.9373,-3.9373,-3.9373,0.0,-3.9373,-3.9373,-3.9373,-3.9373,-3.9373,-3.9373,-3.9373,-3.9373,-3.9373,-3.9373,-3.9373,-3.9373,-3.9373,-3.9373,-3.9373,-3.9373,-3.9373,-3.9373,-4.0008,-4.0397,-4.0397,-4.1648,-4.2415,-4.2415,-4.3881,-4.4768,-4.4984,-4.4984,-4.5406,-4.6384,-4.5551,-4.5218,-4.5424,-4.4643,-4.4401,-4.4587,-4.3798,-4.3889,-4.4615,-4.4615,-4.4615,-4.4615,-4.4615,-4.4615,-4.4615,-4.4615,-4.4615,-4.4615,-4.4615,-4.4615,-4.4615,-4.4615,-4.4547,-4.4479,-4.4479,-4.4412,-4.4209,-4.3504,-4.3274,-4.3105,-4.2388,-4.2185,-4.2016,-4.1271,-4.1068,-4.0899,-4.0282,-4.0113,-4.0138,-4.0179,-4.0484,-4.0597,-4.0006,-4.0638,-4.1033,-4.0312,-4.0025,-3.935,-3.7749,-3.7345,-3.667,-3.5188,-3.4931,-3.4601,-3.388,-3.3807,-3.3807,-3.3807,-3.3807,-3.3807,-3.3807,-3.3807,-3.3807,-3.3807,-3.3847,-3.3979,-3.4188,-3.4529,-3.4723,-3.4763,-3.5223,-3.5354,-3.5166,-3.5383,-3.55,-3.9373,-3.9373,-3.9373,-3.9373,-3.9373,-3.9373,-3.9373,-3.9373,-3.9373,-3.9373,-3.9373,-3.9373,-3.9373,-3.9373,-3.9373,-3.9373,-3.9373,-3.9373,-3.9373,-3.9373,-3.9373,-3.9373,-3.9768,-3.9978,-3.9978,-4.0576,-4.1115,-4.1504,-4.2402,-4.291,-4.291,-4.3542,-4.3968,-4.4042,-4.4048,-4.4116,-4.4218,-4.4392,-4.4552,-4.4783,-4.4543,-4.47,-4.5201,-4.3879,-4.3229,-4.3136,-4.415,-4.4327,-4.3889,-4.4384,-4.4615,-4.4615,-4.4615,-4.4615,-4.4615,-4.4615,-4.4615,-4.4615,-4.4615,-4.4615,-4.4615,-4.4615,-4.4615,-4.4547,-4.4181,-4.4079,-4.3944,-4.3166,-4.2963,-4.2794,-4.2016,-4.1847,-4.1644,-4.0899,-4.073,-4.0595,-4.018,-4.0303,-4.0436,-4.0389,-4.1045,-4.1495,-4.0995,-4.072,-4.0194,-3.9071,-3.8117,-3.7235,-3.656,-3.5591,-3.4674,-3.388,-3.3807,-3.3807,-3.3807,-3.3807,-3.3807,-3.3807,-3.3807,-3.3807,-3.3807,-3.3807,-3.3837,-3.3979,-3.4272,-3.4508,-3.4713,-3.5069,-3.527,-3.5346,-3.5465,-3.55,-3.9373,-3.9373,-3.9373,-3.9373,-3.9373,-3.9373,-3.9373,-3.9373,-3.9373,-3.9373,-3.9373,-3.9373,-3.9373,-3.9373,-3.9373,-3.9373,-3.9373,-3.9373,-3.9373,-3.9589,-3.9679,-3.9679,-4.0277,-4.0756,-4.0935,-4.1422,-4.1901,-4.2351,-4.297,-4.329,-4.329,-4.329,-4.3448,-4.3693,-4.3448,-4.3365,-4.3434,-4.3883,-4.4203,-4.4381,-4.4529,-4.4964,-4.5589,-4.4221,-4.315,-4.2426,-4.3439,-4.3651,-4.3353,-4.3977,-4.4384,-4.4615,-4.4615,-4.4615,-4.4615,-4.4615,-4.4615,-4.4615,-4.4615,-4.4615,-4.4615,-4.4615,-4.4615,-4.4615,-4.4615,-4.4615,-4.4479,-4.391,-4.3741,-4.3572,-4.2794,-4.2591,-4.2422,-4.1677,-4.1508,-4.1305,-4.0561,-4.0417,-4.0442,-4.0635,-4.1173,-4.157,-4.1518,-4.1325,-4.0963,-4.0325,-3.9056,-3.8006,-3.7566,-3.6046,-3.4784,-3.4211,-3.3917,-3.3807,-3.3807,-3.3807,-3.3807,-3.3807,-3.3807,-3.3807,-3.3807,-3.3807,-3.3807,-3.3807,-3.4068,-3.4304,-3.4561,-3.4935,-3.5198,-3.5383,-3.5479,-3.55,-3.9373,-3.9373,-3.9373,-3.9373,-3.9373,-3.9373,-3.9373,-3.9373,-3.9373,-3.9373,-3.9373,-3.9373,-3.9373,-3.9373,-3.9373,-3.9373,-3.9373,-3.9373,-3.9373,-3.9978,-4.0367,-4.0367,-4.0935,-4.1632,-4.2291,-4.2351,-4.2381,-4.241,-4.297,-4.329,-4.329,-4.329,-4.3732,-4.4737,-4.381,-4.4213,-4.6071,-4.5232,-4.4851,-4.5048,-4.5154,-4.5273,-4.5398,-4.4704,-4.3948,-4.3199,-4.2426,-4.2552,-4.3323,-4.3353,-4.386,-4.4615,-4.4615,-4.4615,-4.4615,-4.4615,-4.4615,-4.4615,-4.4615,-4.4615,-4.4615,-4.4615,-4.4615,-4.4615,-4.4615,-4.4615,-4.4615,-4.4581,-4.4581,-4.4378,-4.3572,-4.3375,-4.32,-4.2422,-4.2252,-4.2049,-4.1339,-4.117,-4.0967,-4.0273,-4.0611,-4.1185,-4.169,-4.157,-4.1307,-4.1103,-4.0377,-3.9255,-3.7713,-3.6046,-3.5004,-3.4968,-3.4284,-3.3807,-3.3807,-3.3807,-3.3807,-3.3807,-3.3807,-3.3807,-3.3807,-3.3807,-3.3807,-3.3807,-3.4068,-3.42,-3.4211,-3.4813,-3.5086,-3.5132,-3.5376,-3.55,-3.9373,-3.9373,-3.9373,-3.9373,-3.9373,-3.9373,-3.9373,-3.9373,-3.9373,-3.9373,-3.9373,-3.9373,-3.9373,-3.9373,-3.9373,-3.9373,-3.9373,-3.9373,-3.9373,-3.9978,-4.0397,-4.0397,-4.1354,-4.2141,-4.2381,-4.241,-4.259,-4.297,-4.317,-4.329,-4.329,-4.329,-4.3448,-4.3771,-4.3488,-4.3935,-4.5264,-4.5561,-4.5758,-4.5821,-4.5373,-4.4626,-4.3651,-4.4106,-4.3267,-4.1441,-4.243,-4.2395,-4.1658,-4.28,-4.3472,-4.3768,-4.4384,-4.4615,-4.4615,-4.4615,-4.4615,-4.4615,-4.4615,-4.4615,-4.4615,-4.4615,-4.4615,-4.4615,-4.4615,-4.4615,-4.4615,-4.4615,-4.4615,-4.4547,-4.4248,-4.4181,-4.3978,-4.3234,-4.3031,-4.2828,-4.2083,-4.1542,-4.1136,-4.0865,-4.0906,-4.099,-4.1161,-4.1289,-4.1144,-4.0423,-3.9606,-3.8726,-3.7639,-3.7015,-3.645,-3.5936,-3.5114,-3.4601,-3.4601,-3.41,-3.3807,-3.3807,-3.3807,-3.3807,-3.3807,-3.3807,-3.3807,-3.3807,-3.3889,-3.4018,-3.42,-3.4634,-3.4926,-3.5124,-3.5376,-3.55,-3.9373,-3.9373,-3.9373,-3.9373,-3.9373,-3.9373,-3.9373,-3.9373,-3.9373,-3.9373,-3.9373,-3.9373,-3.9373,-3.9373,-3.9373,-3.9373,-3.9373,-3.9463,-3.9738,-4.0337,-4.0846,-4.1085,-4.2043,-4.2701,-4.2701,-4.2701,-4.288,-4.326,-4.329,-4.329,-4.329,-4.329,-4.329,-4.329,-4.329,-4.3606,-4.4243,-4.5196,-4.5885,-4.6208,-4.5405,-4.448,-4.3576,-4.3674,-4.269,-4.0891,-4.161,-4.1461,-4.0792,-4.1885,-4.2552,-4.2925,-4.3798,-4.4121,-4.4121,-4.4121,-4.4327,-4.4615,-4.4615,-4.4615,-4.4615,-4.4615,-4.4615,-4.4615,-4.4615,-4.4615,-4.4615,-4.4615,-4.4615,-4.4615,-4.4615,-4.4615,-4.4479,-4.3944,-4.3842,-4.3606,-4.2861,-4.232,-4.1847,-4.1305,-4.1094,-4.0982,-4.0908,-4.1033,-4.1031,-4.0793,-3.9646,-3.8574,-3.8013,-3.7676,-3.7309,-3.6795,-3.5973,-3.5334,-3.5041,-3.4527,-3.41,-3.3807,-3.3807,-3.3807,-3.3807,-3.3807,-3.3807,-3.3807,-3.3807,-3.3876,-3.4068,-3.4375,-3.4614,-3.4794,-3.519,-3.5361,-3.9373,-3.9373,-3.9373,-3.9373,-3.9373,-3.9373,-3.9373,-3.9373,-3.9373,-3.9373,-3.9373,-3.9373,-3.9373,-3.9373,-3.9373,-3.9373,-3.9373,-3.9649,-4.0307,-4.0965,-4.1662,-4.2321,-4.294,-4.329,-4.329,-4.329,-4.329,-4.329,-4.329,-4.329,-4.329,-4.329,-4.329,-4.329,-4.329,-4.3329,-4.3369,-4.432,-4.5264,-4.6103,-4.519,-4.4809,-4.4938,-4.3474,-4.2395,-4.1599,-4.0111,-3.992,-4.0622,-4.069,-4.1196,-4.2013,-4.2862,-4.3259,-4.3323,-4.3323,-4.3827,-4.4615,-4.4615,-4.4615,-4.4615,-4.4615,-4.4615,-4.4615,-4.4615,-4.4615,-4.4615,-4.4615,-4.4615,-4.4615,-4.4615,-4.4615,-4.4615,-4.4615,-4.4615,-4.4384,-4.3639,-4.3409,-4.297,-4.1576,-4.1271,-4.1138,-4.0942,-4.0723,-4.0978,-4.2044,-4.0453,-3.9026,-3.8774,-3.8065,-3.7566,-3.7566,-3.6831,-3.6046,-3.5188,-3.5041,-3.4674,-3.3917,-3.3807,-3.3807,-3.3807,-3.3807,-3.3807,-3.3807,-3.3807,-3.3807,-3.3807,-3.408,-3.42,-3.4211,-3.4803,-3.5107,-3.9373,-3.9373,-3.9373,-3.9373,-3.9373,-3.9373,-3.9373,-3.9373,-3.9373,-3.9373,-3.9373,-3.9373,-3.9373,-3.9373,-3.9373,-3.9373,-3.9373,-3.9649,-4.0307,-4.0965,-4.1662,-4.2321,-4.294,-4.329,-4.329,-4.329,-4.329,-4.329,-4.329,-4.329,-4.329,-4.329,-4.329,-4.329,-4.329,-4.3654,-4.4396,-4.4662,-4.4924,-4.5153,-4.4128,-4.3719,-4.3739,-4.3039,-4.2278,-4.1435,-4.0689,-4.013,-3.9773,-4.0416,-4.0826,-4.1098,-4.1981,-4.2707,-4.3323,-4.3323,-4.3827,-4.4615,-4.4615,-4.4615,-4.4615,-4.4615,-4.4615,-4.4615,-4.4615,-4.4615,-4.4615,-4.4615,-4.4615,-4.4615,-4.4615,-4.4615,-4.4615,-4.4615,-4.4615,-4.4547,-4.4316,-4.3809,-4.3274,-4.2902,-4.1948,-4.1138,-4.0942,-4.0862,-4.0885,-4.1014,-4.0881,-4.0492,-3.9706,-3.8872,-3.8395,-3.8395,-3.7661,-3.7088,-3.6905,-3.5701,-3.4931,-3.4711,-3.4137,-3.3807,-3.3807,-3.3807,-3.3807,-3.3807,-3.3807,-3.3807,-3.3807,-3.408,-3.42,-3.42,-3.4614,-3.4917,-3.9373,-3.9373,-3.9373,-3.9373,-3.9373,-3.9373,-3.9373,-3.9373,-3.9373,-3.9373,-3.9373,-3.9373,-3.9373,-3.9373,-3.9373,-3.9373,-3.9373,-3.9738,-4.0696,-4.1145,-4.1743,-4.2671,-4.312,-4.329,-4.329,-4.329,-4.329,-4.329,-4.329,-4.329,-4.329,-4.329,-4.329,-4.329,-4.329,-4.3771,-4.4774,-4.4358,-4.4358,-4.4774,-4.3771,-4.329,-4.3299,-4.2493,-4.1879,-4.1332,-4.0496,-3.9849,-3.9445,-3.992,-4.01,-4.0205,-4.1095,-4.1723,-4.2205,-4.2583,-4.3047,-4.3499,-4.3919,-4.4035,-4.4093,-4.4468,-4.4615,-4.4615,-4.4615,-4.4615,-4.4615,-4.4615,-4.4615,-4.4615,-4.4615,-4.4615,-4.4615,-4.4615,-4.4615,-4.4615,-4.4615,-4.4248,-4.3741,-4.3064,-4.1982,-4.1138,-4.0942,-4.0685,-4.0665,-4.1096,-4.0875,-4.063,-4.056,-3.9772,-3.9093,-3.8726,-3.8285,-3.7896,-3.7529,-3.6633,-3.5973,-3.5591,-3.4784,-3.4307,-3.4307,-3.399,-3.3807,-3.3807,-3.3807,-3.3807,-3.3807,-3.3967,-3.4203,-3.4574,-3.4902,-3.5313,-3.9373,-3.9373,-3.9373,-3.9373,-3.9373,-3.9373,-3.9373,-3.9373,-3.9373,-3.9373,-3.9373,-3.9373,-3.9373,-3.9373,-3.9373,-3.9373,-3.9373,-3.9888,-4.1205,-4.1422,-4.1863,-4.314,-4.329,-4.329,-4.329,-4.329,-4.329,-4.329,-4.329,-4.329,-4.329,-4.329,-4.329,-4.329,-4.329,-4.3732,-4.4586,-4.3732,-4.3732,-4.4586,-4.3732,-4.329,-4.326,-4.1983,-4.1422,-4.1362,-3.9978,-3.9373,-3.9373,-3.9373,-3.9373,-3.9481,-4.0239,-4.0588,-4.0792,-4.1528,-4.1885,-4.2109,-4.2894,-4.3199,-4.3443,-4.4179,-4.453,-4.4587,-4.444,-4.4497,-4.4615,-4.4615,-4.4615,-4.4615,-4.4615,-4.4615,-4.4615,-4.4615,-4.4615,-4.4615,-4.4615,-4.4615,-4.4175,-4.2726,-4.1847,-4.1248,-4.0995,-4.0485,-4.0417,-4.1442,-4.0615,-4.0215,-4.1183,-4.0396,-3.9543,-3.893,-3.8762,-3.8432,-3.7713,-3.7566,-3.7199,-3.6486,-3.5628,-3.5188,-3.5188,-3.4504,-3.4137,-3.4137,-3.4137,-3.4137,-3.4137,-3.4137,-3.4504,-3.5188,-3.5475,-3.6,-3.9373,-3.9373,-3.9373,-3.9373,-3.9373,-3.9373,-3.9373,-3.9373,-3.9373,-3.9373,-3.9373,-3.9373,-3.9373,-3.9373,-3.9373,-3.9373,-3.9373,-3.9888,-4.1205,-4.1422,-4.1863,-4.314,-4.329,-4.329,-4.329,-4.329,-4.329,-4.329,-4.329,-4.329,-4.329,-4.329,-4.329,-4.329,-4.329,-4.3369,-4.3566,-4.3409,-4.3409,-4.3566,-4.3369,-4.329,-4.326,-4.1983,-4.1422,-4.1362,-3.9978,0.0,-3.9373,-3.9373,-3.9373,-3.9409,-3.9589,-4.006,-4.0724,-4.0894,-4.1363,-4.2013,-4.2173,-4.2707,-4.332,-4.3472,-4.4006,-4.4468,-4.3739,-4.4035,-4.4615,-4.4615,-4.4615,-4.4615,-4.4615,-4.4615,-4.4615,-4.4615,-4.4615,-4.4615,-4.4615,-4.4615,-4.4316,-4.3403,-4.2625,-4.1873,-4.1257,-4.057,-4.0154,-4.0377,-4.0535,-4.0697,-4.0713,-3.9819,-3.9291,-3.9648,-3.9093,-3.8652,-3.8505,-3.7896,-3.7456,-3.7309,-3.6523,-3.6083,-3.6083,-3.5936,-3.5862,-3.5862,-3.5862,-3.5862,-3.5862,-3.5862,-3.5936,-3.6083,-3.6117,-3.637,-3.9373,-3.9373,-3.9373,-3.9373,-3.9373,-3.9373,-3.9373,-3.9373,-3.9373,-3.9373,-3.9373,-3.9373,-3.9373,-3.9373,-3.9373,-3.9373,-3.9373,-3.9768,-4.0726,-4.1175,-4.1743,-4.2701,-4.312,-4.329,-4.329,-4.329,-4.329,-4.329,-4.329,-4.329,-4.329,-4.329,-4.329,-4.329,-4.329,-4.329,-4.329,-4.329,-4.329,-4.329,-4.329,-4.329,-4.326,-4.1983,-4.1422,-4.1362,-3.9978,-3.9373,-3.9373,-3.9373,-3.9373,-3.9373,-3.9373,-3.9631,-4.0095,-4.0519,-4.069,-4.0789,-4.169,-4.1949,-4.1949,-4.1949,-4.3136,-4.444,-4.3562,-4.3919,-4.4615,-4.4615,-4.4615,-4.4615,-4.4615,-4.4615,-4.4615,-4.4615,-4.4615,-4.4615,-4.4615,-4.4615,-4.435,-4.3572,-4.3132,-4.2523,-4.1407,-4.0899,-4.0527,-4.018,-4.0294,-4.0558,-4.0717,-4.0197,-3.9841,-3.991,-3.9533,-3.9166,-3.8726,-3.8358,-3.8102,-3.8102,-3.7367,-3.6942,-3.6942,-3.6523,-3.6303,-3.6303,-3.6303,-3.6303,-3.6303,-3.6303,-3.6523,-3.6942,-3.6942,-3.7212,-3.9373,-3.9373,-3.9373,-3.9373,-3.9373,-3.9373,-3.9373,-3.9373,-3.9373,-3.9373,-3.9373,-3.9373,-3.9373,-3.9373,-3.9373,-3.9373,-3.9373,-3.9649,-4.0307,-4.0965,-4.1662,-4.2321,-4.294,-4.329,-4.329,-4.329,-4.329,-4.329,-4.329,-4.329,-4.329,-4.329,-4.329,-4.329,-4.329,-4.329,-4.329,-4.329,-4.329,-4.329,-4.329,-4.329,-4.326,-4.1983,-4.1422,-4.1362,-3.9978,-3.9373,-3.9373,-3.9373,-3.9373,-3.9373,-3.9373,-3.9373,-3.9481,-4.017,-3.999,-3.9625,-4.0961,-4.1129,-4.069,-4.0451,-4.2045,-4.3856,-4.3017,-4.335,-4.4093,-4.427,-4.4327,-4.4355,-4.4559,-4.4615,-4.4615,-4.4615,-4.4615,-4.4615,-4.4615,-4.4615,-4.4384,-4.3775,-4.3511,-4.297,-4.1677,-4.1305,-4.0933,-4.0214,-4.0113,-4.0269,-4.0827,-4.0784,-4.0542,-4.0241,-4.0036,-3.9643,-3.9019,-3.8799,-3.8689,-3.8689,-3.8102,-3.7749,-3.7749,-3.7147,-3.6817,-3.6817,-3.6817,-3.6817,-3.6817,-3.6817,-3.7147,-3.7749,-3.7749,-3.8102,-3.9373,-3.9373,-3.9373,-3.9373,-3.9373,-3.9373,-3.9373,-3.9373,-3.9373,-3.9373,-3.9373,-3.9373,-3.9373,-3.9373,-3.9373,-3.9373,-3.9373,-3.9649,-4.0307,-4.0965,-4.1662,-4.2321,-4.294,-4.329,-4.329,-4.329,-4.329,-4.329,-4.329,-4.329,-4.329,-4.329,-4.329,-4.329,-4.329,-4.329,-4.329,-4.329,-4.329,-4.329,-4.329,-4.329,-4.326,-4.1983,-4.1422,-4.1362,-3.9978,-3.9373,0.0,-3.9373,-3.9373,-3.9373,-3.9373,-3.9373,-3.9409,-3.9481,-3.9481,-3.9409,-3.9589,-4.0095,-4.0554,-3.9773,-4.0724,-4.2109,-4.1198,-4.1528,-4.2426,-4.3199,-4.3413,-4.3591,-4.4384,-4.4615,-4.4615,-4.4615,-4.4615,-4.4615,-4.4615,-4.4615,-4.4581,-4.4513,-4.391,-4.3139,-4.232,-4.1644,-4.0933,-4.0214,-4.0113,-4.0269,-4.0827,-4.0897,-4.095,-4.123,-4.046,-3.9863,-3.979,-3.9129,-3.8689,-3.8689,-3.8615,-3.8579,-3.8579,-3.8505,-3.8469,-3.8469,-3.8469,-3.8469,-3.8469,-3.8469,-3.8505,-3.8579,-3.8579,-3.8615,-3.9373,-3.9373,-3.9373,-3.9373,-3.9373,-3.9373,-3.9373,-3.9373,-3.9373,-3.9373,-3.9373,-3.9373,-3.9373,-3.9373,-3.9373,-3.9373,-3.9373,-3.9499,-3.9768,-4.0726,-4.1512,-4.1782,-4.2701,-4.329,-4.329,-4.329,-4.329,-4.329,-4.329,-4.329,-4.329,-4.329,-4.329,-4.329,-4.329,-4.329,-4.329,-4.329,-4.329,-4.329,-4.329,-4.329,-4.326,-4.2372,-4.1782,-4.1324,-4.0397,-3.9798,0.0,-3.9373,-3.9373,-3.9373,-3.9373,-3.9373,-3.9373,-3.9373,-3.9373,-3.9373,-3.9373,-3.9631,-3.9849,-3.9517,-3.9879,-4.0481,-4.0656,-4.1297,-4.2205,-4.3047,-4.3323,-4.3502,-4.4384,-4.4615,-4.4615,-4.4615,-4.4615,-4.4615,-4.4615,-4.4615,-4.4615,-4.4615,-4.4316,-4.3876,-4.3098,-4.2354,-4.161,-4.0865,-4.0383,-4.0179,-4.0392,-4.0685,-4.1101,-4.1579,-4.1159,-4.0555,-3.9958,-3.9606,-3.9203,-3.8726,-3.8689,-3.8689,-3.8689,-3.8689,-3.8689,-3.8689,-3.8689,-3.8689,-3.8689,-3.8689,-3.8689,-3.8689,-3.8689,-3.8689,-3.9373,-3.9373,-3.9373,-3.9373,-3.9373,-3.9373,-3.9373,-3.9373,-3.9373,-3.9373,-3.9373,-3.9373,-3.9373,-3.9373,-3.9373,-3.9373,-3.9373,-3.9373,-3.9373,-4.0397,-4.1175,-4.1392,-4.2372,-4.312,-4.326,-4.329,-4.329,-4.329,-4.329,-4.329,-4.329,-4.329,-4.329,-4.329,-4.329,-4.329,-4.329,-4.329,-4.329,-4.329,-4.329,-4.329,-4.326,-4.2671,-4.2141,-4.1662,-4.0965,-4.0307,0.0,-3.9709,-3.9589,-3.9373,-3.9373,-3.9373,-3.9373,-3.9373,-3.9373,-3.9373,-3.9373,-3.9373,-3.9373,-3.9373,-3.9373,-3.9517,-4.01,-4.0724,-4.1428,-4.23,-4.2925,-4.3502,-4.4384,-4.4615,-4.4615,-4.4615,-4.4615,-4.4615,-4.4615,-4.4615,-4.4615,-4.4615,-4.4615,-4.4316,-4.3511,-4.2794,-4.2049,-4.1305,-4.0561,-4.0113,-4.0113,-4.0441,-4.0897,-4.1451,-4.1507,-4.1268,-4.0659,-4.0377,-3.99,-3.9129,-3.9056,-3.8946,-3.8726,-3.8689,-3.8689,-3.8689,-3.8689,-3.8689,-3.8689,-3.8689,-3.8836,-3.9056,-3.9056,-3.9166,-3.9373,-3.9373,-3.9373,-3.9373,-3.9373,-3.9373,-3.9373,-3.9373,-3.9373,-3.9373,-3.9373,-3.9373,-3.9373,-3.9373,-3.9373,-3.9373,-3.9373,-3.9373,-3.9373,-3.9978,-4.0666,-4.1294,-4.2021,-4.2611,-4.323,-4.329,-4.329,-4.329,-4.329,-4.329,-4.329,-4.329,-4.329,-4.329,-4.329,-4.329,-4.329,-4.329,-4.329,-4.329,-4.329,-4.329,-4.326,-4.2671,-4.241,-4.2351,-4.1692,-4.0995,0.0,-4.0397,-4.0008,-3.9373,-3.9373,-3.9373,-3.9373,-3.9373,-3.9373,-3.9373,-3.9373,-3.9373,-3.9373,-3.9373,-3.9373,-3.9373,-3.9409,-3.9409,-3.9625,-4.0451,-4.1949,-4.3502,-4.4384,-4.4615,-4.4615,-4.4615,-4.4615,-4.4615,-4.4615,-4.4615,-4.4615,-4.4615,-4.4615,-4.4316,-4.3511,-4.2794,-4.2049,-4.1305,-4.0561,-4.0113,-4.0113,-4.0113,-4.0294,-4.085,-4.1429,-4.1924,-4.2238,-4.1535,-4.0744,-3.9937,-3.99,-3.9533,-3.8726,-3.8689,-3.8689,-3.8689,-3.8689,-3.8689,-3.8689,-3.8689,-3.9129,-3.99,-3.99,-4.0304,-3.9373,-3.9373,-3.9373,-3.9373,-3.9373,-3.9373,-3.9373,-3.9373,-3.9373,-3.9373,-3.9373,-3.9373,-3.9373,-3.9373,-3.9373,-3.9373,-3.9373,-3.9373,-3.9373,-3.9978,-4.0636,-4.1294,-4.2372,-4.312,-4.326,-4.329,-4.329,-4.329,-4.329,-4.329,-4.329,-4.329,-4.329,-4.329,-4.329,-4.329,-4.329,-4.329,-4.329,-4.329,-4.329,-4.329,-4.329,-4.312,-4.2791,-4.2381,-4.2171,-4.1722,-4.1025,-4.0576,-4.0277,-4.0038,-3.9589,-3.9373,-3.9373,-3.9373,-3.9373,-3.9373,-3.9373,-3.9373,-3.9373,-3.9373,-3.9373,-3.9373,-3.9373,-3.9373,-3.9702,-4.1196,-4.2426,-4.3502,-4.4384,-4.4615,-4.4615,-4.4615,-4.4615,-4.4615,-4.4615,-4.4615,-4.4615,-4.4615,-4.4615,-4.4513,-4.4248,-4.3572,-4.2794,-4.2049,-4.1305,-4.0663,-4.018,-4.0113,-4.0328,-4.085,-4.1047,-4.1329,-4.1669,-4.1843,-4.1589,-4.0781,-4.0744,-4.0634,-4.0361,-4.0325,-4.0325,-4.0325,-4.0325,-4.0325,-4.0325,-4.0325,-4.0471,-4.0744,-4.0744,-4.0838,-3.9373,-3.9373,-3.9373,-3.9373,-3.9373,-3.9373,-3.9373,-3.9373,-3.9373,-3.9373,-3.9373,-3.9373,-3.9373,-3.9373,-3.9373,-3.9373,-3.9373,-3.9373,-3.9373,-3.9768,-4.0367,-4.1265,-4.2521,-4.329,-4.329,-4.329,-4.329,-4.329,-4.329,-4.329,-4.329,-4.329,-4.329,-4.329,-4.329,-4.329,-4.329,-4.329,-4.329,-4.329,-4.329,-4.329,-4.329,-4.329,-4.312,-4.2731,-4.2731,-4.2342,0.0,-4.1362,-4.0846,-4.0367,-3.9948,-3.9649,-3.9373,-3.9373,-3.9373,-3.9373,-3.9373,-3.9373,-3.9373,-3.9373,-3.9373,-3.9373,-3.9373,-3.9373,-3.9702,-4.1129,-4.2141,-4.3017,-4.3856,-4.4355,-4.4615,-4.4615,-4.4615,-4.4615,-4.4615,-4.4615,-4.4615,-4.4615,-4.4615,-4.4615,-4.4615,-4.3944,-4.3166,-4.2388,-4.1677,-4.0933,-4.018,-4.0113,-4.0229,-4.0552,-4.078,-4.1063,-4.1511,-4.2104,-4.2208,-4.1609,-4.1535,-4.1425,-4.1095,-4.1095,-4.1095,-4.1095,-4.1095,-4.1095,-4.1095,-4.1389,-4.1535,-4.1552,-4.1882,-4.2029,0.0,-3.9373,-3.9373,-3.9373,-3.9373,-3.9373,-3.9373,-3.9373,0.0,-3.9373,-3.9373,-3.9373,-3.9373,-3.9373,-3.9373,-3.9373,-3.9373,-3.9373,-3.9373,-3.9463,-4.0008,-4.1235,-4.2521,-4.329,-4.329,-4.329,-4.329,-4.329,-4.329,-4.329,-4.329,-4.329,-4.329,-4.329,-4.329,-4.329,-4.329,-4.329,-4.329,-4.329,-4.329,-4.329,-4.329,-4.329,-4.329,-4.329,-4.329,-4.3,-4.247,-4.241,-4.1692,-4.0516,-4.0427,-4.0038,-3.9499,-3.9439,-3.9373,-3.9373,-3.9373,-3.9373,-3.9373,-3.9373,-3.9373,-3.9373,-3.9373,-3.9373,-3.9559,-4.0451,-4.133,-4.2205,-4.3017,-4.3919,-4.4587,-4.4497,-4.4559,-4.4615,-4.4615,-4.4615,-4.4615,-4.4615,-4.4615,-4.4615,-4.4615,-4.3978,-4.3234,-4.2489,-4.1745,-4.1001,-4.0282,-4.0146,-4.0113,-4.0113,-4.0552,-4.1105,-4.1703,-4.2302,-4.2575,-4.2399,-4.2362,-4.2032,-4.1279,-4.1279,-4.1279,-4.1279,-4.1279,-4.1279,-4.1279,-4.2029,-4.2396,-4.2396,-4.313,-4.3515,-3.9373,0.0,-3.9373,-3.9373,-3.9373,-3.9373,0.0,-3.9373,-3.9373,-3.9373,-3.9373,-3.9373,-3.9373,-3.9373,-3.9373,-3.9373,-3.9373,-3.9373,-3.9373,-4.0277,-4.1025,-4.1354,-4.2521,-4.329,-4.329,-4.329,-4.329,-4.329,-4.329,-4.329,-4.329,-4.329,-4.329,-4.329,-4.329,-4.329,-4.329,-4.329,-4.329,-4.329,-4.329,-4.329,-4.329,-4.329,-4.329,-4.329,-4.329,-4.32,-4.306,-4.262,-4.2201,-4.1841,-4.0786,-4.0307,-4.0098,-3.9619,-3.9373,-3.9373,-3.9373,-3.9373,-3.9373,-3.9373,-3.9373,-3.9373,-3.9373,-3.9373,-3.9559,-4.0451,-4.133,-4.2045,-4.2269,-4.3439,-4.4412,-4.3739,-4.4093,-4.4615,-4.4615,-4.4615,-4.4615,-4.4615,-4.4615,-4.4615,-4.4615,-4.4445,-4.4045,-4.3267,-4.2523,-4.1779,-4.1035,-4.0451,-4.0113,-4.0113,-4.0204,-4.0538,-4.1139,-4.1682,-4.2354,-4.3152,-4.2832,-4.2705,-4.2947,-4.2947,-4.2947,-4.2947,-4.2947,-4.2947,-4.2947,-4.313,-4.3204,-4.3204,-4.3404,-4.3515,-3.9373,-3.9373,-3.9373,-3.9373,-3.9373,-3.9373,-3.9373,-3.9373,-3.9373,-3.9373,-3.9373,-3.9373,-3.9373,-3.9373,-3.9373,-3.9373,-3.9373,-3.9493,-3.9828,-4.0756,-4.1542,-4.1841,-4.2731,-4.329,-4.329,-4.329,-4.329,-4.329,-4.329,-4.329,-4.329,-4.329,-4.329,-4.329,-4.329,-4.329,-4.329,-4.329,-4.329,-4.329,-4.329,-4.329,-4.329,-4.329,-4.329,-4.329,-4.329,-4.329,-4.326,-4.294,-4.2641,-4.2291,-4.1235,-4.0666,-4.0337,-3.9679,-3.9373,-3.9373,-3.9373,-3.9373,-3.9373,-3.9373,-3.9373,-3.9373,-3.9373,-3.9373,-3.9517,-3.9955,-4.0724,-4.1396,-4.1396,-4.2707,-4.3889,-4.3413,-4.3977,-4.4615,-4.4615,-4.4615,-4.4615,-4.4615,-4.4615,-4.4615,-4.4615,-4.4615,-4.4344,-4.3511,-4.3064,-4.2422,-4.1339,-4.0832,-4.0485,-4.0146,-4.0113,-4.0353,-4.0908,-4.1001,-4.1508,-4.2657,-4.2462,-4.2541,-4.3124,-4.3142,-4.325,-4.3497,-4.3515,-4.3515,-4.3515,-4.3515,-4.3515,-4.3515,-4.3515,-4.3515,-3.9373,-3.9373,-3.9373,-3.9373,-3.9373,-3.9373,-3.9373,-3.9373,-3.9373,-3.9373,-3.9373,-3.9373,-3.9373,-3.9373,-3.9373,-3.9373,-3.9373,-3.9649,-4.0307,-4.0965,-4.1662,-4.2321,-4.294,-4.329,-4.329,-4.329,-4.329,-4.329,-4.329,-4.329,-4.329,-4.329,-4.329,-4.329,-4.329,-4.329,-4.329,-4.329,-4.329,-4.329,-4.329,-4.329,-4.329,-4.329,-4.329,-4.329,-4.329,0.0,-4.329,-4.329,-4.3,-4.247,-4.1722,-4.1025,-4.0457,-3.9709,-3.9373,-3.9373,-3.9373,-3.9373,-3.9373,-3.9373,-3.9373,-3.9373,-3.9373,-3.9373,-3.9373,-3.9373,-4.0025,-4.069,-4.0519,-4.1788,-4.3078,-4.2956,-4.3591,-4.4236,-4.4384,-4.4412,-4.444,-4.4587,-4.4615,-4.4615,-4.4615,-4.4615,-4.4378,-4.3707,-4.3477,-4.2936,-4.1711,-4.1339,-4.0967,-4.035,-4.018,-4.0303,-4.0733,-4.0368,-4.0514,-4.1486,-4.1703,-4.2103,-4.2789,-4.2808,-4.305,-4.3497,-4.3515,-4.3515,-4.3515,-4.3515,-4.3515,-4.3515,-4.3515,-4.3515,-3.9373,-3.9373,-3.9373,-3.9373,-3.9373,-3.9373,-3.9373,-3.9373,-3.9373,-3.9373,-3.9373,-3.9373,-3.9373,-3.9373,-3.9373,-3.9373,-3.9373,-3.9649,-4.0307,-4.0965,-4.1662,-4.2321,-4.294,-4.329,-4.329,-4.329,-4.329,-4.329,-4.329,-4.329,-4.329,-4.329,-4.329,-4.329,-4.329,-4.329,-4.329,-4.329,-4.329,-4.329,-4.329,-4.329,-4.329,-4.329,-4.329,-4.329,0.0,-4.329,-4.329,-4.329,-4.323,-4.3021,-4.1863,-4.1324,-4.1085,-3.9858,-3.9373,-3.9373,-3.9373,-3.9373,-3.9373,-3.9373,-3.9373,-3.9373,-3.9373,-3.9373,-3.9373,-3.9373,-4.0025,-4.0519,-3.9809,-4.0894,-4.2013,-4.1264,-4.1756,-4.2614,-4.332,-4.3502,-4.371,-4.444,-4.4615,-4.4615,-4.4615,-4.4615,-4.4581,-4.4418,-4.3842,-4.3308,-4.3071,-4.1982,-4.117,-4.1035,-4.046,-4.0129,-4.0229,-4.0129,-4.0154,-4.0353,-4.1263,-4.2266,-4.3321,-4.3356,-4.3428,-4.3515,-4.3515,-4.3515,-4.3515,-4.3515,-4.3515,-4.3515,-4.3515,-4.3515,-3.9373,-3.9373,-3.9373,-3.9373,-3.9373,-3.9373,-3.9373,-3.9373,-3.9373,-3.9373,-3.9373,-3.9373,-3.9373,-3.9373,-3.9373,-3.9373,-3.9709,-4.0187,-4.0846,-4.1542,-4.2201,-4.2821,-4.315,-4.329,-4.329,-4.329,-4.329,-4.329,-4.329,-4.329,-4.329,-4.329,-4.329,-4.329,-4.329,-4.329,-4.329,-4.329,-4.329,-4.329,-4.329,-4.329,-4.329,-4.329,-4.329,-4.329,0.0,-4.329,-4.329,-4.329,-4.312,-4.2701,-4.1743,-4.1175,-4.0726,-3.9768,-3.9373,-3.9373,-3.9373,-3.9373,-3.9373,-3.9373,-3.9373,-3.9373,-3.9373,-3.9373,-3.9373,-3.9373,-3.9702,-3.9884,-3.9517,-4.0343,-4.1198,-4.0792,-4.1363,-4.2237,-4.3108,-4.3323,-4.3562,-4.4412,-4.4615,-4.4615,-4.4615,-4.4615,-4.4615,-4.4615,-4.4282,-4.391,-4.3443,-4.2801,-4.2252,-4.1847,-4.1474,-4.1128,-4.073,-4.0696,-4.0646,-4.0538,-4.1331,-4.2165,-4.3014,-4.3339,-4.3515,-4.3515,-4.3515,-4.3515,-4.3515,-4.3515,-4.3515,-4.3515,-4.3515,-4.3515,-3.9373,-3.9373,-3.9373,-3.9373,-3.9373,-3.9373,-3.9373,-3.9373,-3.9373,-3.9373,-3.9373,-3.9373,-3.9373,-3.9373,-3.9373,-3.9373,-3.9978,-4.0636,-4.1332,-4.1991,-4.265,-4.323,-4.329,-4.329,-4.329,-4.329,-4.329,-4.329,-4.329,-4.329,-4.329,-4.329,-4.329,-4.329,-4.329,-4.329,-4.329,-4.329,-4.329,-4.329,-4.329,-4.329,-4.329,-4.329,-4.32,-4.312,-4.312,-4.303,-4.288,-4.288,-4.2581,-4.2111,-4.1452,-4.0756,-4.0098,-3.9619,-3.9373,-3.9373,-3.9373,-3.9373,-3.9373,-3.9373,-3.9373,-3.9373,-3.9373,-3.9373,-3.9373,-3.9373,-3.9373,-3.9373,-3.9373,-3.9884,-4.0413,-4.0413,-4.0894,-4.1657,-4.2489,-4.2831,-4.3259,-4.4121,-4.444,-4.4615,-4.4615,-4.4615,-4.4615,-4.4615,-4.4615,-4.4378,-4.3775,-4.3511,-4.32,-4.2625,-4.2388,-4.2049,-4.1508,-4.1474,-4.1384,-4.1185,-4.1723,-4.2221,-4.2674,-4.3214,-4.3515,-4.3515,-4.3515,-4.3515,-4.3515,-4.3515,-4.3515,-4.3515,-4.3515,-4.3515,-3.9373,-3.9373,-3.9373,-3.9373,-3.9373,-3.9373,-3.9373,-3.9373,-3.9373,-3.9373,-3.9373,-3.9373,-3.9373,-3.9373,-3.9373,-3.9373,-3.9978,-4.0636,-4.1332,-4.1991,-4.265,-4.323,-4.329,-4.329,-4.329,-4.329,-4.329,-4.329,-4.329,-4.329,-4.329,-4.329,-4.329,-4.329,-4.329,-4.329,-4.329,-4.329,-4.329,-4.329,-4.329,-4.329,-4.329,-4.329,-4.3,-4.247,-4.247,-4.2111,-4.1534,-4.1534,-4.1504,-4.1422,-4.0726,-4.0068,-3.9499,-3.9439,-3.9373,-3.9373,-3.9373,-3.9373,-3.9373,-3.9373,-3.9373,-3.9373,-3.9373,-3.9373,-3.9373,-3.9373,-3.9373,-3.9373,-3.9373,-3.9445,-3.9481,-3.9481,-3.9553,-3.9844,-4.069,-4.1528,-4.2363,-4.3229,-4.4035,-4.4615,-4.4615,-4.4615,-4.4615,-4.4615,-4.4615,-4.4581,-4.4513,-4.3876,-4.3375,-4.3308,-4.2726,-4.2286,-4.2219,-4.2219,-4.2167,-4.2026,-4.2384,-4.2655,-4.2693,-4.3214,-4.3515,-4.3515,-4.3515,-4.3515,-4.3515,-4.3515,-4.3515,-4.3515,-4.3515,-4.3515,-3.9373,-3.9373,-3.9373,-3.9373,-3.9373,-3.9373,-3.9373,-3.9373,-3.9373,-3.9373,-3.9373,-3.9373,-3.9373,-3.9373,-3.9373,-3.9373,-4.0307,-4.1085,-4.1354,-4.2282,-4.306,-4.326,-4.329,-4.329,-4.329,-4.329,-4.329,-4.329,-4.329,-4.329,-4.329,-4.329,-4.329,-4.329,-4.329,-4.329,-4.329,-4.329,-4.312,-4.2731,-4.2731,-4.2731,-4.2731,-4.2312,-4.1983,-4.1782,-4.1782,-4.1662,-4.1422,-4.1422,-4.1145,-4.0696,-4.0038,-3.9649,-3.9373,-3.9373,-3.9373,-3.9373,-3.9373,-3.9373,-3.9373,-3.9373,-3.9373,-3.9373,-3.9373,-3.9373,-3.9373,-3.9373,-3.9373,-3.9373,-3.9373,-3.9373,-3.9373,-3.9373,-3.9373,-3.9631,-4.0485,-4.1363,-4.2269,-4.3139,-4.4006,-4.4615,-4.4615,-4.4615,-4.4615,-4.4615,-4.4615,-4.4615,-4.4615,-4.4316,-4.4147,-4.4147,-4.3436,-4.2997,-4.2997,-4.2557,-4.2257,-4.2245,-4.2288,-4.2427,-4.2691,-4.2884,-4.316,-4.3497,-4.3515,-4.3515,-4.3515,-4.3515,-4.3515,-4.3515,-4.3515,-4.3515,-3.9373,-3.9373,-3.9373,-3.9373,-3.9373,-3.9373,-3.9373,-3.9373,-3.9373,-3.9373,-3.9373,-3.9373,-3.9373,-3.9373,-3.9463,-3.9709,-4.0666,-4.1444,-4.1692,-4.2641,-4.329,-4.329,-4.329,-4.329,-4.329,-4.329,-4.329,-4.329,-4.329,-4.329,-4.329,-4.329,-4.329,-4.329,-4.329,-4.329,-4.329,-4.329,-4.3,-4.241,-4.2201,-4.2081,-4.2081,-4.1632,-4.1265,-4.1055,-4.1055,-4.0935,-4.0756,-4.0756,-4.0487,-4.0038,-3.9589,-3.9373,-3.9373,-3.9373,-3.9373,-3.9373,-3.9373,-3.9373,-3.9373,-3.9373,-3.9373,-3.9373,-3.9373,-3.9373,-3.9373,-3.9373,-3.9373,-3.9373,-3.9373,-3.9373,-3.9373,-3.9373,-3.9373,-3.9589,-4.0135,-4.0961,-4.1853,-4.2707,-4.3591,-4.4298,-4.4559,-4.4615,-4.4615,-4.4615,-4.4615,-4.4615,-4.4615,-4.4615,-4.4615,-4.4615,-4.4113,-4.3775,-4.3775,-4.3301,-4.2895,-4.2658,-4.2569,-4.2519,-4.2525,-4.2857,-4.3099,-4.3232,-4.3391,-4.3515,-4.3515,-4.3515,-4.3515,-4.3515,-4.3515,-4.3515,-3.9373,-3.9373,-3.9373,-3.9373,-3.9373,-3.9373,-3.9373,-3.9373,-3.9373,-3.9373,-3.9373,-3.9373,-3.9373,-3.9373,-3.9649,-4.0277,-4.0935,-4.1662,-4.2321,-4.291,-4.329,-4.329,-4.329,-4.329,-4.329,-4.329,-4.329,-4.329,-4.329,-4.329,-4.329,-4.329,-4.329,-4.329,-4.329,-4.329,-4.329,-4.329,-4.3,-4.2381,-4.1722,-4.1422,-4.1422,-4.1354,-4.0995,-4.0397,-4.0397,-4.0008,-3.9373,-3.9373,-3.9373,-3.9373,-3.9373,-3.9373,-3.9373,-3.9373,-3.9373,-3.9373,-3.9373,-3.9373,-3.9373,-3.9373,-3.9373,-3.9373,-3.9373,-3.9373,-3.9373,-3.9373,-3.9373,-3.9373,-3.9373,-3.9373,-3.9373,-3.9373,-3.9373,-3.9373,-3.9373,-4.0095,-4.0961,-4.182,-4.2707,-4.3562,-4.444,-4.4615,-4.4615,-4.4615,-4.4615,-4.4615,-4.4615,-4.4615,-4.4615,-4.4615,-4.4615,-4.4615,-4.4615,-4.4615,-4.4248,-4.3443,-4.3409,-4.3019,-4.213,-4.3209,-4.3428,-4.2729,-4.3214,-4.3497,-4.3515,-4.3515,-4.3515,-4.3515,-4.3515,-4.3515,-3.9373,-3.9373,-3.9373,-3.9373,-3.9373,-3.9373,-3.9373,-3.9373,-3.9373,-3.9373,-3.9373,-3.9373,-3.9373,-3.9373,-3.9649,-4.0277,-4.0935,-4.1662,-4.2321,-4.291,-4.329,-4.329,-4.329,-4.329,-4.329,-4.329,-4.329,-4.329,-4.329,-4.329,-4.329,-4.329,-4.329,-4.329,-4.329,-4.329,-4.329,-4.288,-4.2312,-4.1692,-4.0995,-4.0696,-4.0666,-4.0217,-3.9888,-3.9709,-3.9709,-3.9553,-3.9373,-3.9373,-3.9373,-3.9373,-3.9373,-3.9373,-3.9373,-3.9373,-3.9373,-3.9373,-3.9373,-3.9373,-3.9373,-3.9373,-3.9373,-3.9373,-3.9373,-3.9373,-3.9373,-3.9373,-3.9373,-3.9373,-3.9373,-3.9373,-3.9373,-3.9373,-3.9373,-3.9373,-3.9373,-4.0095,-4.0961,-4.182,-4.2707,-4.3562,-4.444,-4.4615,-4.4615,-4.4615,-4.4615,-4.4615,-4.4615,-4.4615,-4.4615,-4.4615,-4.4615,-4.4615,-4.4615,-4.4615,-4.4513,-4.4248,-4.4215,-4.3836,-4.2891,-4.3208,-4.3417,-4.3464,-4.364,-4.3651,-4.3515,-4.3515,-4.3515,-4.3515,-4.3515,-4.3515,-3.9373,-3.9373,-3.9373,-3.9373,-3.9373,-3.9373,-3.9373,-3.9373,-3.9373,-3.9373,-3.9619,-3.9798,-3.9798,-4.0008,-4.0397,-4.1085,-4.1504,-4.2021,-4.2671,-4.309,-4.329,-4.329,-4.329,-4.329,-4.329,-4.329,-4.329,-4.329,-4.329,-4.329,-4.329,-4.329,-4.329,-4.329,-4.329,-4.317,-4.294,-4.259,-4.1931,-4.0995,-4.0576,-4.0277,-4.0008,-3.9553,-3.9373,-3.9373,-3.9373,-3.9373,-3.9373,-3.9373,-3.9373,-3.9373,-3.9373,-3.9373,-3.9373,-3.9373,-3.9373,-3.9373,-3.9373,-3.9373,-3.9373,-3.9373,-3.9373,-3.9373,-3.9373,-3.9373,-3.9373,-3.9373,-3.9373,-3.9373,-3.9373,-3.9373,-3.9373,-3.9373,-3.9373,-3.9373,-3.9373,-3.9809,-4.0447,-4.1297,-4.2205,-4.3078,-4.3948,-4.4355,-4.4615,-4.4615,-4.4615,-4.4615,-4.4615,-4.4615,-4.4615,-4.4615,-4.4615,-4.4615,-4.4615,-4.4615,-4.4615,-4.4615,-4.4615,-4.434,-4.3786,-4.3664,-4.3602,-4.3584,-4.3765,-4.3944,-4.409,-4.409,-4.4218,-4.4469,-4.4121,-4.3975,-3.9373,-3.9373,-3.9373,-3.9373,-3.9373,-3.9373,-3.9373,-3.9373,-3.9373,-3.9373,-3.9948,-4.0397,-4.0397,-4.0935,-4.1632,-4.2291,-4.241,-4.262,-4.32,-4.329,-4.329,-4.329,-4.329,-4.329,-4.329,-4.329,-4.329,-4.329,-4.329,-4.329,-4.329,-4.329,-4.329,-4.329,-4.323,-4.294,-4.241,-4.2291,-4.1632,-4.0397,-4.0337,-4.0008,-3.9373,-3.9373,-3.9373,-3.9373,-3.9373,-3.9373,-3.9373,-3.9373,-3.9373,-3.9373,-3.9373,-3.9373,-3.9373,-3.9373,-3.9373,-3.9373,-3.9373,-3.9373,-3.9373,-3.9373,-3.9373,-3.9373,-3.9373,-3.9373,-3.9373,-3.9373,-3.9373,-3.9373,-3.9373,-3.9373,-3.9373,-3.9373,-3.9373,-3.9373,-3.9373,-3.9373,-3.9666,-4.0519,-4.1396,-4.23,-4.3139,-4.4035,-4.4615,-4.4615,-4.4615,-4.4615,-4.4615,-4.4615,-4.4615,-4.4615,-4.4615,-4.4615,-4.4615,-4.4615,-4.4615,-4.4615,-4.4615,-4.4615,-4.4615,-4.4411,-4.3991,-4.3296,-4.3793,-4.4338,-4.5019,-4.5019,-4.5299,-4.5883,-4.5149,-4.4782,-3.9373,-3.9373,-3.9373,-3.9373,-3.9373,-3.9373,-3.9373,-3.9373,-3.9373,-3.9373,-3.9948,-4.0397,-4.0397,-4.0935,-4.1632,-4.2291,-4.241,-4.262,-4.32,-4.329,-4.329,-4.329,-4.329,-4.329,-4.329,-4.329,-4.329,-4.329,-4.329,-4.329,-4.329,-4.329,-4.329,-4.329,-4.2851,-4.253,-4.241,-4.1362,-4.0696,-4.0397,-3.9888,-3.9559,-3.9373,-3.9373,-3.9373,-3.9373,-3.9373,-3.9373,-3.9373,-3.9373,-3.9373,-3.9373,-3.9373,-3.9373,-3.9373,-3.9373,-3.9373,-3.9373,-3.9373,-3.9373,-3.9373,-3.9373,-3.9373,-3.9373,-3.9373,-3.9373,-3.9373,-3.9373,-3.9373,-3.9373,-3.9373,-3.9373,-3.9373,-3.9373,-3.9373,-3.9373,-3.9373,-3.9373,-3.9666,-4.0519,-4.1396,-4.23,-4.3139,-4.4035,-4.4615,-4.4615,-4.4615,-4.4615,-4.4615,-4.4615,-4.4615,-4.4615,-4.4615,-4.4615,-4.4615,-4.4615,-4.4615,-4.4615,-4.4615,-4.4615,-4.4615,-4.4584,-4.4373,-4.4076,-4.4193,-4.4495,-4.5019,-4.5019,-4.5299,-4.5883,-4.5736,-4.5296,-3.9373,-3.9373,-3.9373,-3.9373,-3.9373,-3.9373,-3.9373,-3.9373,-3.9373,-3.9373,-3.9948,-4.0487,-4.0816,-4.1452,-4.2111,-4.2731,-4.2821,-4.294,-4.326,-4.329,-4.329,-4.329,-4.329,-4.329,-4.329,-4.329,-4.329,-4.329,-4.329,-4.329,-4.329,-4.329,-4.314,-4.288,-4.256,-4.2081,-4.1482,-4.0756,-4.0247,-3.9918,-3.9589,-3.9373,-3.9373,-3.9373,-3.9373,-3.9373,-3.9373,-3.9373,-3.9373,-3.9373,-3.9373,-3.9373,-3.9373,-3.9373,-3.9373,-3.9373,-3.9373,-3.9373,-3.9373,-3.9373,-3.9373,-3.9373,-3.9373,-3.9373,-3.9373,-3.9373,-3.9373,-3.9373,-3.9373,-3.9373,-3.9373,-3.9373,-3.9373,-3.9373,-3.9373,-3.9373,-3.9373,-3.9373,-3.9553,-3.999,-4.0792,-4.1658,-4.252,-4.3739,-4.4615,-4.4615,-4.4615,-4.4615,-4.4615,-4.4615,-4.4615,-4.4615,-4.4615,-4.4615,-4.4615,-4.4615,-4.4615,-4.4615,-4.4615,-4.4615,-4.4615,-4.4615,-4.455,-4.446,-4.4426,-4.4706,-4.5244,-4.5244,-4.5716,-4.662,-4.62,-4.5971,-3.9053,-3.909,-3.909,-3.909,-3.909,-3.9192,-3.9337,-3.9265,-3.9192,-3.9337,-3.9948,-4.0576,-4.1115,-4.1782,-4.241,-4.2871,-4.2961,-4.2991,-4.315,-4.311,-4.317,-4.329,-4.329,-4.329,-4.329,-4.329,-4.329,-4.329,-4.329,-4.323,-4.314,-4.311,-4.2851,-4.2261,-4.2111,-4.1542,-4.0397,-4.0277,-3.9948,-3.9373,-3.9373,-3.9373,-3.9373,-3.9373,-3.9373,-3.9373,-3.9373,-3.9373,-3.9373,-3.9373,-3.9373,-3.9373,-3.9373,-3.9373,-3.9373,-3.9373,-3.9373,-3.9373,-3.9373,-3.9373,-3.9373,-3.9373,-3.9373,-3.9373,-3.9373,-3.9373,-3.9373,-3.9373,-3.9373,-3.9373,-3.9373,-3.9373,-3.9373,-3.9373,-3.9373,-3.9373,-3.9373,-3.9373,-3.9373,-3.9373,-4.01,-4.0997,-4.2045,-4.341,-4.4412,-4.4587,-4.4615,-4.4615,-4.4615,-4.4615,-4.4615,-4.4615,-4.4615,-4.4615,-4.4615,-4.4615,-4.4615,-4.4615,-4.4615,-4.4615,-4.4615,-4.4615,-4.4615,-4.4615,-4.4615,-4.4906,-4.5494,-4.5494,-4.6088,-4.7198,-4.6529,-4.6422,-3.7738,-3.7994,-3.7994,-3.7994,-3.7994,-3.8256,-3.9192,-3.8657,-3.8256,-3.9228,-3.9948,-4.0427,-4.0516,-4.1055,-4.1572,-4.1624,-4.1654,-4.1833,-4.244,-4.253,-4.2701,-4.323,-4.329,-4.329,-4.329,-4.329,-4.329,-4.329,-4.329,-4.309,-4.256,-4.253,-4.2231,-4.1572,-4.0965,-4.0576,-4.0397,-3.9828,-3.9499,-3.9373,-3.9373,-3.9373,-3.9373,-3.9373,-3.9373,-3.9373,-3.9373,-3.9373,-3.9373,-3.9373,-3.9373,-3.9373,-3.9373,-3.9373,-3.9373,-3.9373,-3.9373,-3.9373,-3.9373,-3.9373,-3.9373,-3.9373,-3.9373,-3.9373,-3.9373,-3.9373,-3.9373,-3.9373,-3.9373,-3.9373,-3.9373,-3.9373,-3.9373,-3.9373,-3.9373,-3.9373,-3.9373,-3.9373,-3.9373,-3.9373,-4.01,-4.1198,-4.2863,-4.3323,-4.371,-4.4468,-4.4615,-4.4615,-4.4615,-4.4615,-4.4615,-4.4615,-4.4615,-4.4615,-4.4615,-4.4615,-4.4615,-4.4615,-4.4615,-4.4615,-4.4615,-4.4615,-4.4615,-4.4615,-4.4615,-4.4906,-4.5494,-4.5494,-4.584,-4.6507,-4.64,-4.6056,-3.676,-3.6905,-3.6905,-3.6905,-3.6905,-3.7021,-3.7482,-3.7252,-3.7214,-3.8256,-3.8743,-3.9253,-4.0226,-4.0636,-4.0935,-4.1324,-4.1422,-4.1512,-4.1811,-4.1841,-4.1961,-4.2192,-4.2252,-4.2252,-4.2252,-4.2252,-4.2252,-4.2252,-4.2252,-4.2102,-4.1871,-4.1841,-4.1504,-4.0846,-4.0546,-4.0217,-3.9858,-3.9559,-3.9373,-3.9373,-3.9373,-3.9373,-3.9373,-3.9373,-3.9373,-3.9373,-3.9373,-3.9373,-3.9373,-3.9373,-3.9373,-3.9373,-3.9373,-3.9373,-3.9373,-3.9373,-3.9373,-3.9373,-3.9373,-3.9373,-3.9373,-3.9373,-3.9373,-3.9373,-3.9373,-3.9373,-3.9373,-3.9373,-3.9373,-3.9373,-3.9373,-3.9373,-3.9373,-3.9373,-3.9373,-3.9373,-3.9373,-3.9373,-3.9373,-3.9373,-4.01,-4.1129,-4.2363,-4.2986,-4.3591,-4.4468,-4.4615,-4.4615,-4.4615,-4.4615,-4.4615,-4.4615,-4.4615,-4.4615,-4.4615,-4.4615,-4.4615,-4.4615,-4.4615,-4.4615,-4.4615,-4.4615,-4.4615,-4.4615,-4.4615,-4.472,-4.5015,-4.5015,-4.5294,-4.589,-4.589,-4.5912,-3.5494,-3.5614,-3.5814,-3.5814,-3.5814,-3.5894,-3.6132,-3.6013,-3.6093,-3.7175,-3.7396,-3.7806,-3.9086,-3.9765,-4.0233,-4.0448,-4.0726,-4.0935,-4.1115,-4.1145,-4.1205,-4.1392,-4.1422,-4.1422,-4.1422,-4.1422,-4.1422,-4.1422,-4.1422,-4.1362,-4.1145,-4.1145,-4.0816,-4.0157,-4.0157,-3.9918,-3.9373,-3.9373,-3.9373,-3.9373,-3.9373,-3.9373,-3.9373,-3.9373,-3.9373,-3.9373,-3.9373,-3.9373,-3.9373,-3.9373,-3.9373,-3.9373,-3.9373,-3.9373,-3.9373,-3.9373,-3.9373,-3.9373,-3.9373,-3.9373,-3.9373,-3.9373,-3.9373,-3.9373,-3.9373,-3.9373,-3.9373,-3.9373,-3.9373,-3.9373,-3.9373,-3.9373,-3.9373,-3.9373,-3.9373,-3.9373,-3.9373,-3.9373,-3.9373,-3.9373,-3.992,-4.0656,-4.1495,-4.2395,-4.3259,-4.4121,-4.444,-4.4615,-4.4615,-4.4615,-4.4615,-4.4615,-4.4615,-4.4615,-4.4615,-4.4615,-4.4615,-4.4615,-4.4615,-4.4615,-4.4615,-4.4615,-4.4615,-4.4615,-4.4615,-4.4615,-4.4615,-4.4615,-4.4824,-4.5267,-4.5267,-4.5494,-3.3556,-3.3995,-3.4774,-3.4774,-3.4774,-3.502,-3.5974,-3.548,-3.5061,-3.6093,-3.629,-3.633,-3.6397,-3.8098,-3.9112,-3.8156,-3.8848,-3.9738,-4.0367,-4.0457,-4.0696,-4.1294,-4.1422,-4.1422,-4.1422,-4.1422,-4.1422,-4.1422,-4.1422,-4.1115,-4.0487,-4.0457,-4.0157,-3.9463,-3.9433,-3.9469,-3.9373,-3.9373,-3.9373,-3.9373,-3.9373,-3.9373,-3.9373,-3.9373,-3.9373,-3.9373,-3.9373,-3.9373,-3.9373,-3.9373,-3.9373,-3.9373,-3.9373,-3.9373,-3.9373,-3.9373,-3.9373,-3.9373,-3.9373,-3.9373,-3.9373,-3.9373,-3.9373,-3.9373,-3.9373,-3.9373,-3.9373,-3.9373,-3.9373,-3.9373,-3.9373,-3.9373,-3.9373,-3.9373,-3.9373,-3.9373,-3.9373,-3.9373,-3.9373,-3.9373,-3.9445,-3.9737,-4.0622,-4.1462,-4.2363,-4.3229,-4.4064,-4.4615,-4.4615,-4.4615,-4.4615,-4.4615,-4.4615,-4.4615,-4.4615,-4.4615,-4.4615,-4.4615,-4.4615,-4.4615,-4.4615,-4.4615,-4.4615,-4.4615,-4.4615,-4.4615,-4.4615,-4.4615,-4.4643,-4.4671,-4.4671,-4.4637,-3.3197,-3.3386,-3.3683,-3.3683,-3.3683,-3.3742,-3.4137,-3.3953,-3.3995,-3.502,-3.5238,-3.5238,-3.5238,-3.6369,-3.7214,-3.6838,-3.7098,-3.7453,-3.7652,-3.8312,-3.8806,-3.904,-3.9728,-4.0127,-4.0127,-4.0127,-4.0127,-4.0127,-4.0127,-4.0008,-3.9798,-3.9768,-3.9679,-3.9403,-3.9373,-3.9373,-3.9373,-3.9373,-3.9373,-3.9373,-3.9373,-3.9373,-3.9373,-3.9373,-3.9373,-3.9373,-3.9373,-3.9373,-3.9373,-3.9373,-3.9373,-3.9373,-3.9373,-3.9373,-3.9373,-3.9373,-3.9373,-3.9373,-3.9373,-3.9373,-3.9373,-3.9373,-3.9373,-3.9373,-3.9373,-3.9373,-3.9373,-3.9373,-3.9373,-3.9373,-3.9373,-3.9373,-3.9373,-3.9373,-3.9373,-3.9373,-3.9373,-3.9373,-3.9373,-3.9373,-3.9373,-3.9666,-4.0554,-4.0961,-4.1658,-4.3078,-4.3562,-4.3977,-4.453,-4.4615,-4.4615,-4.4615,-4.4615,-4.4615,-4.4615,-4.4615,-4.4615,-4.4615,-4.4615,-4.4615,-4.4615,-4.4615,-4.4615,-4.4615,-4.4615,-4.4615,-4.4615,-4.4615,-4.4615,-4.4615,-4.4615,-4.4615,-3.3111,-3.3111,-3.3111,-3.3111,-3.3111,-3.3111,-3.3111,-3.3111,-3.3326,-3.4037,-3.4163,-3.4163,-3.4163,-3.4733,-3.5278,-3.5614,-3.5974,-3.6212,-3.6212,-3.6799,-3.7252,-3.7252,-3.8219,-3.887,-3.887,-3.9192,-3.9373,-3.9373,-3.9373,-3.9373,-3.9373,-3.9373,-3.9373,-3.9373,-3.9373,-3.9373,-3.9373,-3.9373,-3.9373,-3.9373,-3.9373,-3.9373,-3.9373,-3.9373,-3.9373,-3.9373,-3.9373,-3.9373,-3.9373,-3.9373,-3.9373,-3.9373,-3.9373,-3.9373,-3.9373,-3.9373,-3.9373,-3.9373,-3.9373,-3.9373,-3.9373,-3.9373,-3.9373,-3.9373,-3.9373,-3.9373,-3.9373,-3.9373,-3.9373,-3.9373,-3.9373,-3.9373,-3.9373,-3.9373,-3.9373,-3.9373,-3.9373,-3.9373,-3.9373,-3.9373,-3.9373,-3.9559,-4.017,-4.0485,-4.1064,-4.2269,-4.2676,-4.3169,-4.4064,-4.415,-4.4298,-4.4587,-4.4615,-4.4615,-4.4615,-4.4615,-4.4615,-4.4615,-4.4615,-4.4615,-4.4615,-4.4615,-4.4615,-4.4615,-4.4615,-4.4615,-4.4615,-4.4615,-4.4615,-4.4615,-4.4615,-4.4615,0.0,0.0,0.0,-3.3111,-3.3111,-3.3111,-3.3111,-3.3111,-3.3111,-3.3111,-3.3111,-3.3111,-3.3111,-3.3111,-3.3428,-3.447,-3.548,-3.6132,-3.6132,-3.6132,-3.6172,-3.6172,-3.7098,-3.7738,-3.7738,-3.8694,-3.9301,-3.9301,-3.9301,-3.9301,-3.9301,-3.9337,-3.9373,-3.9373,-3.9373,-3.9373,-3.9373,-3.9373,-3.9373,-3.9373,-3.9373,-3.9373,-3.9373,-3.9373,-3.9373,-3.9373,-3.9373,-3.9373,-3.9373,-3.9373,-3.9373,-3.9373,-3.9373,-3.9373,-3.9373,-3.9373,-3.9373,-3.9373,-3.9373,-3.9373,-3.9373,-3.9373,-3.9373,-3.9373,-3.9373,-3.9373,-3.9373,-3.9373,-3.9373,-3.9373,-3.9373,-3.9373,-3.9373,-3.9373,-3.9373,-3.9373,-3.9373,-3.9373,-3.9373,-3.9373,-3.9373,-3.9373,-3.9373,-4.01,-4.069,-4.069,-4.1396,-4.23,-4.3169,-4.3323,-4.3621,-4.453,-4.4615,-4.4615,-4.4615,-4.4615,-4.4615,-4.4615,-4.4615,-4.4615,-4.4615,-4.4615,-4.4615,-4.4615,-4.4615,-4.4615,-4.4615,-4.4615,-4.4615,-4.4615,-4.4615,-4.4615,-3.3111,0.0,0.0,0.0,0.0,0.0,-3.3111,-3.3111,-3.3111,-3.3111,-3.3111,-3.3111,-3.3111,-3.3111,-3.3197,-3.3471,-3.3784,-3.3969,-3.3969,-3.4609,-3.5116,-3.5116,-3.6041,-3.6643,-3.6643,-3.6916,-3.7098,-3.7098,-3.7098,-3.7098,-3.7098,-3.7814,-3.8583,-3.9373,-3.9373,-3.9373,-3.9373,-3.9373,-3.9373,-3.9373,-3.9373,-3.9373,-3.9373,-3.9373,-3.9373,-3.9373,-3.9373,-3.9373,-3.9373,-3.9373,-3.9373,-3.9373,-3.9373,-3.9373,-3.9373,-3.9373,-3.9373,-3.9373,-3.9373,-3.9373,-3.9373,-3.9373,-3.9373,-3.9373,-3.9373,-3.9373,-3.9373,-3.9373,-3.9373,-3.9373,-3.9373,-3.9373,-3.9373,-3.9373,-3.9373,-3.9373,-3.9373,-3.9373,-3.9373,-3.9373,-3.9373,-3.9373,-3.9373,-3.9625,-3.9955,-4.0588,-4.0927,-4.1593,-4.3108,-4.3323,-4.3621,-4.453,-4.4615,-4.4615,-4.4615,-4.4615,-4.4615,-4.4615,-4.4615,-4.4615,-4.4615,-4.4615,-4.4615,-4.4615,-4.4615,-4.4615,-4.4615,-4.4615,-4.4615,-4.4615,-4.4615,-4.4615,-3.3144,-3.3111,-3.3111,-3.3111,0.0,0.0,-3.3111,-3.3111,-3.3111,-3.3111,-3.3111,-3.3111,-3.3111,-3.3111,-3.3111,-3.3111,-3.3111,-3.3111,-3.3111,-3.3641,-3.4037,-3.4037,-3.4911,-3.5601,-3.5601,-3.5974,-3.6212,-3.6212,-3.6212,-3.6212,-3.6212,-3.7214,-3.8069,-3.8694,-3.9192,-3.9373,-3.9373,-3.8943,-3.873,-3.873,-3.8294,-3.804,-3.8078,-3.8546,-3.873,-3.876,-3.9228,-3.9373,-3.9373,-3.8907,-3.898,-3.9373,-3.9373,-3.9373,-3.9373,-3.9373,-3.9373,-3.9373,-3.9373,-3.9373,-3.9373,-3.9373,-3.9373,-3.9373,-3.9373,-3.9373,-3.9373,-3.9373,-3.9373,-3.9373,-3.9373,-3.9373,-3.9373,-3.9373,-3.9373,-3.9373,-3.9373,-3.9373,-3.9373,-3.9373,-3.9373,-3.9373,-3.9373,-3.9373,-3.9589,-4.0095,-4.0135,-4.0656,-4.2046,-4.2237,-4.2676,-4.3948,-4.4064,-4.4179,-4.4587,-4.4615,-4.4615,-4.4615,-4.4615,-4.4615,-4.4615,-4.4615,-4.4615,-4.4615,-4.4615,-4.4615,-4.4615,-4.4615,-4.4615,-4.4615,-4.4615,-4.4615,-3.3294,-3.3162,-3.3111,-3.3111,-3.3111,0.0,-3.3111,-3.3111,-3.3111,-3.3111,-3.3111,-3.3111,-3.3111,-3.3111,-3.3111,-3.3111,-3.3111,-3.3111,-3.3111,-3.3111,-3.3111,-3.3111,-3.3953,-3.4511,-3.4511,-3.5319,-3.5854,-3.5854,-3.5854,-3.5934,-3.6053,-3.6944,-3.7548,-3.7805,-3.862,-3.909,-3.9228,-3.8144,-3.7625,-3.7625,-3.6643,-3.6212,-3.6251,-3.7175,-3.7663,-3.7843,-3.8833,-3.9228,-3.9156,-3.8182,-3.8435,-3.9373,-3.9265,-3.9301,-3.9373,-3.9373,-3.9373,-3.9373,-3.9373,-3.9373,-3.9373,-3.9373,-3.9373,-3.9373,-3.9373,-3.9373,-3.9373,-3.9373,-3.9373,-3.9373,-3.9373,-3.9373,-3.9373,-3.9373,-3.9373,-3.9373,-3.9373,-3.9373,-3.9373,-3.9373,-3.9373,-3.9373,-3.9373,-3.9373,-3.9373,-3.9373,-3.9373,-3.9702,-4.0588,-4.069,-4.133,-4.2986,-4.3229,-4.3621,-4.4384,-4.4525,-4.4615,-4.4615,-4.4615,-4.4615,-4.4615,-4.4615,-4.4615,-4.4615,-4.4615,-4.4615,-4.4615,-4.4615,-4.4615,-4.4615,-4.4615,-4.4615,-3.3771,-3.342,-3.3111,-3.3111,-3.3111,0.0,-3.3111,-3.3111,-3.3111,-3.3111,-3.3111,-3.3111,-3.3111,-3.3111,-3.3111,-3.3111,-3.3111,-3.3111,-3.3111,-3.3111,-3.3111,-3.3111,-3.3283,-3.3386,-3.3386,-3.3598,-3.37,-3.37,-3.37,-3.4053,-3.4938,-3.5183,-3.6041,-3.7767,-3.7175,-3.7252,-3.8107,-3.706,-3.6526,-3.6526,-3.629,-3.6212,-3.6212,-3.6408,-3.6982,-3.7805,-3.8032,-3.8107,-3.8107,-3.7881,-3.8435,-3.9301,-3.8472,-3.862,-3.9373,-3.9373,-3.9373,-3.9373,-3.9373,-3.9373,-3.9373,-3.9373,-3.9373,-3.9373,-3.9373,-3.9373,-3.9373,-3.9373,-3.9373,-3.9373,-3.9373,-3.9373,-3.9373,-3.9373,-3.9373,-3.9373,-3.9373,-3.9373,-3.9373,-3.9373,-3.9373,-3.9373,-3.9373,-3.9373,-3.9373,-3.9373,-3.9373,-3.9702,-4.0588,-4.069,-4.1129,-4.2109,-4.2894,-4.3383,-4.3532,-4.4212,-4.4615,-4.4615,-4.4615,-4.4615,-4.4615,-4.4615,-4.4615,-4.4615,-4.4615,-4.4615,-4.4615,-4.4615,-4.4615,-4.4615,-4.4615,-4.4615,-3.4048,-3.3696,-3.342,-3.3187,-3.3111,0.0,0.0,-3.3111,-3.3111,-3.3111,-3.3111,-3.3111,-3.3111,-3.3111,-3.3111,-3.3111,-3.3111,-3.3111,-3.3111,-3.3111,-3.3111,-3.3111,-3.3111,-3.3111,-3.3111,-3.3111,-3.3111,-3.3111,-3.3111,-3.3326,-3.3869,-3.4428,-3.5183,-3.62,-3.6212,-3.6448,-3.7021,-3.6001,-3.544,-3.544,-3.4911,-3.465,-3.4692,-3.5197,-3.5762,-3.6279,-3.6788,-3.7021,-3.6982,-3.6436,-3.6866,-3.7814,-3.7776,-3.8472,-3.9373,-3.9373,-3.9373,-3.9373,-3.9373,-3.9373,-3.9373,-3.9373,-3.9373,-3.9373,-3.9373,-3.9373,-3.9373,-3.9373,-3.9373,-3.9373,-3.9373,-3.9373,-3.9373,-3.9373,-3.9373,-3.9373,-3.9373,-3.9373,-3.9373,-3.9373,-3.9373,-3.9373,-3.9373,-3.9373,-3.9373,-3.9373,-3.9373,-3.9553,-3.999,-4.006,-4.0378,-4.1231,-4.1723,-4.2363,-4.3229,-4.368,-4.4121,-4.4587,-4.4615,-4.4615,-4.4615,-4.4615,-4.4615,-4.4615,-4.4615,-4.4615,-4.4615,-4.4615,-4.4615,-4.4615,-4.4615,-4.4615,-3.4449,-3.4073,-3.3796,-3.3345,-3.3169,-3.3111,0.0,0.0,0.0,-3.3111,-3.3111,-3.3111,-3.3111,-3.3111,-3.3111,-3.3111,-3.3111,-3.3111,-3.3111,-3.3111,-3.3111,-3.3111,-3.3111,-3.3111,-3.3111,-3.3111,-3.3111,-3.3111,-3.3111,-3.3111,-3.3111,-3.3911,-3.4511,-3.4718,-3.5278,-3.5694,-3.5894,-3.4897,-3.4387,-3.4387,-3.3513,-3.3111,-3.3111,-3.3995,-3.4511,-3.4759,-3.5561,-3.5894,-3.5854,-3.5061,-3.5156,-3.6013,-3.706,-3.8144,-3.909,-3.9301,-3.9373,-3.9373,-3.9373,-3.9373,-3.9373,-3.9373,-3.9373,-3.9373,-3.9373,-3.9373,-3.9373,-3.9373,-3.9373,-3.9373,-3.9373,-3.9373,-3.9373,-3.9373,-3.9373,-3.9373,-3.9373,-3.9373,-3.9373,-3.9373,-3.9373,-3.9373,-3.9373,-3.9373,-3.9373,-3.9373,-3.9373,-3.9373,-3.9373,-3.9373,-3.9666,-4.0378,-4.0588,-4.133,-4.2925,-4.3199,-4.3651,-4.4525,-4.4615,-4.4615,-4.4615,-4.4615,-4.4615,-4.4615,-4.4615,-4.4615,-4.4615,-4.4615,-4.4615,-4.4615,-4.4615,-4.4615,-3.5332,-3.4605,-3.3897,-3.3822,-3.3445,-3.3111,-3.3111,0.0,-3.3111,-3.3111,0.0,-3.3111,-3.3111,0.0,0.0,-3.3111,-3.3111,-3.3111,-3.3111,-3.3111,-3.3111,-3.3111,-3.3111,-3.3111,-3.3111,-3.3111,-3.3111,-3.3111,-3.3111,-3.3111,-3.3111,-3.324,-3.3725,-3.4677,-3.3911,-3.3911,-3.4856,-3.3827,-3.3283,-3.3283,-3.3154,-3.3111,-3.3111,-3.324,-3.3784,-3.4718,-3.4815,-3.4856,-3.4856,-3.4759,-3.4774,-3.4979,-3.5974,-3.706,-3.8107,-3.9053,-3.9373,-3.9373,-3.9373,-3.9373,-3.9373,-3.9373,-3.9373,-3.9373,-3.9373,-3.9373,-3.9373,-3.9373,-3.9373,-3.9373,-3.9373,-3.9373,-3.9373,-3.9373,-3.9373,-3.9373,-3.9373,-3.9373,-3.9373,-3.9373,-3.9373,-3.9373,-3.9373,-3.9373,-3.9373,-3.9373,-3.9373,-3.9373,-3.9373,-3.9373,-3.9445,-3.9553,-4.0239,-4.1064,-4.2078,-4.2863,-4.3651,-4.4525,-4.4615,-4.4615,-4.4615,-4.4615,-4.4615,-4.4615,-4.4615,-4.4615,-4.4615,-4.4615,-4.4615,-4.4615,-4.4615,-4.4615,-3.5583,-3.5157,-3.47,-3.4048,-3.3721,-3.347,-3.3144,-3.3111,-3.3111,-3.3111,0.0,0.0,0.0,0.0,0.0,0.0,-3.3111,-3.3111,-3.3111,-3.3111,-3.3111,-3.3111,-3.3111,-3.3111,-3.3111,-3.3111,-3.3111,-3.3111,-3.3111,-3.3111,-3.3111,-3.3111,-3.3326,-3.3742,-3.3326,-3.3326,-3.3742,-3.3326,-3.3111,-3.3111,-3.3111,-3.3111,-3.3111,-3.3111,-3.3368,-3.3742,-3.3742,-3.3742,-3.3742,-3.3742,-3.3742,-3.3869,-3.4938,-3.5961,-3.7021,-3.8069,-3.8472,-3.8472,-3.8472,-3.887,-3.9373,-3.9373,-3.9373,-3.9373,-3.9373,-3.9373,-3.9373,-3.9373,-3.9373,-3.9373,-3.9373,-3.9373,-3.9373,-3.9373,-3.9373,-3.9373,-3.9373,-3.9373,-3.9373,-3.9373,-3.9373,-3.9373,-3.9373,-3.9373,-3.9373,-3.9373,-3.9373,-3.9373,-3.9373,-3.9373,-3.9373,-3.9373,-3.9737,-4.0309,-4.1164,-4.156,-4.2395,-4.3739,-4.4327,-4.4615,-4.4615,-4.4615,-4.4615,-4.4615,-4.4615,-4.4615,-4.4615,-4.4615,-4.4615,-4.4615,-4.4615,-4.4615,-3.5881,-3.5608,-3.5307,-3.455,-3.4123,-3.3796,-3.3395,-3.3237,-3.3111,-3.3111,-3.3111,0.0,0.0,0.0,-3.3111,-3.3111,0.0,-3.3111,-3.3111,-3.3111,-3.3111,-3.3111,-3.3111,-3.3111,-3.3111,-3.3111,-3.3111,-3.3111,-3.3111,-3.3111,-3.3111,-3.3111,-3.3111,-3.3111,-3.3111,-3.3111,-3.3111,-3.3111,-3.3111,-3.3111,-3.3111,-3.3111,-3.3111,-3.3111,-3.3111,-3.3111,-3.3111,-3.3111,-3.3111,-3.3111,-3.3111,-3.3197,-3.4262,-3.4979,-3.5494,-3.6866,-3.7548,-3.7805,-3.7805,-3.8509,-3.9373,-3.9373,-3.9373,-3.9373,-3.9373,-3.9373,-3.9373,-3.9373,-3.9373,-3.9373,-3.9373,-3.9373,-3.9373,-3.9373,-3.9373,-3.9373,-3.9373,-3.9373,-3.9373,-3.9373,-3.9373,-3.9373,-3.9373,-3.9373,-3.9373,-3.9373,-3.9373,-3.9373,-3.9373,-3.9373,-3.9373,-3.9373,-3.9373,-3.9773,-4.0622,-4.069,-4.1429,-4.3169,-4.3919,-4.4355,-4.4615,-4.4615,-4.4615,-4.4615,-4.4615,-4.4615,-4.4615,-4.4615,-4.4615,-4.4615,-4.4615,-4.4615,-3.638,-3.5956,-3.5483,-3.5458,-3.47,-3.3897,-3.3872,-3.347,-3.3111,-3.3111,-3.3111,-3.3111,-3.3111,-3.3111,-3.3111,-3.3111,-3.3111,0.0,0.0,-3.3111,-3.3111,-3.3111,-3.3111,-3.3111,-3.3111,-3.3111,-3.3111,-3.3111,-3.3111,-3.3111,-3.3111,-3.3111,-3.3111,-3.3111,-3.3111,-3.3111,-3.3111,-3.3111,-3.3111,-3.3111,-3.3111,-3.3111,-3.3111,-3.3111,-3.3111,-3.3111,-3.3111,-3.3111,-3.3111,-3.3111,-3.3111,-3.3197,-3.4262,-3.4079,-3.3428,-3.5494,-3.6905,-3.7805,-3.7805,-3.8509,-3.9373,-3.9373,-3.9373,-3.9373,-3.9373,-3.9373,-3.9373,-3.9373,-3.9373,-3.9373,-3.9373,-3.9373,-3.9373,-3.9373,-3.9373,-3.9373,-3.9373,-3.9373,-3.9373,-3.9373,-3.9373,-3.9373,-3.9373,-3.9373,-3.9373,-3.9373,-3.9373,-3.9373,-3.9373,-3.9373,-3.9373,-3.9373,-3.9373,-3.9773,-4.0622,-4.069,-4.1429,-4.3169,-4.3353,-4.371,-4.4587,-4.4615,-4.4615,-4.4615,-4.4615,-4.4615,-4.4615,-4.4615,-4.4615,-4.4615,-4.4615,-4.4615,0.0,0.0,-3.6006,-3.5583,-3.5232,-3.4756,-3.4073,-3.3746,-3.352,-3.3144,-3.3111,-3.3111,-3.3111,-3.3111,-3.3111,-3.3111,-3.3111,-3.3111,0.0,-3.3111,-3.3111,-3.3111,-3.3111,-3.3111,-3.3111,-3.3111,-3.3111,-3.3111,-3.3111,-3.3111,-3.3111,-3.3111,-3.3111,-3.3111,-3.3111,-3.3111,-3.3111,-3.3111,-3.3111,-3.3111,-3.3111,-3.3111,-3.3111,-3.3111,-3.3111,-3.3111,-3.3111,-3.3111,-3.3111,-3.3111,-3.3111,-3.3154,-3.3513,-3.3428,-3.3283,-3.4692,-3.544,-3.5922,-3.7319,-3.8509,-3.9373,-3.9373,-3.9373,-3.9373,-3.9373,-3.9373,-3.9373,-3.9373,-3.9373,-3.9373,-3.9373,-3.9373,-3.9373,-3.9373,-3.9373,-3.9373,-3.9373,-3.9373,-3.9373,-3.9373,-3.9373,-3.9373,-3.9373,-3.9373,-3.9373,-3.9373,-3.9373,-3.9373,-3.9373,-3.9373,-3.9373,-3.9373,-3.9373,-3.9517,-3.9778,-4.0378,-4.0961,-4.1528,-4.2645,-4.3443,-4.371,-4.4298,-4.4615,-4.4615,-4.4615,-4.4615,-4.4615,-4.4615,-4.4615,-4.4615,-4.4615,-4.4615,-3.6405,-3.6405,0.0,-3.5931,-3.5633,-3.5307,-3.465,-3.4173,-3.3796,-3.3445,-3.3219,-3.3111,-3.3111,-3.3111,-3.3111,-3.3111,-3.3111,-3.3111,0.0,-3.3111,-3.3111,-3.3111,-3.3111,-3.3111,-3.3111,-3.3111,-3.3111,-3.3111,-3.3111,-3.3111,-3.3111,-3.3111,-3.3111,-3.3111,-3.3111,-3.3111,-3.3111,-3.3111,-3.3111,-3.3111,-3.3111,-3.3111,-3.3111,-3.3111,-3.3111,-3.3111,-3.3111,-3.3111,-3.3111,-3.3111,-3.3111,-3.3111,-3.3111,-3.3111,-3.3197,-3.3869,-3.4345,-3.4979,-3.7088,-3.8256,-3.8907,-3.9265,-3.9373,-3.9373,-3.9373,-3.9373,-3.9373,-3.9373,-3.9373,-3.9373,-3.9373,-3.9373,-3.9373,-3.9373,-3.9373,-3.9373,-3.9373,-3.9373,-3.9373,-3.9373,-3.9373,-3.9373,-3.9373,-3.9373,-3.9373,-3.9373,-3.9373,-3.9373,-3.9373,-3.9373,-3.9373,-3.9373,-3.9373,-3.9373,-3.9373,-3.992,-4.0378,-4.069,-4.1756,-4.2645,-4.3259,-4.386,-4.4298,-4.4615,-4.4615,-4.4615,-4.4615,-4.4615,-4.4615,-4.4615,-4.4615,-4.4615]},{"header":{"parameterUnit":"m.s-1","parameterCategory":1,"la1":30.6,"la2":29.2853,"lo1":-89.7004,"lo2":-87.6739,"dy":0.0162,"dx":0.0183,"nx":112,"ny":82,"refTime":"2024-04-28T18:00:00:Z","depth":0,"parameterNumber":3,"parameterNumberName":"V-component_of_WINDS"},"data":[0.0,0.0,0.0,0.0,0.0,0.0,0.0,0.0,0.0,0.0,0.0,0.0,0.0,0.0,0.0,0.0,0.0,0.0,0.0,0.0,0.0,0.0,0.0,0.0,0.0,0.0,0.0,0.0,0.0,0.0,0.0,0.0,0.0,0.0,0.0,0.0,0.0,0.0,0.0,0.0,0.0,0.0,0.0,0.0,0.0,0.0,0.0,0.0,0.0,0.0,0.0,0.0,0.0,0.0,0.0,0.0,0.0,0.0,0.0,0.0,0.0,0.0,0.0,0.0,0.0,0.0,0.0,0.0,0.0,0.0,0.0,0.0,0.0,0.0,0.0,0.0,0.0,0.0,0.0,0.0,0.0,0.0,0.0,0.0,0.0,0.0,0.0,0.0,0.0,0.0,0.63,0.63,0.63,0.63,0.63,0.63,0.63,0.63,0.0,0.0,0.0,0.0,0.0,0.0,0.0,0.0,0.0,0.0,0.0,0.0,0.0,0.0,0.0,0.0,0.0,0.0,0.0,0.0,0.0,0.0,0.0,0.0,0.0,0.0,0.0,0.0,0.0,0.0,0.0,0.0,0.0,0.0,0.0,0.0,0.0,0.0,0.0,0.0,0.0,0.0,0.0,0.0,0.0,0.0,0.0,0.0,0.0,0.0,0.0,0.0,0.0,0.0,0.0,0.0,0.0,0.0,0.0,0.0,0.0,0.0,0.0,0.0,0.0,0.0,0.0,0.0,0.0,0.0,0.0,0.0,0.0,0.0,0.0,0.0,0.0,0.0,0.0,0.0,0.0,0.0,0.0,0.0,0.0,0.0,0.0,0.0,0.0,0.0,0.0,0.0,0.0,0.0,0.0,0.0,0.0,0.0,0.0,0.0,0.0,0.0,0.0,0.0,0.63,0.63,0.63,0.63,0.63,0.63,0.63,0.63,0.0,0.0,0.0,0.0,0.0,0.0,0.0,0.0,0.0,0.0,0.0,0.0,0.0,0.0,0.0,0.0,0.0,0.0,0.0,0.0,0.0,0.0,0.0,0.0,0.0,0.0,0.0,0.0,0.0,0.0,0.0,0.0,0.0,0.0,0.0,0.0,0.0,0.0,0.0,0.0,0.0,0.0,0.0,0.0,0.0,0.0,0.0,0.0,0.0,0.0,0.0,0.0,0.0,0.0,0.0,0.0,0.0,0.0,0.0,0.0,0.0,0.0,0.0,0.0,0.0,0.0,0.0,0.0,0.0,0.0,0.0,0.0,0.0,0.0,0.0,0.0,0.0,0.0,0.0,0.0,0.0,0.0,0.0,0.0,0.0,0.0,0.0,0.0,0.0,0.0,0.0,0.0,0.0,0.0,0.0,0.0,0.0,0.0,0.0,0.0,0.0,0.0,0.0,0.63,0.63,0.63,0.63,0.63,0.63,0.63,0.63,0.63,0.63,0.0,0.0,0.0,0.0,0.0,0.0,0.0,0.0,0.0,0.0,0.0,0.0,0.0,0.0,0.0,0.0,0.0,0.0,0.0,0.0,0.0,0.0,0.0,0.0,0.0,0.0,0.0,0.0,0.0,0.0,0.0,0.0,0.0,0.0,0.0,0.0,0.0,0.0,0.0,0.0,0.0,0.0,0.0,0.0,0.0,0.0,0.0,0.0,0.0,0.0,0.0,0.0,0.0,0.0,0.0,0.0,0.0,0.0,0.0,0.0,0.0,0.0,0.0,0.0,0.0,0.0,0.0,0.0,0.0,0.0,0.0,0.0,0.0,0.0,0.0,0.0,0.0,0.0,0.0,0.0,0.0,0.0,0.0,0.0,0.0,0.0,0.0,0.0,0.0,0.0,0.0,0.0,0.0,0.0,0.0,0.0,0.0,0.0,0.0,0.0,0.0,0.0,0.63,0.63,0.63,0.63,0.63,0.63,0.63,0.63,0.63,0.63,0.0,0.0,0.0,0.0,0.0,0.0,0.0,0.0,0.0,0.0,0.0,0.0,0.0,0.0,0.0,0.0,0.0,0.0,0.0,0.0,0.0,0.0,0.0,0.0,0.0,0.0,0.0,0.0,0.0,0.0,0.0,0.0,0.0,0.0,0.0,0.0,0.0,0.0,0.0,0.0,0.0,0.0,0.0,0.0,0.0,0.0,0.0,0.0,0.0,0.0,0.0,0.0,0.0,0.0,0.0,0.0,0.0,0.0,0.0,0.0,0.0,0.0,0.0,0.0,0.0,0.0,0.0,0.0,0.0,0.0,0.0,0.0,0.0,0.0,0.0,0.0,0.0,0.0,0.0,0.0,0.0,0.0,0.0,0.0,0.0,0.0,0.0,0.0,0.0,0.0,0.0,0.0,0.0,0.0,0.0,0.0,0.0,0.0,0.0,0.0,0.0,0.0,0.63,0.63,0.63,0.63,0.63,0.63,0.63,0.63,0.63,0.63,0.0,0.0,0.0,0.0,0.0,0.0,0.0,0.0,0.0,0.0,0.0,0.0,0.0,0.0,0.0,0.0,0.0,0.0,0.0,0.0,0.0,0.0,0.0,0.0,0.0,0.0,0.0,0.0,0.0,0.0,0.0,0.0,0.0,0.0,0.0,0.0,0.0,0.0,0.0,0.0,0.0,0.0,0.0,0.0,0.0,0.0,0.0,0.0,0.0,0.0,0.0,0.0,0.0,0.0,0.0,0.0,0.0,0.0,0.0,0.0,0.0,0.0,0.0,0.0,0.0,0.0,0.0,0.0,0.0,0.0,0.0,0.0,0.0,0.0,0.0,0.0,0.0,0.0,0.0,0.0,0.0,0.0,0.0,0.0,0.0,0.0,0.0,0.0,0.0,0.0,0.0,0.0,0.0,0.0,0.0,0.0,0.0,0.0,0.0,0.0,0.0,0.0,0.63,0.63,0.63,0.63,0.63,0.63,0.63,0.63,0.63,0.0,0.0,0.0,0.0,0.0,0.0,0.0,0.0,0.0,0.0,0.0,0.0,0.0,0.0,0.0,0.0,0.0,0.0,0.0,0.0,0.0,0.0,0.0,0.0,0.0,0.0,0.0,0.0,0.0,0.0,0.0,0.0,0.0,0.0,0.0,0.0,0.0,0.0,0.0,0.0,0.0,0.0,0.0,0.0,0.0,0.0,0.0,0.0,0.0,0.0,0.0,0.0,0.0,0.0,0.0,0.0,0.0,0.0,0.0,0.0,0.0,0.0,0.0,0.0,0.0,0.0,0.0,0.0,0.0,0.0,0.0,0.0,0.0,0.0,0.0,0.0,0.0,0.0,0.0,0.0,0.0,0.0,0.0,0.0,0.0,0.0,0.0,0.0,0.0,0.0,0.0,0.0,0.0,0.0,0.0,0.0,0.0,0.0,0.0,0.0,0.0,0.0,0.63,0.63,0.63,0.63,0.63,0.63,0.63,0.63,0.63,0.63,0.0,0.0,0.0,0.0,0.0,0.0,0.0,0.0,0.0,0.0,0.0,0.0,0.0,0.0,0.0,0.0,0.0,0.0,0.0,0.0,0.0,0.0,0.0,0.0,0.0,0.0,0.0,0.0,0.0,0.0,0.0,0.0,0.0,0.0,0.0,0.0,0.0,0.0,0.0,0.0,0.0,0.0,0.0,0.0,0.0,0.0,0.0,0.0,0.0,0.0,0.0,0.0,0.0,0.0,0.0,0.0,0.0,0.0,0.0,0.0,0.0,0.0,0.0,0.0,0.0,0.0,0.0,0.0,0.0,0.0,0.0,0.0,0.0,0.0,0.0,0.0,0.0,0.0,0.0,0.0,0.0,0.0,0.0,0.0,0.0,0.0,0.0,0.0,0.0,0.0,0.0,0.0,0.0,0.0,0.0,0.0,0.0,0.0,0.0,0.0,0.0,0.0,0.63,0.63,0.63,0.63,0.63,0.63,0.63,0.63,0.63,0.0,0.0,0.0,0.0,0.0,0.0,0.0,0.0,0.0,0.0,0.0,0.0,0.0,0.0,0.0,0.0,0.0,0.0,0.0,0.0,0.0,0.0,0.0,0.0,0.0,0.0,0.0,0.0,0.0,0.0,0.0,0.0,0.0,0.0,0.0,0.0,0.0,0.0,0.0,0.0,0.0,0.0,0.0,0.0,0.0,0.0,0.0,0.0,0.0,0.0,0.0,0.0,0.0,0.0,0.0,0.0,0.0,0.0,0.0,0.0,0.0,0.0,0.0,0.0,0.0,0.0,0.0,0.0,0.0,0.0,0.0,0.0,0.0,0.0,0.0,0.0,0.0,0.0,0.0,0.0,0.0,0.0,0.0,0.0,0.0,0.0,0.0,0.0,0.0,0.0,0.0,0.0,0.0,0.0,0.0,0.0,0.0,0.0,0.0,0.0,0.0,0.0,0.0,0.63,0.63,0.63,0.63,0.63,0.63,0.63,0.63,0.63,0.63,0.0,0.0,0.0,0.0,0.0,0.0,0.0,0.0,0.0,0.0,0.0,0.0,0.0,0.0,0.0,0.0,0.0,0.0,0.0,0.0,0.0,0.0,0.0,0.0,0.0,0.0,0.0,0.0,0.0,0.0,0.0,0.0,0.0,0.0,0.0,0.0,0.0,0.0,0.0,0.0,0.0,0.0,0.0,0.0,0.0,0.0,0.0,0.0,0.0,0.0,0.0,0.0,0.0,0.0,0.0,0.0,0.0,0.0,0.0,0.0,0.0,0.0,0.0,0.0,0.0,0.0,0.0,0.0,0.0,0.0,0.0,0.0,0.0,0.0,0.0,0.0,0.0,0.0,0.0,0.0,0.0,0.0,0.0,0.0,0.0,0.0,0.0,0.0,0.0,0.0,0.0,0.0,0.0,0.0,0.0,0.0,0.0,0.0,0.0,0.0,0.0,0.0,0.63,0.63,0.63,0.63,0.63,0.63,0.63,0.63,0.63,0.63,0.0,0.0,0.0,0.0,0.0,0.0,0.0,0.0,0.0,0.0,0.0,0.0,0.0,0.0,0.0,0.0,0.0,0.0,0.0,0.0,0.0,0.0,0.0,0.0,0.0,0.0,0.0,0.0,0.0,0.0,0.0,0.0,0.0,0.0,0.0,0.0,0.0,0.0,0.0,0.0,0.0,0.0,0.0,0.0,0.0,0.0,0.0,0.0,0.0,0.0,0.0,0.0,0.0,0.0,0.0,0.0,0.0,0.0,0.0,0.0,0.0,0.0,0.0,0.0,0.0,0.0,0.0,0.0,0.0,0.0,0.0,0.0,0.0,0.0,0.0,0.0,0.0,0.0,0.0,0.0,0.0,0.0,0.0,0.0,0.0,0.0,0.0,0.0,0.0,0.0,0.0,0.0,0.0,0.0,0.0,0.0,0.0,0.0,0.0,0.0,0.0,0.0,0.63,0.63,0.63,0.63,0.63,0.63,0.63,0.63,0.63,0.63,0.0,0.0,0.0,0.0,0.0,0.0,0.0,0.0,0.0,0.0,0.0,0.0,0.0,0.0,0.0,0.0,0.0,0.0,0.0,0.0,0.0,0.0,0.0,0.0,0.0,0.0,0.0,0.0,0.0,0.0,0.0,0.0,0.0,0.0,0.0,0.0,0.0,0.0,0.0,0.0,0.0,0.0,0.0,0.0,0.0,0.0,0.0,0.0,0.0,0.0,0.0,0.0,0.0,0.0,0.0,0.0,0.0,0.0,0.0,0.0,2.0331,2.0098,0.0,0.0,0.0,0.0,0.0,0.0,0.0,0.0,0.0,0.0,0.0,0.0,0.0,0.0,0.0,0.0,0.0,0.0,0.0,0.0,0.0,0.0,0.0,0.0,0.0,0.0,0.0,0.0,0.0,0.0,0.0,0.0,0.0,0.0,0.0,0.0,0.0,0.0,0.0,0.0,0.6416,0.63,0.63,0.63,0.63,0.63,0.63,0.63,0.63,0.63,0.63,0.0,0.0,0.0,0.0,0.0,0.0,0.0,0.0,0.0,0.0,0.0,0.0,0.0,0.0,0.0,0.0,0.0,0.0,0.0,0.0,0.0,0.0,0.0,0.0,0.0,0.0,0.0,0.0,0.0,0.0,0.0,0.0,0.0,0.0,0.0,0.0,0.0,0.0,0.0,0.0,0.0,0.0,0.0,0.0,0.0,0.0,0.0,0.0,0.0,0.0,0.0,0.0,0.0,0.0,0.0,0.0,0.0,0.0,0.0,2.0605,2.0468,0.0,0.0,0.0,0.0,0.0,0.0,0.0,0.0,0.0,0.0,0.0,0.0,0.0,0.0,0.0,0.0,0.0,0.0,0.0,0.0,0.0,0.0,0.0,0.0,0.0,0.0,0.0,0.0,0.0,0.0,0.0,0.0,0.0,0.0,0.0,0.0,0.0,0.0,0.0,0.0,0.6416,0.6718,0.6834,0.6338,0.63,0.63,0.63,0.63,0.63,0.63,0.63,0.0,0.0,0.0,0.0,0.0,0.0,0.0,0.0,0.0,0.0,0.0,0.0,0.0,0.0,0.0,0.0,0.0,0.0,0.0,0.0,0.0,0.0,0.0,0.0,0.0,0.0,0.0,0.0,0.0,0.0,0.0,0.0,0.0,0.0,0.0,0.0,0.0,0.0,0.0,0.0,0.0,0.0,0.0,0.0,0.0,0.0,0.0,0.0,0.0,0.0,0.0,0.0,0.0,2.1307,2.1152,2.084,2.084,2.084,2.082,2.0762,2.0683,2.0605,2.0605,0.0,0.0,0.0,0.0,0.0,0.0,0.0,0.0,0.0,0.0,0.0,0.0,0.0,0.0,0.0,0.0,0.0,0.0,0.0,0.0,0.0,0.0,0.0,0.0,1.2842,1.2305,1.2305,0.0,0.0,0.0,0.0,0.0,0.0,0.0,0.0,0.0,0.0,0.0,0.6949,0.7557,0.7672,0.6679,0.6563,0.6493,0.63,0.63,0.63,0.63,0.63,0.63,0.0,0.0,0.0,0.0,0.0,0.0,0.0,0.0,0.0,0.0,0.0,0.0,0.0,0.0,0.0,0.0,0.0,0.0,0.0,0.0,0.0,0.0,0.0,0.0,0.0,0.0,0.0,0.0,0.0,0.0,0.0,0.0,2.8585,2.9188,0.0,0.0,0.0,0.0,0.0,0.0,0.0,0.0,0.0,0.0,0.0,0.0,0.0,2.1894,2.1894,2.1894,2.1855,2.1797,2.1797,2.1777,2.1719,2.1719,2.1719,2.1699,2.1309,0.0,2.0605,2.0605,0.0,0.0,0.0,0.0,0.0,0.0,0.0,0.0,0.0,0.0,0.0,0.0,0.0,0.0,0.0,0.0,0.0,0.0,0.0,0.0,0.0,0.0,1.3353,1.2659,1.2378,1.2305,0.0,1.2305,1.2305,1.2305,1.2305,1.2305,0.0,0.0,0.0,0.0,0.0,0.0,0.9026,0.9036,0.8732,0.7702,0.7595,0.7249,0.6377,0.63,0.63,0.63,0.63,0.63,0.63,0.6112,0.0,0.0,0.0,0.0,0.0,0.0,0.0,0.0,0.0,0.0,0.0,0.0,0.0,0.0,0.0,0.0,0.0,0.0,0.0,0.0,0.0,0.0,0.0,0.0,0.0,0.0,0.0,0.0,0.0,2.9067,2.8988,2.8846,2.8386,2.7441,0.0,0.0,0.0,0.0,0.0,0.0,0.0,0.0,0.0,2.3511,2.2918,2.2598,2.2598,2.2598,2.248,2.2246,2.2246,2.2109,2.1894,2.1894,2.1894,2.1875,2.168,2.1484,2.1269,2.0801,2.0605,2.0605,0.0,0.0,0.0,0.0,2.0273,2.0254,2.0116,1.9844,1.9648,1.9648,0.0,0.0,0.0,0.0,0.0,0.0,0.0,1.6489,0.0,0.0,1.4458,1.4027,1.3484,1.2952,1.2415,1.2305,1.2305,0.0,1.2305,1.2305,1.2305,1.1848,0.0,0.0,0.0,1.0447,0.9415,0.9782,0.9744,0.877,0.8656,0.8237,0.7211,0.7134,0.6911,0.6338,0.63,0.63,0.63,0.6231,0.6084,0.0,0.0,0.0,0.0,0.0,0.0,0.0,0.0,0.0,0.0,0.0,0.0,0.0,0.0,0.0,0.0,0.0,0.0,0.0,0.0,0.0,0.0,0.0,0.0,0.0,0.0,0.0,0.0,2.9804,2.9482,2.8648,2.8267,2.7458,0.0,0.0,0.0,0.0,0.0,0.0,2.4787,2.3714,2.3557,2.4504,2.372,2.3315,2.3413,2.3413,2.3257,2.3008,2.3008,2.2832,2.2539,2.2539,2.2539,2.2519,2.2422,2.2305,2.219,2.131,2.0938,2.0938,2.082,2.0742,2.0723,2.0644,2.0605,2.0605,2.0605,2.0352,2.0078,2.0078,1.9785,1.9434,1.9316,0.0,0.0,0.0,0.0,1.7016,1.6698,1.607,1.5438,1.4906,1.4243,1.3462,1.2512,1.2305,1.2305,0.0,1.2305,1.2305,1.2305,1.17,0.0,1.1168,1.1168,1.0907,1.0158,1.072,1.0795,0.9782,0.9669,0.9291,0.8275,0.7931,0.748,0.6718,0.6454,0.63,0.63,0.63,0.6186,0.5993,0.0,0.0,0.0,0.0,0.0,0.0,0.0,0.0,0.0,0.0,0.0,0.0,0.0,0.0,0.0,0.0,0.0,0.0,0.0,0.0,0.0,0.0,0.0,0.0,0.0,0.0,0.0,0.0,0.0,2.9702,2.8767,0.0,0.0,0.0,0.0,2.6276,2.4382,2.3671,2.4745,2.3714,2.332,2.382,2.3795,2.3945,2.4355,2.4355,2.4336,2.4316,2.4316,2.4316,2.4297,2.4297,2.4297,2.4258,2.3867,2.3477,2.3071,2.2168,2.1816,2.1777,2.1327,2.1171,2.1112,2.0723,2.0605,2.0605,2.0605,2.0586,2.0566,2.0566,2.0234,1.9805,1.9414,1.9277,0.0,0.0,1.8488,1.8216,1.6945,1.6558,1.607,1.4207,1.3738,1.3462,1.2512,1.2305,1.2305,0.0,1.2305,1.2305,1.2305,0.0,1.2231,1.2231,1.2231,1.2231,1.2157,1.2194,1.1848,1.082,1.0708,1.0297,0.9291,0.8351,0.7787,0.7748,0.6834,0.63,0.63,0.63,0.6186,0.5993,0.5993,0.0,0.0,0.0,0.0,0.0,0.0,0.0,0.0,0.0,0.0,0.0,0.0,0.0,0.0,0.0,0.0,0.0,0.0,0.0,0.0,0.0,0.0,0.0,0.0,0.0,0.0,0.0,0.0,2.9804,2.9443,0.0,2.7221,2.7666,2.7417,2.6021,2.6488,2.7192,2.7996,2.693,2.6323,2.6451,2.5764,2.5103,2.4414,2.4414,2.4414,2.4414,2.4414,2.4414,2.4414,2.4414,2.4414,2.4414,2.4258,2.4102,2.3945,2.3633,2.2871,2.1875,2.1719,2.166,2.1641,2.1484,2.1466,2.1466,2.1466,2.1466,2.1407,2.1094,2.0703,2.0254,1.9824,1.9687,1.9609,1.918,1.9062,1.8951,1.8455,1.8345,1.8003,1.6713,1.5848,1.5066,1.41,1.3237,1.2623,1.2623,1.2438,1.2305,1.2305,1.2305,1.2305,1.2305,1.2305,1.2305,1.2305,1.2305,1.2157,1.1811,1.1774,1.1354,1.0335,0.9922,0.9432,0.8808,0.7817,0.7249,0.7249,0.6641,0.6573,0.7155,0.6516,0.6437,0.0,0.0,0.0,0.0,0.0,0.0,0.0,0.0,0.0,0.0,0.0,0.0,0.0,0.0,0.0,0.0,0.0,0.0,0.0,0.0,0.0,0.0,0.0,0.0,0.0,3.0557,3.0331,3.0331,3.0331,2.9766,2.8304,2.9165,2.9164,2.7657,2.823,2.8794,2.9145,2.8113,2.7348,2.6988,2.6267,2.5548,2.4863,2.4816,2.4816,2.4816,2.4816,2.4816,2.4816,2.4816,2.4816,2.4816,2.4816,2.4766,2.4629,2.4629,2.3887,2.2715,2.2422,2.2305,2.2285,2.1992,2.1894,2.1894,2.1894,2.1894,2.1836,2.1543,2.125,2.0997,2.0664,2.0586,2.0469,1.9883,1.9764,1.9648,1.9355,1.9297,1.8985,1.7655,1.6757,1.5847,1.453,1.3571,1.2945,1.2945,1.2572,1.2305,1.2305,1.2305,1.2305,1.2305,1.2305,1.2305,1.2305,1.2305,1.2305,1.2305,1.2305,1.2033,1.1354,1.1007,1.0522,0.9857,0.8542,0.7931,0.8275,0.7026,0.6756,0.7787,0.6795,0.6523,0.6982,0.0,0.0,0.0,0.0,0.0,0.0,0.0,0.0,0.0,0.0,0.0,0.0,0.0,0.0,0.0,0.0,0.0,0.0,0.0,0.0,0.0,0.0,0.0,3.1486,3.1411,3.1386,3.1386,3.1386,3.1386,3.1345,3.0455,3.0247,3.1248,2.9338,2.8092,2.7962,2.6951,2.6036,2.522,2.5173,2.5341,2.5693,2.5693,2.5693,2.5693,2.5693,2.5693,2.5693,2.5693,2.5693,2.5693,2.5693,2.5488,2.5145,2.5145,2.4844,2.4329,2.3471,2.3184,2.3149,2.2266,2.1953,2.1953,2.1934,2.1914,2.1894,2.1894,2.1894,2.1894,2.1894,2.1894,2.1699,2.0879,2.0644,2.0449,1.959,1.9375,1.8859,1.6863,1.6315,1.5704,1.378,1.328,1.3227,1.3227,1.2746,1.2331,1.2318,1.2305,1.2305,1.2305,1.2305,0.0,1.2305,1.2305,1.2305,1.2305,1.2305,1.2305,1.2305,1.1391,1.0858,1.0858,0.8988,0.8313,0.9301,0.7403,0.6795,0.7787,0.6834,0.6263,0.6074,0.0,0.0,0.0,0.0,0.0,0.0,0.0,0.0,0.0,0.0,0.0,0.0,0.0,0.0,0.0,0.0,0.0,0.0,0.0,0.0,0.0,3.2943,3.2641,3.2064,3.1637,3.1386,3.1386,3.1386,3.11,3.033,3.0663,3.056,2.9596,2.9662,2.9563,2.9015,2.8721,2.8077,2.6919,2.6892,2.6526,2.5693,2.5693,2.5693,2.5693,2.5693,2.5693,2.5693,2.5693,2.5693,2.5693,2.5693,2.5615,2.5547,2.5547,2.5488,2.5245,2.4368,2.4062,2.4043,2.3809,2.3535,2.3223,2.291,2.2598,2.2344,2.2344,2.2129,2.1894,2.1894,2.1894,2.1836,2.1602,2.1523,2.1505,2.123,2.1172,2.1052,2.045,1.8899,1.7351,1.6778,1.4993,1.348,1.348,1.3187,1.2893,1.2703,1.2452,1.2305,1.2305,1.2305,0.0,1.2305,1.2305,1.2305,1.2305,1.2305,1.2305,1.2305,1.2033,1.1885,1.1885,1.0671,1.011,1.0372,0.8456,0.7518,0.7778,0.7518,0.7379,0.0,0.0,0.0,0.0,0.0,0.0,0.0,0.0,0.0,0.0,0.0,0.0,0.0,0.0,0.0,0.0,0.0,0.0,0.0,0.0,0.0,0.0,3.3111,3.3011,3.2616,3.229,3.2089,3.2089,3.2089,3.188,3.1223,3.1754,3.1685,3.0683,3.0683,3.036,2.9442,2.8912,2.8075,2.6839,2.6791,2.6428,2.5693,2.5693,2.5693,2.5693,2.5693,2.5693,2.5693,2.5693,2.5693,2.5693,2.5693,2.5693,2.5693,2.5693,2.5693,0.0,0.0,0.0,0.0,0.0,2.4258,2.4023,2.3769,2.3398,2.3047,2.3047,2.2754,2.2402,2.2402,2.2402,2.2383,2.2207,2.2148,2.2109,2.1934,2.1894,2.1792,2.1316,2.0051,1.8642,1.7712,1.6037,1.4573,1.4085,1.364,0.0,1.3146,1.2811,1.2529,1.2529,1.2385,1.2305,1.2305,1.2305,1.2305,1.2305,1.2305,1.2305,1.2305,1.2305,0.0,0.0,0.0,1.0596,1.0185,0.9064,0.0,0.0,0.0,0.7595,0.7173,0.0,0.0,0.0,0.5861,0.5759,0.0,0.0,0.0,0.0,0.0,0.0,0.0,0.0,0.0,0.0,0.0,0.0,0.0,0.0,0.0,0.0,3.3111,3.3111,3.3111,3.3111,3.3111,3.3111,3.3111,3.3111,3.3111,3.3111,3.3025,3.2896,3.1869,3.0758,2.9531,2.8412,0.0,0.0,0.0,2.5732,2.5693,2.5693,2.5693,2.5693,2.5693,2.5693,2.5693,2.5693,2.5693,2.5693,2.5693,2.5693,2.5693,2.5693,2.5693,2.5654,2.5293,2.5184,2.5098,2.4648,2.4492,2.4473,2.4434,0.0,0.0,2.3867,2.3594,2.3237,2.3179,2.3159,2.3081,2.2695,2.2578,2.25,2.2129,2.2031,2.1803,2.0782,2.0389,1.9699,1.7676,1.6804,1.602,1.49,1.4179,1.3693,1.3653,1.32,1.2824,1.2784,1.2556,1.2345,1.2305,1.2305,1.2305,1.2305,0.0,0.0,1.2305,1.2305,1.2305,1.2305,1.1465,1.0522,0.9518,0.948,0.8988,0.797,0.7855,0.7403,0.6641,0.7288,0.7211,0.6447,0.6057,0.584,0.0,0.0,0.0,0.0,0.0,0.0,0.0,0.0,0.0,0.0,0.0,0.0,0.0,0.0,0.0,3.3111,3.3111,3.3111,3.3111,3.3111,3.3111,3.3111,3.3111,3.3111,3.3111,3.3111,3.2655,3.1645,3.1762,3.1364,3.0094,2.9187,2.8474,2.7925,2.6823,2.6094,2.5693,2.5693,2.5693,2.5693,2.5693,0.0,2.5693,2.5693,2.5693,2.5693,2.5693,2.5693,2.5693,2.5693,2.5693,2.5674,2.5596,2.5557,2.5547,2.5098,2.4941,2.4883,2.4531,2.4355,2.4297,2.4297,2.4238,2.4102,2.3769,2.3672,0.0,2.3101,2.2984,2.2964,2.2867,2.2847,2.2804,2.2568,2.1633,2.0641,2.0191,1.8295,1.6547,1.6063,1.5091,1.4282,1.4041,1.3507,1.3039,1.2824,1.273,1.261,1.2331,1.2305,1.2305,1.2305,1.2305,1.2305,1.2305,1.2305,1.2305,1.2305,1.2107,1.1539,1.0559,1.0522,1.0045,0.9036,0.8199,0.8084,0.8732,0.7288,0.6911,0.748,0.6614,0.6105,0.0,0.0,0.0,0.0,0.0,0.0,0.0,0.0,0.0,0.0,0.0,3.3111,3.3111,0.0,3.3111,3.3111,3.3111,3.3111,3.3111,3.3111,3.3111,3.3111,3.3111,3.3111,3.3111,3.3319,3.3252,3.2587,3.2491,3.2227,3.16,3.0548,2.9894,2.9724,2.9046,2.8473,2.7962,2.7962,2.7523,2.6668,2.6668,2.6352,2.5693,2.5693,2.5693,2.5693,2.5693,2.5693,2.5693,2.5693,2.5693,2.5693,2.5693,2.5693,2.5654,2.5488,2.541,2.5371,2.5156,2.4941,2.4746,2.4746,2.459,2.4375,2.416,2.4102,2.4023,2.3594,2.3457,2.3418,2.3159,2.3101,2.3101,2.3101,2.2514,2.182,2.1233,1.9904,1.8447,1.7005,1.6155,1.5358,1.4478,1.4055,1.3707,1.3267,1.2985,1.273,1.2583,1.2398,1.2305,1.2305,1.2305,1.2305,1.2305,1.2305,1.2305,1.2305,1.2305,1.207,1.1576,1.1093,1.0559,1.0045,0.9064,0.8542,0.8542,0.7557,0.7065,0.7019,0.6532,0.6259,0.0,0.0,0.0,0.0,0.0,0.0,0.0,3.3111,3.3111,3.3111,3.3111,3.3111,3.3111,3.3111,3.3111,3.3111,3.3111,3.3111,3.3111,3.3111,3.3111,3.3111,3.3111,3.3111,3.3111,3.3571,3.3897,3.3897,3.3616,3.3403,3.3403,3.2321,3.1508,3.1154,3.1154,3.0641,2.958,2.9866,2.9102,2.7345,2.7583,2.7037,2.5693,2.5965,2.5917,2.5693,2.5693,2.5693,2.5693,2.5693,2.5693,2.5693,2.5693,2.5693,2.5693,2.5693,2.5693,2.5693,2.5693,2.5508,2.5195,2.5195,2.4961,2.4668,2.457,2.4551,2.4453,2.4023,2.3906,2.3809,2.3335,2.3218,2.3198,2.312,2.3101,2.2818,2.1854,2.1313,2.036,1.8329,1.7337,1.6448,1.5154,1.468,1.4322,1.3693,1.3227,1.2918,1.2797,1.2569,1.2358,1.2305,1.2305,1.2305,1.2305,1.2305,1.2305,1.2305,1.2305,1.2305,1.2305,1.1502,1.1007,1.0783,0.982,0.8884,0.8084,0.771,0.7173,0.6602,0.6377,0.63,3.3111,3.3111,3.3111,3.3111,3.3111,3.3111,0.0,3.3111,3.3111,3.3111,3.3111,3.3111,3.3111,3.3111,3.3111,3.3111,3.3111,3.3111,3.3111,3.3111,3.3111,3.3111,3.3111,3.3111,3.3111,3.3571,3.3897,3.3897,3.4715,3.5198,3.5198,3.4438,3.3278,3.1645,3.1645,3.0268,2.739,2.8533,2.8255,2.6557,2.7626,2.7275,2.5742,2.6839,2.6764,2.5693,2.5693,2.5693,2.5693,2.5693,2.5693,2.5693,2.5693,2.5693,2.5693,2.5693,2.5693,2.5693,2.5693,2.5654,2.5615,2.5615,2.5577,2.546,2.5117,2.5047,2.4949,2.4473,2.4355,2.4258,2.3828,2.3711,2.3613,2.3198,2.3101,2.3057,2.2906,2.2038,2.1077,2.0604,1.8681,1.6996,1.6595,1.5414,1.4322,1.3693,1.3547,1.3347,1.2851,1.2757,1.2636,1.2331,1.2305,1.2305,1.2305,1.2305,1.2305,1.2305,1.2305,1.2305,1.2305,1.2194,1.17,1.082,0.982,0.9263,0.9112,0.7326,0.6872,0.7595,0.6718,0.63,3.3111,3.3111,3.3111,3.3111,3.3111,3.3111,3.3111,3.3111,3.3111,3.3111,3.3111,3.3111,3.3111,3.3111,3.3111,3.3111,3.3111,3.3111,3.3111,3.3111,3.3111,3.3111,3.337,3.3545,3.3545,3.4048,3.45,3.4826,3.5579,3.6006,3.6006,3.5734,3.5209,3.4487,3.4414,3.3623,3.1979,3.1738,3.0763,2.9013,2.8446,2.7459,2.6163,2.7153,2.7673,2.7746,2.6332,2.611,2.6764,2.6014,2.5693,2.5693,2.5693,2.5693,2.5693,2.5693,2.5693,2.5693,2.5693,2.5693,2.5693,2.5693,2.5693,2.5654,2.5508,2.5449,2.5371,2.4922,2.4805,2.4707,2.4258,2.416,2.4043,2.3613,2.3516,2.3437,2.314,2.2687,2.2126,2.1306,1.9743,1.8204,1.719,1.5784,1.4629,1.4173,1.3826,1.3507,1.3307,1.2998,1.2663,1.2331,1.2305,1.2305,1.2305,1.2305,1.2305,1.2305,1.2305,1.2305,1.2305,1.2305,1.2107,1.17,1.0683,0.9895,0.9301,0.7855,0.7096,0.6911,0.6493,0.63,3.3111,3.3111,3.3111,3.3111,3.3111,3.3111,3.3111,3.3111,3.3111,3.3111,3.3111,3.3111,3.3111,3.3111,3.3111,3.3111,3.3111,3.3111,3.3111,3.3219,3.3294,3.3294,3.3796,3.4198,3.4349,3.468,3.5082,3.5458,3.6056,3.6405,3.6405,3.6405,3.6216,3.5858,3.6216,3.5827,3.4626,3.4055,3.2858,3.1076,2.9753,2.8439,2.7122,2.7565,2.8156,2.8819,2.7342,2.7078,2.7552,2.662,2.6014,2.5693,2.5693,2.5693,2.5693,2.5693,2.5693,2.5693,2.5693,2.5693,2.5693,2.5693,2.5693,2.5693,2.5693,2.5693,2.5615,2.5352,2.5254,2.5156,2.4707,2.459,2.4492,2.4062,2.3965,2.3848,2.3418,2.3276,2.2997,2.2006,2.0809,1.955,1.8053,1.6592,1.5366,1.4727,1.4215,1.3786,1.3626,1.312,1.2703,1.2452,1.2345,1.2305,1.2305,1.2305,1.2305,1.2305,1.2305,1.2305,1.2305,1.2305,1.2305,1.2305,1.1316,1.0447,0.9707,0.8428,0.7442,0.6718,0.6416,0.63,3.3111,3.3111,3.3111,3.3111,3.3111,3.3111,3.3111,3.3111,3.3111,3.3111,3.3111,3.3111,3.3111,3.3111,3.3111,3.3111,3.3111,3.3111,3.3111,3.3545,3.3872,3.3872,3.4349,3.4856,3.5408,3.5458,3.5483,3.5508,3.6056,3.6405,3.6405,3.6405,3.581,3.4483,3.5715,3.509,3.2409,3.37,3.3492,3.169,3.1471,3.0537,2.8922,2.8411,2.7998,2.772,2.8819,2.8634,2.76,2.7552,2.6812,2.5693,2.5693,2.5693,2.5693,2.5693,2.5693,2.5693,2.5693,2.5693,2.5693,2.5693,2.5693,2.5693,2.5693,2.5693,2.5693,2.5674,2.5674,2.5557,2.5156,2.5106,2.4941,2.4492,2.4394,2.4277,2.3867,2.3769,2.3652,2.3135,2.205,2.0872,1.9662,1.8129,1.6637,1.5214,1.4696,1.4239,1.368,1.312,1.2784,1.277,1.2478,1.2305,1.2305,1.2305,1.2305,1.2305,1.2305,1.2305,1.2305,1.2305,1.2305,1.2305,1.1316,1.0783,1.0746,0.8761,0.7778,0.7748,0.6756,0.63,3.3111,3.3111,3.3111,3.3111,3.3111,3.3111,3.3111,3.3111,3.3111,3.3111,3.3111,3.3111,3.3111,3.3111,3.3111,3.3111,3.3111,3.3111,3.3111,3.3545,3.3897,3.3897,3.47,3.5282,3.5483,3.5508,3.5658,3.6056,3.6304,3.6405,3.6405,3.6405,3.6216,3.5763,3.6168,3.5499,3.3723,3.3254,3.2714,3.2084,3.1771,3.1611,3.1497,2.9332,2.9598,3.1656,2.9229,2.8866,2.9852,2.8262,2.7363,2.6887,2.6014,2.5693,2.5693,2.5693,2.5693,2.5693,2.5693,2.5693,2.5693,2.5693,2.5693,2.5693,2.5693,2.5693,2.5693,2.5693,2.5693,2.5654,2.5547,2.5508,2.5391,2.4961,2.4844,2.4727,2.4297,2.3984,2.375,2.3594,2.2326,2.1168,2.0747,1.8762,1.6623,1.4913,1.4416,1.4095,1.3653,1.3427,1.3267,1.308,1.2824,1.2636,1.2636,1.2412,1.2305,1.2305,1.2305,1.2305,1.2305,1.2305,1.2305,1.2305,1.1959,1.1465,1.0783,0.9442,0.8466,0.7787,0.6756,0.63,3.3111,3.3111,3.3111,3.3111,3.3111,3.3111,3.3111,3.3111,3.3111,3.3111,3.3111,3.3111,3.3111,3.3111,3.3111,3.3111,3.3111,3.3187,3.3345,3.3847,3.4274,3.4474,3.5278,3.583,3.583,3.583,3.5981,3.638,3.6405,3.6405,3.6405,3.6405,3.6405,3.6405,3.6405,3.6026,3.5114,3.3749,3.2805,3.228,3.2537,3.2614,3.2392,3.0723,3.1159,3.3113,3.0649,3.0192,3.1089,2.9533,2.8634,2.8143,2.6839,2.638,2.638,2.638,2.611,2.5693,2.5693,2.5693,2.5693,2.5693,2.5693,2.5693,2.5693,2.5693,2.5693,2.5693,2.5693,2.5693,2.5693,2.5693,2.5615,2.5371,2.5312,2.5176,2.4746,2.4434,2.416,2.3848,2.2955,2.202,2.1409,1.9407,1.7206,1.515,1.4872,1.4614,1.3883,1.3666,1.3533,1.3347,1.3093,1.2904,1.2797,1.261,1.2412,1.2305,1.2305,1.2305,1.2305,1.2305,1.2305,1.2305,1.2305,1.1996,1.1316,1.0346,0.9518,0.8836,0.748,0.6834,3.3111,3.3111,3.3111,3.3111,3.3111,3.3111,3.3111,3.3111,3.3111,3.3111,3.3111,3.3111,3.3111,3.3111,3.3111,3.3111,3.3111,3.3269,3.3822,3.4374,3.4881,3.5433,3.6031,3.6405,3.6405,3.6405,3.6405,3.6405,3.6405,3.6405,3.6405,3.6405,3.6405,3.6405,3.6405,3.6358,3.631,3.5017,3.3723,3.2431,3.3822,3.3613,3.198,3.2464,3.2531,3.2282,3.2772,3.2326,3.1311,3.1223,3.0553,2.935,2.8168,2.7626,2.76,2.76,2.6791,2.5693,2.5693,2.5693,2.5693,2.5693,2.5693,2.5693,2.5693,2.5693,2.5693,2.5693,2.5693,2.5693,2.5693,2.5693,2.5693,2.5693,2.5693,2.5625,2.5195,2.5125,2.4871,2.4004,2.3828,2.3275,2.1597,2.0137,1.8406,1.5929,1.6037,1.5817,1.4304,1.3854,1.3626,1.3626,1.336,1.312,1.2851,1.2797,1.2663,1.2345,1.2305,1.2305,1.2305,1.2305,1.2305,1.2305,1.2305,1.2305,1.2305,1.1279,1.0783,1.0746,0.8799,0.7863,3.3111,3.3111,3.3111,3.3111,3.3111,3.3111,3.3111,3.3111,3.3111,3.3111,3.3111,3.3111,3.3111,3.3111,3.3111,3.3111,3.3111,3.3269,3.3822,3.4374,3.4881,3.5433,3.6031,3.6405,3.6405,3.6405,3.6405,3.6405,3.6405,3.6405,3.6405,3.6405,3.6405,3.6405,3.6405,3.5906,3.4921,3.4581,3.4239,3.3871,3.5259,3.5641,3.5182,3.355,3.3254,3.3929,3.2366,3.2064,3.2568,3.1577,3.1045,3.0619,2.9396,2.8402,2.76,2.76,2.6791,2.5693,2.5693,2.5693,2.5693,2.5693,2.5693,2.5693,2.5693,2.5693,2.5693,2.5693,2.5693,2.5693,2.5693,2.5693,2.5693,2.5693,2.5693,2.5654,2.5586,2.5293,2.5047,2.4832,2.4219,2.3275,2.1597,2.0989,2.0162,1.8422,1.7458,1.636,1.4599,1.4148,1.3975,1.3975,1.3707,1.3453,1.3387,1.3038,1.2757,1.2677,1.2425,1.2305,1.2305,1.2305,1.2305,1.2305,1.2305,1.2305,1.2305,1.1279,1.0783,1.0783,0.9518,0.8504,3.3111,3.3111,3.3111,3.3111,3.3111,3.3111,3.3111,3.3111,3.3111,3.3111,3.3111,3.3111,3.3111,3.3111,3.3111,3.3111,3.3111,3.3345,3.4148,3.4525,3.5027,3.5805,3.6182,3.6405,3.6405,3.6405,3.6405,3.6405,3.6405,3.6405,3.6405,3.6405,3.6405,3.6405,3.6405,3.5763,3.4434,3.4969,3.4969,3.4434,3.5763,3.6405,3.6332,3.4487,3.4065,3.4605,3.2793,3.2413,3.3025,3.2326,3.204,3.1909,3.0687,2.9761,2.9143,2.8588,2.7955,2.7247,2.6716,2.6524,2.6428,2.5868,2.5693,2.5693,2.5693,2.5693,2.5693,2.5693,2.5693,2.5693,2.5693,2.5693,2.5693,2.5693,2.5693,2.5693,2.5693,2.5547,2.5254,2.4863,2.4238,2.3275,2.1597,2.1747,2.1452,1.9547,1.9006,1.8036,1.5977,1.487,1.4229,1.4095,1.3935,1.3746,1.3613,1.3333,1.3093,1.2998,1.2703,1.2529,1.2529,1.2371,1.2305,1.2305,1.2305,1.2305,1.2305,1.1737,1.1527,1.1652,1.0629,0.9918,3.3111,3.3111,3.3111,3.3111,3.3111,3.3111,3.3111,3.3111,3.3111,3.3111,3.3111,3.3111,3.3111,3.3111,3.3111,3.3111,3.3111,3.347,3.4575,3.468,3.5127,3.6279,3.6405,3.6405,3.6405,3.6405,3.6405,3.6405,3.6405,3.6405,3.6405,3.6405,3.6405,3.6405,3.6405,3.581,3.4678,3.581,3.581,3.4678,3.581,3.6405,3.638,3.5228,3.468,3.463,3.3545,3.3111,3.3111,3.3111,3.3111,3.2982,3.1865,3.1356,3.1089,3.0033,2.9533,2.928,2.819,2.772,2.741,2.6284,2.5839,2.5742,2.5917,2.582,2.5693,2.5693,2.5693,2.5693,2.5693,2.5693,2.5693,2.5693,2.5693,2.5693,2.5693,2.5693,2.544,2.4668,2.416,2.3397,2.1913,2.2441,2.2403,2.0268,2.0527,2.0105,1.7747,1.5861,1.4588,1.4218,1.4108,1.3988,1.368,1.3626,1.3493,1.328,1.3012,1.2851,1.2851,1.2559,1.2425,1.2425,1.2425,1.2425,1.2425,1.2425,1.2559,1.2851,1.1913,1.1567,3.3111,3.3111,3.3111,3.3111,3.3111,3.3111,3.3111,3.3111,3.3111,3.3111,3.3111,3.3111,3.3111,3.3111,3.3111,3.3111,3.3111,3.347,3.4575,3.468,3.5127,3.6279,3.6405,3.6405,3.6405,3.6405,3.6405,3.6405,3.6405,3.6405,3.6405,3.6405,3.6405,3.6405,3.6405,3.631,3.6073,3.6263,3.6263,3.6073,3.631,3.6405,3.638,3.5228,3.468,3.463,3.3545,0.0,3.3111,3.3111,3.3111,3.3068,3.2853,3.2152,3.1178,3.0956,3.0259,2.935,2.9189,2.8402,2.7531,2.7363,2.6572,2.5868,2.6935,2.6524,2.5693,2.5693,2.5693,2.5693,2.5693,2.5693,2.5693,2.5693,2.5693,2.5693,2.5693,2.5693,2.5586,2.5059,2.4609,2.4114,2.3461,2.3246,2.295,2.2555,2.178,2.0625,1.8985,1.7159,1.5576,1.4529,1.4229,1.4068,1.4015,1.3746,1.3586,1.3533,1.3293,1.3133,1.3133,1.308,1.3053,1.3053,1.3053,1.3053,1.3053,1.3053,1.308,1.3133,1.2923,1.2435,3.3111,3.3111,3.3111,3.3111,3.3111,3.3111,3.3111,3.3111,3.3111,3.3111,3.3111,3.3111,3.3111,3.3111,3.3111,3.3111,3.3111,3.337,3.4173,3.455,3.5027,3.583,3.6182,3.6405,3.6405,3.6405,3.6405,3.6405,3.6405,3.6405,3.6405,3.6405,3.6405,3.6405,3.6405,3.6405,3.6405,3.6405,3.6405,3.6405,3.6405,3.6405,3.638,3.5228,3.468,3.463,3.3545,3.3111,3.3111,3.3111,3.3111,3.3111,3.3111,3.2742,3.2108,3.1444,3.1223,3.1158,2.9875,2.9442,2.9442,2.9442,2.7746,2.5917,2.722,2.6716,2.5693,2.5693,2.5693,2.5693,2.5693,2.5693,2.5693,2.5693,2.5693,2.5693,2.5693,2.5693,2.5605,2.5156,2.4902,2.4551,2.3906,2.3613,2.3398,2.314,2.2624,2.1736,2.0412,1.8797,1.6911,1.4723,1.4389,1.4255,1.4095,1.3961,1.3868,1.3868,1.3601,1.34,1.34,1.3293,1.3213,1.3213,1.3213,1.3213,1.3213,1.3213,1.3293,1.34,1.34,1.3223,3.3111,3.3111,3.3111,3.3111,3.3111,3.3111,3.3111,3.3111,3.3111,3.3111,3.3111,3.3111,3.3111,3.3111,3.3111,3.3111,3.3111,3.3269,3.3822,3.4374,3.4881,3.5433,3.6031,3.6405,3.6405,3.6405,3.6405,3.6405,3.6405,3.6405,3.6405,3.6405,3.6405,3.6405,3.6405,3.6405,3.6405,3.6405,3.6405,3.6405,3.6405,3.6405,3.638,3.5228,3.468,3.463,3.3545,3.3111,3.3111,3.3111,3.3111,3.3111,3.3111,3.3111,3.2982,3.1952,3.2239,3.281,3.0866,3.0643,3.1223,3.1533,2.9304,2.6744,2.8002,2.7484,2.6428,2.6207,2.611,2.6062,2.5791,2.5693,2.5693,2.5693,2.5693,2.5693,2.5693,2.5693,2.5625,2.5273,2.5184,2.4871,2.4062,2.3848,2.3633,2.3159,2.3101,2.2668,2.148,2.0278,1.8423,1.5397,1.472,1.4429,1.4202,1.4122,1.4082,1.4082,1.3868,1.3693,1.3693,1.352,1.34,1.34,1.34,1.34,1.34,1.34,1.352,1.3693,1.3693,1.3868,3.3111,3.3111,3.3111,3.3111,3.3111,3.3111,3.3111,3.3111,3.3111,3.3111,3.3111,3.3111,3.3111,3.3111,3.3111,3.3111,3.3111,3.3269,3.3822,3.4374,3.4881,3.5433,3.6031,3.6405,3.6405,3.6405,3.6405,3.6405,3.6405,3.6405,3.6405,3.6405,3.6405,3.6405,3.6405,3.6405,3.6405,3.6405,3.6405,3.6405,3.6405,3.6405,3.638,3.5228,3.468,3.463,3.3545,3.3111,0.0,3.3111,3.3111,3.3111,3.3111,3.3111,3.3068,3.2982,3.2982,3.3068,3.2853,3.2108,3.14,3.2568,3.1178,2.928,3.0485,3.0033,2.8819,2.772,2.7458,2.7173,2.6014,2.5693,2.5693,2.5693,2.5693,2.5693,2.5693,2.5693,2.5674,2.5635,2.5352,2.4969,2.4434,2.4043,2.3633,2.3159,2.3101,2.2668,2.148,2.1176,2.0028,1.7236,1.548,1.4509,1.4482,1.4242,1.4082,1.4082,1.4055,1.4041,1.4041,1.4015,1.4001,1.4001,1.4001,1.4001,1.4001,1.4001,1.4015,1.4041,1.4041,1.4055,3.3111,3.3111,3.3111,3.3111,3.3111,3.3111,3.3111,3.3111,3.3111,3.3111,3.3111,3.3111,3.3111,3.3111,3.3111,3.3111,3.3111,3.3144,3.337,3.4173,3.4756,3.4981,3.583,3.6405,3.6405,3.6405,3.6405,3.6405,3.6405,3.6405,3.6405,3.6405,3.6405,3.6405,3.6405,3.6405,3.6405,3.6405,3.6405,3.6405,3.6405,3.6405,3.638,3.5554,3.4981,3.4675,3.3897,3.3395,0.0,3.3111,3.3111,3.3111,3.3111,3.3111,3.3111,3.3111,3.3111,3.3111,3.3111,3.2742,3.2413,3.2939,3.2438,3.1557,3.1267,3.035,2.9143,2.7955,2.76,2.7315,2.6014,2.5693,2.5693,2.5693,2.5693,2.5693,2.5693,2.5693,2.5693,2.5693,2.5586,2.5332,2.4883,2.4453,2.4023,2.3594,2.3257,2.2906,2.2448,2.1747,2.0604,1.8784,1.7101,1.5669,1.4593,1.4416,1.4269,1.4095,1.4082,1.4082,1.4082,1.4082,1.4082,1.4082,1.4082,1.4082,1.4082,1.4082,1.4082,1.4082,1.4082,1.4082,3.3111,3.3111,3.3111,3.3111,3.3111,3.3111,3.3111,3.3111,3.3111,3.3111,3.3111,3.3111,3.3111,3.3111,3.3111,3.3111,3.3111,3.3111,3.3111,3.3897,3.455,3.4655,3.5554,3.6182,3.638,3.6405,3.6405,3.6405,3.6405,3.6405,3.6405,3.6405,3.6405,3.6405,3.6405,3.6405,3.6405,3.6405,3.6405,3.6405,3.6405,3.6405,3.638,3.5805,3.5282,3.4881,3.4374,3.3822,0.0,3.3319,3.3219,3.3111,3.3111,3.3111,3.3111,3.3111,3.3111,3.3111,3.3111,3.3111,3.3111,3.3111,3.3111,3.2939,3.204,3.1178,3.0237,2.9004,2.8143,2.7315,2.6014,2.5693,2.5693,2.5693,2.5693,2.5693,2.5693,2.5693,2.5693,2.5693,2.5693,2.5586,2.5184,2.4707,2.4277,2.3848,2.3418,2.3101,2.3101,2.2359,2.1346,2.0161,1.8752,1.7041,1.495,1.4696,1.4522,1.4242,1.4215,1.4175,1.4095,1.4082,1.4082,1.4082,1.4082,1.4082,1.4082,1.4082,1.4135,1.4215,1.4215,1.4255,3.3111,3.3111,3.3111,3.3111,3.3111,3.3111,3.3111,3.3111,3.3111,3.3111,3.3111,3.3111,3.3111,3.3111,3.3111,3.3111,3.3111,3.3111,3.3111,3.3545,3.4123,3.465,3.5182,3.5755,3.6355,3.6405,3.6405,3.6405,3.6405,3.6405,3.6405,3.6405,3.6405,3.6405,3.6405,3.6405,3.6405,3.6405,3.6405,3.6405,3.6405,3.6405,3.638,3.5805,3.5508,3.5458,3.4906,3.4399,0.0,3.3897,3.3571,3.3111,3.3111,3.3111,3.3111,3.3111,3.3111,3.3111,3.3111,3.3111,3.3111,3.3111,3.3111,3.3111,3.3068,3.3068,3.281,3.1533,2.9442,2.7315,2.6014,2.5693,2.5693,2.5693,2.5693,2.5693,2.5693,2.5693,2.5693,2.5693,2.5693,2.5586,2.5184,2.4707,2.4277,2.3848,2.3418,2.3101,2.3101,2.3101,2.2624,2.1436,2.0206,1.8392,1.5635,1.5169,1.483,1.4536,1.4522,1.4389,1.4095,1.4082,1.4082,1.4082,1.4082,1.4082,1.4082,1.4082,1.4242,1.4522,1.4522,1.4669,3.3111,3.3111,3.3111,3.3111,3.3111,3.3111,3.3111,3.3111,3.3111,3.3111,3.3111,3.3111,3.3111,3.3111,3.3111,3.3111,3.3111,3.3111,3.3111,3.3545,3.4098,3.465,3.5554,3.6182,3.638,3.6405,3.6405,3.6405,3.6405,3.6405,3.6405,3.6405,3.6405,3.6405,3.6405,3.6405,3.6405,3.6405,3.6405,3.6405,3.6405,3.6405,3.6405,3.6182,3.5906,3.5483,3.5307,3.4931,3.4424,3.4048,3.3796,3.3596,3.3219,3.3111,3.3111,3.3111,3.3111,3.3111,3.3111,3.3111,3.3111,3.3111,3.3111,3.3111,3.3111,3.3111,3.2655,3.0553,2.8819,2.7315,2.6014,2.5693,2.5693,2.5693,2.5693,2.5693,2.5693,2.5693,2.5693,2.5693,2.5693,2.5635,2.5547,2.5156,2.4707,2.4277,2.3848,2.3477,2.314,2.3101,2.2643,2.1436,2.0971,1.9602,1.6888,1.5801,1.5137,1.4843,1.483,1.479,1.474,1.4727,1.4727,1.4727,1.4727,1.4727,1.4727,1.4727,1.478,1.483,1.483,1.4914,3.3111,3.3111,3.3111,3.3111,3.3111,3.3111,3.3111,3.3111,3.3111,3.3111,3.3111,3.3111,3.3111,3.3111,3.3111,3.3111,3.3111,3.3111,3.3111,3.337,3.3872,3.4625,3.568,3.6405,3.6405,3.6405,3.6405,3.6405,3.6405,3.6405,3.6405,3.6405,3.6405,3.6405,3.6405,3.6405,3.6405,3.6405,3.6405,3.6405,3.6405,3.6405,3.6405,3.6405,3.6182,3.5855,3.5855,3.5529,0.0,3.463,3.4274,3.3872,3.352,3.3269,3.3111,3.3111,3.3111,3.3111,3.3111,3.3111,3.3111,3.3111,3.3111,3.3111,3.3111,3.3111,3.2655,3.0643,2.9235,2.8002,2.6744,2.6062,2.5693,2.5693,2.5693,2.5693,2.5693,2.5693,2.5693,2.5693,2.5693,2.5693,2.5693,2.5371,2.4922,2.4473,2.4062,2.3633,2.314,2.3101,2.2818,2.2076,2.1569,2.0418,1.8265,1.6958,1.5939,1.5196,1.5169,1.5129,1.5008,1.5008,1.5008,1.5008,1.5008,1.5008,1.5008,1.5115,1.5169,1.5124,1.5244,1.5297,0.0,3.3111,3.3111,3.3111,3.3111,3.3111,3.3111,3.3111,0.0,3.3111,3.3111,3.3111,3.3111,3.3111,3.3111,3.3111,3.3111,3.3111,3.3111,3.3187,3.3571,3.46,3.568,3.6405,3.6405,3.6405,3.6405,3.6405,3.6405,3.6405,3.6405,3.6405,3.6405,3.6405,3.6405,3.6405,3.6405,3.6405,3.6405,3.6405,3.6405,3.6405,3.6405,3.6405,3.6405,3.6405,3.6405,3.6081,3.5558,3.5508,3.4906,3.3997,3.3922,3.3596,3.3144,3.3093,3.3111,3.3111,3.3111,3.3111,3.3111,3.3111,3.3111,3.3111,3.3111,3.3111,3.2828,3.1533,3.0305,2.9143,2.8002,2.6716,2.5742,2.582,2.5791,2.5693,2.5693,2.5693,2.5693,2.5693,2.5693,2.5693,2.5693,2.5391,2.4961,2.4531,2.4102,2.3672,2.3198,2.312,2.3101,2.3101,2.2076,2.0944,1.9724,1.8503,1.7147,1.5537,1.5523,1.5402,1.5075,1.5075,1.5075,1.5075,1.5075,1.5075,1.5075,1.5297,1.5431,1.5431,1.5698,1.5784,3.3111,0.0,3.3111,3.3111,3.3111,3.3111,0.0,3.3111,3.3111,3.3111,3.3111,3.3111,3.3111,3.3111,3.3111,3.3111,3.3111,3.3111,3.3111,3.3796,3.4424,3.47,3.568,3.6405,3.6405,3.6405,3.6405,3.6405,3.6405,3.6405,3.6405,3.6405,3.6405,3.6405,3.6405,3.6405,3.6405,3.6405,3.6405,3.6405,3.6405,3.6405,3.6405,3.6405,3.6405,3.6405,3.6405,3.6329,3.6132,3.5683,3.5332,3.5031,3.4223,3.3822,3.3646,3.3244,3.3111,3.3111,3.3111,3.3111,3.3111,3.3111,3.3111,3.3111,3.3111,3.3111,3.2828,3.1533,3.0305,2.9304,2.905,2.7342,2.5965,2.6935,2.6428,2.5693,2.5693,2.5693,2.5693,2.5693,2.5693,2.5693,2.5693,2.5596,2.543,2.498,2.4551,2.4121,2.3691,2.3296,2.3101,2.3101,2.2862,2.2183,2.0962,1.977,1.8087,1.5866,1.6603,1.6714,1.5631,1.5631,1.5631,1.5631,1.5631,1.5631,1.5631,1.5698,1.5725,1.5725,1.5744,1.5784,3.3111,3.3111,3.3111,3.3111,3.3111,3.3111,3.3111,3.3111,3.3111,3.3111,3.3111,3.3111,3.3111,3.3111,3.3111,3.3111,3.3111,3.3212,3.342,3.4198,3.4781,3.5031,3.5855,3.6405,3.6405,3.6405,3.6405,3.6405,3.6405,3.6405,3.6405,3.6405,3.6405,3.6405,3.6405,3.6405,3.6405,3.6405,3.6405,3.6405,3.6405,3.6405,3.6405,3.6405,3.6405,3.6405,3.6405,3.6405,3.638,3.6031,3.578,3.5408,3.46,3.4123,3.3847,3.3294,3.3111,3.3111,3.3111,3.3111,3.3111,3.3111,3.3111,3.3111,3.3111,3.3111,3.2939,3.2283,3.1178,3.0214,3.0214,2.8402,2.6764,2.7458,2.662,2.5693,2.5693,2.5693,2.5693,2.5693,2.5693,2.5693,2.5693,2.5693,2.5538,2.5184,2.4863,2.4492,2.3867,2.3574,2.3315,2.312,2.3101,2.2599,2.1409,2.123,2.0133,1.7669,1.8133,1.7948,1.6716,1.6669,1.6386,1.5832,1.5784,1.5784,1.5784,1.5784,1.5784,1.5784,1.5784,1.5784,3.3111,3.3111,3.3111,3.3111,3.3111,3.3111,3.3111,3.3111,3.3111,3.3111,3.3111,3.3111,3.3111,3.3111,3.3111,3.3111,3.3111,3.3269,3.3822,3.4374,3.4881,3.5433,3.6031,3.6405,3.6405,3.6405,3.6405,3.6405,3.6405,3.6405,3.6405,3.6405,3.6405,3.6405,3.6405,3.6405,3.6405,3.6405,3.6405,3.6405,3.6405,3.6405,3.6405,3.6405,3.6405,3.6405,3.6405,0.0,3.6405,3.6405,3.6081,3.5558,3.4931,3.4424,3.3947,3.3319,3.3111,3.3111,3.3111,3.3111,3.3111,3.3111,3.3111,3.3111,3.3111,3.3111,3.3111,3.3111,3.2196,3.1223,3.1444,2.967,2.7908,2.8096,2.7173,2.6187,2.6014,2.5965,2.5917,2.5742,2.5693,2.5693,2.5693,2.5693,2.5557,2.5234,2.5165,2.4851,2.4082,2.3867,2.3652,2.3237,2.314,2.2687,2.1658,2.2492,2.2227,2.0178,1.9724,1.8856,1.7451,1.7404,1.6904,1.5832,1.5784,1.5784,1.5784,1.5784,1.5784,1.5784,1.5784,1.5784,3.3111,3.3111,3.3111,3.3111,3.3111,3.3111,3.3111,3.3111,3.3111,3.3111,3.3111,3.3111,3.3111,3.3111,3.3111,3.3111,3.3111,3.3269,3.3822,3.4374,3.4881,3.5433,3.6031,3.6405,3.6405,3.6405,3.6405,3.6405,3.6405,3.6405,3.6405,3.6405,3.6405,3.6405,3.6405,3.6405,3.6405,3.6405,3.6405,3.6405,3.6405,3.6405,3.6405,3.6405,3.6405,3.6405,0.0,3.6405,3.6405,3.6405,3.6355,3.6179,3.5127,3.4675,3.4474,3.3445,3.3111,3.3111,3.3111,3.3111,3.3111,3.3111,3.3111,3.3111,3.3111,3.3111,3.3111,3.3111,3.2196,3.1444,3.2525,3.0956,2.935,3.0395,2.9715,2.8541,2.7531,2.7315,2.6982,2.5917,2.5693,2.5693,2.5693,2.5693,2.5674,2.5644,2.5312,2.5067,2.493,2.4238,2.3769,2.3691,2.3359,2.2994,2.2818,2.2994,2.295,2.2599,2.0629,1.8488,1.6197,1.6103,1.6021,1.5784,1.5784,1.5784,1.5784,1.5784,1.5784,1.5784,1.5784,1.5784,3.3111,3.3111,3.3111,3.3111,3.3111,3.3111,3.3111,3.3111,3.3111,3.3111,3.3111,3.3111,3.3111,3.3111,3.3111,3.3111,3.3319,3.3721,3.4274,3.4781,3.5332,3.5931,3.6207,3.6405,3.6405,3.6405,3.6405,3.6405,3.6405,3.6405,3.6405,3.6405,3.6405,3.6405,3.6405,3.6405,3.6405,3.6405,3.6405,3.6405,3.6405,3.6405,3.6405,3.6405,3.6405,3.6405,0.0,3.6405,3.6405,3.6405,3.6182,3.583,3.5027,3.455,3.4173,3.337,3.3111,3.3111,3.3111,3.3111,3.3111,3.3111,3.3111,3.3111,3.3111,3.3111,3.3111,3.3111,3.2655,3.237,3.2939,3.1733,3.0485,3.1089,3.0259,2.9096,2.7861,2.76,2.722,2.5965,2.5693,2.5693,2.5693,2.5693,2.5693,2.5693,2.5566,2.5352,2.5145,2.4773,2.4394,2.416,2.3945,2.3686,2.3516,2.3496,2.3113,2.2183,2.0494,1.8718,1.6889,1.615,1.5784,1.5784,1.5784,1.5784,1.5784,1.5784,1.5784,1.5784,1.5784,1.5784,3.3111,3.3111,3.3111,3.3111,3.3111,3.3111,3.3111,3.3111,3.3111,3.3111,3.3111,3.3111,3.3111,3.3111,3.3111,3.3111,3.3545,3.4098,3.4605,3.5157,3.5708,3.6355,3.6405,3.6405,3.6405,3.6405,3.6405,3.6405,3.6405,3.6405,3.6405,3.6405,3.6405,3.6405,3.6405,3.6405,3.6405,3.6405,3.6405,3.6405,3.6405,3.6405,3.6405,3.6405,3.6329,3.6182,3.6182,3.6107,3.5981,3.5981,3.573,3.5257,3.4705,3.4198,3.3646,3.3244,3.3111,3.3111,3.3111,3.3111,3.3111,3.3111,3.3111,3.3111,3.3111,3.3111,3.3111,3.3111,3.3111,3.3111,3.3111,3.237,3.1645,3.1645,3.0956,2.992,2.8727,2.8215,2.7626,2.638,2.5917,2.5693,2.5693,2.5693,2.5693,2.5693,2.5693,2.5557,2.5273,2.5184,2.4941,2.4609,2.4473,2.4277,2.3965,2.3945,2.3236,2.1554,1.9957,1.8688,1.7731,1.648,1.5784,1.5784,1.5784,1.5784,1.5784,1.5784,1.5784,1.5784,1.5784,1.5784,3.3111,3.3111,3.3111,3.3111,3.3111,3.3111,3.3111,3.3111,3.3111,3.3111,3.3111,3.3111,3.3111,3.3111,3.3111,3.3111,3.3545,3.4098,3.4605,3.5157,3.5708,3.6355,3.6405,3.6405,3.6405,3.6405,3.6405,3.6405,3.6405,3.6405,3.6405,3.6405,3.6405,3.6405,3.6405,3.6405,3.6405,3.6405,3.6405,3.6405,3.6405,3.6405,3.6405,3.6405,3.6081,3.5558,3.5558,3.5257,3.4851,3.4851,3.4826,3.468,3.4173,3.3621,3.3144,3.3093,3.3111,3.3111,3.3111,3.3111,3.3111,3.3111,3.3111,3.3111,3.3111,3.3111,3.3111,3.3111,3.3111,3.3111,3.3111,3.3025,3.2982,3.2982,3.2896,3.2481,3.1223,3.0033,2.8912,2.7673,2.6524,2.5693,2.5693,2.5693,2.5693,2.5693,2.5693,2.5674,2.5635,2.5332,2.5106,2.5067,2.4668,2.4414,2.4375,2.4375,2.3675,2.2053,1.9372,1.7777,1.7684,1.648,1.5784,1.5784,1.5784,1.5784,1.5784,1.5784,1.5784,1.5784,1.5784,1.5784,3.3111,3.3111,3.3111,3.3111,3.3111,3.3111,3.3111,3.3111,3.3111,3.3111,3.3111,3.3111,3.3111,3.3111,3.3111,3.3111,3.3822,3.4474,3.47,3.5479,3.6132,3.638,3.6405,3.6405,3.6405,3.6405,3.6405,3.6405,3.6405,3.6405,3.6405,3.6405,3.6405,3.6405,3.6405,3.6405,3.6405,3.6405,3.6182,3.5855,3.5855,3.5855,3.5855,3.5504,3.5228,3.4981,3.4981,3.4881,3.468,3.468,3.4525,3.4148,3.3596,3.3269,3.3111,3.3111,3.3111,3.3111,3.3111,3.3111,3.3111,3.3111,3.3111,3.3111,3.3111,3.3111,3.3111,3.3111,3.3111,3.3111,3.3111,3.3111,3.3111,3.3111,3.3111,3.2742,3.1488,3.0259,2.905,2.7814,2.6572,2.5693,2.5693,2.5693,2.5693,2.5693,2.5693,2.5693,2.5693,2.5586,2.5488,2.5488,2.5078,2.4824,2.4824,2.457,2.4152,2.3537,2.1547,1.9559,1.7792,1.7217,1.6622,1.5832,1.5784,1.5784,1.5784,1.5784,1.5784,1.5784,1.5784,1.5784,3.3111,3.3111,3.3111,3.3111,3.3111,3.3111,3.3111,3.3111,3.3111,3.3111,3.3111,3.3111,3.3111,3.3111,3.3187,3.3319,3.4123,3.4776,3.4906,3.578,3.6405,3.6405,3.6405,3.6405,3.6405,3.6405,3.6405,3.6405,3.6405,3.6405,3.6405,3.6405,3.6405,3.6405,3.6405,3.6405,3.6405,3.6405,3.6081,3.5508,3.5332,3.5232,3.5232,3.4856,3.4625,3.4449,3.4449,3.4349,3.4198,3.4198,3.3972,3.3596,3.3219,3.3111,3.3111,3.3111,3.3111,3.3111,3.3111,3.3111,3.3111,3.3111,3.3111,3.3111,3.3111,3.3111,3.3111,3.3111,3.3111,3.3111,3.3111,3.3111,3.3111,3.3111,3.3111,3.2853,3.1996,3.0866,2.9579,2.8402,2.7173,2.6159,2.5791,2.5693,2.5693,2.5693,2.5693,2.5693,2.5693,2.5693,2.5693,2.5693,2.5469,2.5273,2.5273,2.5,2.4766,2.4629,2.3597,2.1781,1.9156,1.8302,1.7413,1.6433,1.6008,1.5784,1.5784,1.5784,1.5784,1.5784,1.5784,1.5784,3.3111,3.3111,3.3111,3.3111,3.3111,3.3111,3.3111,3.3111,3.3111,3.3111,3.3111,3.3111,3.3111,3.3111,3.3269,3.3796,3.4349,3.4881,3.5433,3.6006,3.6405,3.6405,3.6405,3.6405,3.6405,3.6405,3.6405,3.6405,3.6405,3.6405,3.6405,3.6405,3.6405,3.6405,3.6405,3.6405,3.6405,3.6405,3.6081,3.5483,3.4931,3.468,3.468,3.47,3.4399,3.3897,3.3897,3.3571,3.3111,3.3111,3.3111,3.3111,3.3111,3.3111,3.3111,3.3111,3.3111,3.3111,3.3111,3.3111,3.3111,3.3111,3.3111,3.3111,3.3111,3.3111,3.3111,3.3111,3.3111,3.3111,3.3111,3.3111,3.3111,3.3111,3.3111,3.3111,3.3111,3.2108,3.0866,2.9624,2.8402,2.722,2.5917,2.5693,2.5693,2.5693,2.5693,2.5693,2.5693,2.5693,2.5693,2.5693,2.5693,2.5693,2.5693,2.5693,2.5547,2.5145,2.5125,2.4153,2.2107,1.9635,1.8155,1.7699,1.648,1.5832,1.5784,1.5784,1.5784,1.5784,1.5784,1.5784,3.3111,3.3111,3.3111,3.3111,3.3111,3.3111,3.3111,3.3111,3.3111,3.3111,3.3111,3.3111,3.3111,3.3111,3.3269,3.3796,3.4349,3.4881,3.5433,3.6006,3.6405,3.6405,3.6405,3.6405,3.6405,3.6405,3.6405,3.6405,3.6405,3.6405,3.6405,3.6405,3.6405,3.6405,3.6405,3.6405,3.6405,3.5981,3.5504,3.4906,3.4399,3.4148,3.4123,3.3746,3.347,3.3319,3.3319,3.3262,3.3111,3.3111,3.3111,3.3111,3.3111,3.3111,3.3111,3.3111,3.3111,3.3111,3.3111,3.3111,3.3111,3.3111,3.3111,3.3111,3.3111,3.3111,3.3111,3.3111,3.3111,3.3111,3.3111,3.3111,3.3111,3.3111,3.3111,3.3111,3.3111,3.2108,3.0866,2.9624,2.8402,2.722,2.5917,2.5693,2.5693,2.5693,2.5693,2.5693,2.5693,2.5693,2.5693,2.5693,2.5693,2.5693,2.5693,2.5693,2.5635,2.5547,2.5527,2.4612,2.2506,2.1719,2.0303,1.817,1.7743,1.6975,1.5784,1.5784,1.5784,1.5784,1.5784,1.5784,3.3111,3.3111,3.3111,3.3111,3.3111,3.3111,3.3111,3.3111,3.3111,3.3111,3.3244,3.3395,3.3395,3.3571,3.3897,3.4474,3.4826,3.5182,3.5805,3.6157,3.6405,3.6405,3.6405,3.6405,3.6405,3.6405,3.6405,3.6405,3.6405,3.6405,3.6405,3.6405,3.6405,3.6405,3.6405,3.6304,3.6031,3.5658,3.5107,3.4399,3.4048,3.3796,3.3571,3.3262,3.3111,3.3111,3.3111,3.3111,3.3111,3.3111,3.3111,3.3111,3.3111,3.3111,3.3111,3.3111,3.3111,3.3111,3.3111,3.3111,3.3111,3.3111,3.3111,3.3111,3.3111,3.3111,3.3111,3.3111,3.3111,3.3111,3.3111,3.3111,3.3111,3.3111,3.3111,3.3111,3.3111,3.2525,3.1601,3.035,2.9143,2.7908,2.6668,2.6062,2.5693,2.5693,2.5693,2.5693,2.5693,2.5693,2.5693,2.5693,2.5693,2.5693,2.5693,2.5693,2.5693,2.5693,2.5693,2.515,2.3898,2.3217,2.1977,2.0035,1.9542,1.854,1.6924,1.6924,1.6698,1.6131,1.6059,1.6005,3.3111,3.3111,3.3111,3.3111,3.3111,3.3111,3.3111,3.3111,3.3111,3.3111,3.352,3.3897,3.3897,3.4349,3.4856,3.5408,3.5508,3.5683,3.6329,3.6405,3.6405,3.6405,3.6405,3.6405,3.6405,3.6405,3.6405,3.6405,3.6405,3.6405,3.6405,3.6405,3.6405,3.6405,3.6355,3.6031,3.5508,3.5408,3.4856,3.3897,3.3847,3.3571,3.3111,3.3111,3.3111,3.3111,3.3111,3.3111,3.3111,3.3111,3.3111,3.3111,3.3111,3.3111,3.3111,3.3111,3.3111,3.3111,3.3111,3.3111,3.3111,3.3111,3.3111,3.3111,3.3111,3.3111,3.3111,3.3111,3.3111,3.3111,3.3111,3.3111,3.3111,3.3111,3.3111,3.3111,3.3111,3.3111,3.2698,3.1444,3.0214,2.9004,2.7814,2.6524,2.5693,2.5693,2.5693,2.5693,2.5693,2.5693,2.5693,2.5693,2.5693,2.5693,2.5693,2.5693,2.5693,2.5693,2.5693,2.5693,2.5693,2.4302,2.3268,2.2659,2.1596,2.0265,1.8705,1.8705,1.8015,1.67,1.6433,1.6299,3.3111,3.3111,3.3111,3.3111,3.3111,3.3111,3.3111,3.3111,3.3111,3.3111,3.352,3.3897,3.3897,3.4349,3.4856,3.5408,3.5508,3.5683,3.6329,3.6405,3.6405,3.6405,3.6405,3.6405,3.6405,3.6405,3.6405,3.6405,3.6405,3.6405,3.6405,3.6405,3.6405,3.6405,3.5956,3.5608,3.5508,3.463,3.4148,3.3897,3.347,3.3194,3.3111,3.3111,3.3111,3.3111,3.3111,3.3111,3.3111,3.3111,3.3111,3.3111,3.3111,3.3111,3.3111,3.3111,3.3111,3.3111,3.3111,3.3111,3.3111,3.3111,3.3111,3.3111,3.3111,3.3111,3.3111,3.3111,3.3111,3.3111,3.3111,3.3111,3.3111,3.3111,3.3111,3.3111,3.3111,3.3111,3.2698,3.1444,3.0214,2.9004,2.7814,2.6524,2.5693,2.5693,2.5693,2.5693,2.5693,2.5693,2.5693,2.5693,2.5693,2.5693,2.5693,2.5693,2.5693,2.5693,2.5693,2.5693,2.5693,2.5353,2.4533,2.319,2.2883,2.1402,1.8705,1.8705,1.8015,1.67,1.6647,1.6486,3.3111,3.3111,3.3111,3.3111,3.3111,3.3111,3.3111,3.3111,3.3111,3.3111,3.352,3.3972,3.4248,3.4705,3.5257,3.5855,3.5931,3.6031,3.638,3.6405,3.6405,3.6405,3.6405,3.6405,3.6405,3.6405,3.6405,3.6405,3.6405,3.6405,3.6405,3.6405,3.6279,3.5981,3.5633,3.5232,3.4731,3.4198,3.3771,3.3495,3.3219,3.3111,3.3111,3.3111,3.3111,3.3111,3.3111,3.3111,3.3111,3.3111,3.3111,3.3111,3.3111,3.3111,3.3111,3.3111,3.3111,3.3111,3.3111,3.3111,3.3111,3.3111,3.3111,3.3111,3.3111,3.3111,3.3111,3.3111,3.3111,3.3111,3.3111,3.3111,3.3111,3.3111,3.3111,3.3111,3.3111,3.3111,3.2896,3.2239,3.1089,2.9852,2.868,2.6935,2.5693,2.5693,2.5693,2.5693,2.5693,2.5693,2.5693,2.5693,2.5693,2.5693,2.5693,2.5693,2.5693,2.5693,2.5693,2.5693,2.5693,2.5693,2.5334,2.4455,2.4436,2.3335,2.1098,2.1098,2.0056,1.8071,1.7966,1.7474,3.3428,3.3386,3.3386,3.3386,3.3386,3.3326,3.3154,3.324,3.3326,3.3154,3.352,3.4048,3.45,3.4981,3.5508,3.6053,3.6128,3.6153,3.6207,3.6254,3.6304,3.6405,3.6405,3.6405,3.6405,3.6405,3.6405,3.6405,3.6405,3.6355,3.6279,3.6254,3.5956,3.5382,3.5257,3.4781,3.3897,3.3796,3.352,3.3111,3.3111,3.3111,3.3111,3.3111,3.3111,3.3111,3.3111,3.3111,3.3111,3.3111,3.3111,3.3111,3.3111,3.3111,3.3111,3.3111,3.3111,3.3111,3.3111,3.3111,3.3111,3.3111,3.3111,3.3111,3.3111,3.3111,3.3111,3.3111,3.3111,3.3111,3.3111,3.3111,3.3111,3.3111,3.3111,3.3111,3.3111,3.3111,3.3111,3.3111,3.204,3.0754,2.9304,2.7389,2.5965,2.5742,2.5693,2.5693,2.5693,2.5693,2.5693,2.5693,2.5693,2.5693,2.5693,2.5693,2.5693,2.5693,2.5693,2.5693,2.5693,2.5693,2.5693,2.5693,2.5693,2.502,2.3683,2.3683,2.2416,1.9973,1.975,1.8992,3.4733,3.4511,3.4511,3.4511,3.4511,3.422,3.3326,3.3827,3.422,3.3283,3.352,3.3922,3.3997,3.4449,3.4806,3.4926,3.4951,3.5102,3.5533,3.5608,3.583,3.6355,3.6405,3.6405,3.6405,3.6405,3.6405,3.6405,3.6405,3.6157,3.5633,3.5608,3.5357,3.4806,3.4374,3.4048,3.3897,3.342,3.3144,3.3111,3.3111,3.3111,3.3111,3.3111,3.3111,3.3111,3.3111,3.3111,3.3111,3.3111,3.3111,3.3111,3.3111,3.3111,3.3111,3.3111,3.3111,3.3111,3.3111,3.3111,3.3111,3.3111,3.3111,3.3111,3.3111,3.3111,3.3111,3.3111,3.3111,3.3111,3.3111,3.3111,3.3111,3.3111,3.3111,3.3111,3.3111,3.3111,3.3111,3.3111,3.204,3.0485,2.8236,2.76,2.6982,2.5868,2.5693,2.5693,2.5693,2.5693,2.5693,2.5693,2.5693,2.5693,2.5693,2.5693,2.5693,2.5693,2.5693,2.5693,2.5693,2.5693,2.5693,2.5693,2.5693,2.502,2.3683,2.3683,2.2918,2.144,2.1391,2.1111,3.5654,3.5561,3.5561,3.5561,3.5561,3.544,3.4952,3.5197,3.5238,3.422,3.4202,3.4272,3.3979,3.4098,3.4349,3.4675,3.468,3.4756,3.5006,3.5031,3.5132,3.5403,3.5454,3.5454,3.5454,3.5454,3.5454,3.5454,3.5454,3.5328,3.5056,3.5031,3.4826,3.4274,3.4022,3.3746,3.3445,3.3194,3.3111,3.3111,3.3111,3.3111,3.3111,3.3111,3.3111,3.3111,3.3111,3.3111,3.3111,3.3111,3.3111,3.3111,3.3111,3.3111,3.3111,3.3111,3.3111,3.3111,3.3111,3.3111,3.3111,3.3111,3.3111,3.3111,3.3111,3.3111,3.3111,3.3111,3.3111,3.3111,3.3111,3.3111,3.3111,3.3111,3.3111,3.3111,3.3111,3.3111,3.3111,3.3111,3.204,3.0643,2.8912,2.8049,2.7173,2.5868,2.5693,2.5693,2.5693,2.5693,2.5693,2.5693,2.5693,2.5693,2.5693,2.5693,2.5693,2.5693,2.5693,2.5693,2.5693,2.5693,2.5693,2.5693,2.5693,2.543,2.4824,2.4824,2.4146,2.2818,2.2818,2.2331,3.6916,3.6799,3.6604,3.6604,3.6604,3.6526,3.629,3.6408,3.633,3.5278,3.5102,3.4948,3.458,3.4038,3.3909,3.4622,3.4477,3.4349,3.45,3.4525,3.4575,3.4655,3.468,3.468,3.468,3.468,3.468,3.468,3.468,3.463,3.4525,3.4525,3.4248,3.3696,3.3696,3.3495,3.3111,3.3111,3.3111,3.3111,3.3111,3.3111,3.3111,3.3111,3.3111,3.3111,3.3111,3.3111,3.3111,3.3111,3.3111,3.3111,3.3111,3.3111,3.3111,3.3111,3.3111,3.3111,3.3111,3.3111,3.3111,3.3111,3.3111,3.3111,3.3111,3.3111,3.3111,3.3111,3.3111,3.3111,3.3111,3.3111,3.3111,3.3111,3.3111,3.3111,3.3111,3.3111,3.3111,3.3111,3.2326,3.1267,3.0079,2.8866,2.7626,2.638,2.5917,2.5693,2.5693,2.5693,2.5693,2.5693,2.5693,2.5693,2.5693,2.5693,2.5693,2.5693,2.5693,2.5693,2.5693,2.5693,2.5693,2.5693,2.5693,2.5693,2.5693,2.5693,2.5167,2.4196,2.4196,2.3683,3.8943,3.8509,3.7701,3.7701,3.7701,3.7472,3.6448,3.6982,3.7434,3.633,3.6132,3.6093,3.6081,3.4454,3.3479,3.4507,3.3845,3.3345,3.3872,3.3947,3.4148,3.465,3.468,3.468,3.468,3.468,3.468,3.468,3.468,3.45,3.3972,3.3947,3.3696,3.3187,3.3162,3.3119,3.3111,3.3111,3.3111,3.3111,3.3111,3.3111,3.3111,3.3111,3.3111,3.3111,3.3111,3.3111,3.3111,3.3111,3.3111,3.3111,3.3111,3.3111,3.3111,3.3111,3.3111,3.3111,3.3111,3.3111,3.3111,3.3111,3.3111,3.3111,3.3111,3.3111,3.3111,3.3111,3.3111,3.3111,3.3111,3.3111,3.3111,3.3111,3.3111,3.3111,3.3111,3.3111,3.3111,3.3111,3.3025,3.2612,3.1311,3.0124,2.8912,2.7673,2.6476,2.5693,2.5693,2.5693,2.5693,2.5693,2.5693,2.5693,2.5693,2.5693,2.5693,2.5693,2.5693,2.5693,2.5693,2.5693,2.5693,2.5693,2.5693,2.5693,2.5693,2.5693,2.5645,2.5596,2.5596,2.5577,3.9301,3.909,3.8833,3.8833,3.8833,3.873,3.8331,3.8546,3.8509,3.7472,3.7214,3.7214,3.7214,3.6053,3.5238,3.5574,3.5359,3.5155,3.5342,3.48,3.4484,3.4692,3.4081,3.3671,3.3671,3.3671,3.3671,3.3671,3.3671,3.3571,3.3395,3.337,3.3294,3.3136,3.3111,3.3111,3.3111,3.3111,3.3111,3.3111,3.3111,3.3111,3.3111,3.3111,3.3111,3.3111,3.3111,3.3111,3.3111,3.3111,3.3111,3.3111,3.3111,3.3111,3.3111,3.3111,3.3111,3.3111,3.3111,3.3111,3.3111,3.3111,3.3111,3.3111,3.3111,3.3111,3.3111,3.3111,3.3111,3.3111,3.3111,3.3111,3.3111,3.3111,3.3111,3.3111,3.3111,3.3111,3.3111,3.3111,3.3111,3.2698,3.14,3.0866,2.9852,2.7908,2.722,2.662,2.5839,2.5693,2.5693,2.5693,2.5693,2.5693,2.5693,2.5693,2.5693,2.5693,2.5693,2.5693,2.5693,2.5693,2.5693,2.5693,2.5693,2.5693,2.5693,2.5693,2.5693,2.5693,2.5693,2.5693,3.9373,3.9373,3.9373,3.9373,3.9373,3.9373,3.9373,3.9373,3.9192,3.8472,3.836,3.836,3.836,3.7738,3.7175,3.6799,3.6448,3.6212,3.6212,3.5614,3.5197,3.5197,3.4262,3.3641,3.3641,3.3326,3.3111,3.3111,3.3111,3.3111,3.3111,3.3111,3.3111,3.3111,3.3111,3.3111,3.3111,3.3111,3.3111,3.3111,3.3111,3.3111,3.3111,3.3111,3.3111,3.3111,3.3111,3.3111,3.3111,3.3111,3.3111,3.3111,3.3111,3.3111,3.3111,3.3111,3.3111,3.3111,3.3111,3.3111,3.3111,3.3111,3.3111,3.3111,3.3111,3.3111,3.3111,3.3111,3.3111,3.3111,3.3111,3.3111,3.3111,3.3111,3.3111,3.3111,3.3111,3.3111,3.3111,3.3111,3.3111,3.2828,3.1952,3.1488,3.0664,2.905,2.8448,2.7767,2.6476,2.6332,2.6159,2.5742,2.5693,2.5693,2.5693,2.5693,2.5693,2.5693,2.5693,2.5693,2.5693,2.5693,2.5693,2.5693,2.5693,2.5693,2.5693,2.5693,2.5693,2.5693,2.5693,2.5693,0.0,0.0,0.0,3.9373,3.9373,3.9373,3.9373,3.9373,3.9373,3.9373,3.9373,3.9373,3.9373,3.9373,3.9053,3.8032,3.6982,3.629,3.629,3.629,3.6251,3.6251,3.5359,3.4733,3.4733,3.3784,3.3197,3.3197,3.3197,3.3197,3.3197,3.3154,3.3111,3.3111,3.3111,3.3111,3.3111,3.3111,3.3111,3.3111,3.3111,3.3111,3.3111,3.3111,3.3111,3.3111,3.3111,3.3111,3.3111,3.3111,3.3111,3.3111,3.3111,3.3111,3.3111,3.3111,3.3111,3.3111,3.3111,3.3111,3.3111,3.3111,3.3111,3.3111,3.3111,3.3111,3.3111,3.3111,3.3111,3.3111,3.3111,3.3111,3.3111,3.3111,3.3111,3.3111,3.3111,3.3111,3.3111,3.3111,3.3111,3.3111,3.3111,3.204,3.1223,3.1223,3.0214,2.9004,2.7767,2.76,2.7125,2.5839,2.5693,2.5693,2.5693,2.5693,2.5693,2.5693,2.5693,2.5693,2.5693,2.5693,2.5693,2.5693,2.5693,2.5693,2.5693,2.5693,2.5693,2.5693,2.5693,2.5693,3.9373,0.0,0.0,0.0,0.0,0.0,3.9373,3.9373,3.9373,3.9373,3.9373,3.9373,3.9373,3.9373,3.9301,3.9017,3.8694,3.8479,3.8479,3.7852,3.7329,3.7329,3.6436,3.5774,3.5774,3.5494,3.5359,3.5359,3.5359,3.5359,3.5359,3.465,3.3911,3.3111,3.3111,3.3111,3.3111,3.3111,3.3111,3.3111,3.3111,3.3111,3.3111,3.3111,3.3111,3.3111,3.3111,3.3111,3.3111,3.3111,3.3111,3.3111,3.3111,3.3111,3.3111,3.3111,3.3111,3.3111,3.3111,3.3111,3.3111,3.3111,3.3111,3.3111,3.3111,3.3111,3.3111,3.3111,3.3111,3.3111,3.3111,3.3111,3.3111,3.3111,3.3111,3.3111,3.3111,3.3111,3.3111,3.3111,3.3111,3.3111,3.3111,3.281,3.2283,3.1356,3.0911,2.9943,2.7861,2.76,2.7125,2.5839,2.5693,2.5693,2.5693,2.5693,2.5693,2.5693,2.5693,2.5693,2.5693,2.5693,2.5693,2.5693,2.5693,2.5693,2.5693,2.5693,2.5693,2.5693,2.5693,2.5693,3.9499,3.9373,3.9373,3.9373,0.0,0.0,3.9373,3.9373,3.9373,3.9373,3.9373,3.9373,3.9373,3.9373,3.9373,3.9373,3.9373,3.9373,3.9373,3.887,3.8472,3.8472,3.752,3.6866,3.6866,3.6448,3.6212,3.6212,3.6212,3.6212,3.6212,3.5238,3.4428,3.3784,3.3326,3.3111,3.3111,3.3556,3.3742,3.3742,3.4178,3.4402,3.4361,3.3953,3.3742,3.3768,3.3283,3.3111,3.3111,3.3598,3.3513,3.3111,3.3111,3.3111,3.3111,3.3111,3.3111,3.3111,3.3111,3.3111,3.3111,3.3111,3.3111,3.3111,3.3111,3.3111,3.3111,3.3111,3.3111,3.3111,3.3111,3.3111,3.3111,3.3111,3.3111,3.3111,3.3111,3.3111,3.3111,3.3111,3.3111,3.3111,3.3111,3.3111,3.2853,3.2108,3.1996,3.1267,2.9372,2.9096,2.8448,2.6668,2.6476,2.6284,2.5742,2.5693,2.5693,2.5693,2.5693,2.5693,2.5693,2.5693,2.5693,2.5693,2.5693,2.5693,2.5693,2.5693,2.5693,2.5693,2.5693,2.5693,3.9679,3.9433,3.9373,3.9373,3.9373,0.0,3.9373,3.9373,3.9373,3.9373,3.9373,3.9373,3.9373,3.9373,3.9373,3.9373,3.9373,3.9373,3.9373,3.9373,3.9373,3.9373,3.8546,3.7994,3.7994,3.7137,3.6565,3.6565,3.6565,3.6487,3.6369,3.5521,3.4938,3.4718,3.3869,3.3386,3.3283,3.4345,3.4856,3.4856,3.5774,3.6212,3.6172,3.5278,3.4815,3.4677,3.3683,3.3283,3.3368,3.4304,3.4079,3.3111,3.324,3.3197,3.3111,3.3111,3.3111,3.3111,3.3111,3.3111,3.3111,3.3111,3.3111,3.3111,3.3111,3.3111,3.3111,3.3111,3.3111,3.3111,3.3111,3.3111,3.3111,3.3111,3.3111,3.3111,3.3111,3.3111,3.3111,3.3111,3.3111,3.3111,3.3111,3.3111,3.3111,3.3111,3.3111,3.2655,3.1356,3.1223,3.0305,2.8049,2.7673,2.7125,2.6014,2.5771,2.5693,2.5693,2.5693,2.5693,2.5693,2.5693,2.5693,2.5693,2.5693,2.5693,2.5693,2.5693,2.5693,2.5693,2.5693,2.5693,4.0247,3.9828,3.9373,3.9373,3.9373,0.0,3.9373,3.9373,3.9373,3.9373,3.9373,3.9373,3.9373,3.9373,3.9373,3.9373,3.9373,3.9373,3.9373,3.9373,3.9373,3.9373,3.9228,3.909,3.909,3.8907,3.8767,3.8767,3.8767,3.8405,3.7548,3.7319,3.6436,3.4759,3.5278,3.5197,3.4387,3.54,3.5894,3.5894,3.6132,3.6212,3.6212,3.6013,3.548,3.4718,3.447,3.4387,3.4387,3.4635,3.4079,3.3197,3.4037,3.3869,3.3111,3.3111,3.3111,3.3111,3.3111,3.3111,3.3111,3.3111,3.3111,3.3111,3.3111,3.3111,3.3111,3.3111,3.3111,3.3111,3.3111,3.3111,3.3111,3.3111,3.3111,3.3111,3.3111,3.3111,3.3111,3.3111,3.3111,3.3111,3.3111,3.3111,3.3111,3.3111,3.3111,3.2655,3.1356,3.1223,3.0643,2.9212,2.819,2.7505,2.7268,2.6304,2.5693,2.5693,2.5693,2.5693,2.5693,2.5693,2.5693,2.5693,2.5693,2.5693,2.5693,2.5693,2.5693,2.5693,2.5693,2.5693,4.0576,4.0157,3.9828,3.9463,3.9373,0.0,0.0,3.9373,3.9373,3.9373,3.9373,3.9373,3.9373,3.9373,3.9373,3.9373,3.9373,3.9373,3.9373,3.9373,3.9373,3.9373,3.9373,3.9373,3.9373,3.9373,3.9373,3.9373,3.9373,3.9192,3.862,3.8069,3.7319,3.6279,3.6212,3.5974,3.544,3.6476,3.7021,3.7021,3.752,3.7814,3.7776,3.7252,3.671,3.62,3.5682,3.544,3.548,3.6041,3.5601,3.465,3.4692,3.4037,3.3111,3.3111,3.3111,3.3111,3.3111,3.3111,3.3111,3.3111,3.3111,3.3111,3.3111,3.3111,3.3111,3.3111,3.3111,3.3111,3.3111,3.3111,3.3111,3.3111,3.3111,3.3111,3.3111,3.3111,3.3111,3.3111,3.3111,3.3111,3.3111,3.3111,3.3111,3.3111,3.3111,3.2896,3.2239,3.2152,3.1689,3.044,2.9761,2.8912,2.7673,2.703,2.638,2.5742,2.5693,2.5693,2.5693,2.5693,2.5693,2.5693,2.5693,2.5693,2.5693,2.5693,2.5693,2.5693,2.5693,2.5693,4.1055,4.0606,4.0277,3.9738,3.9529,3.9373,0.0,0.0,0.0,3.9373,3.9373,3.9373,3.9373,3.9373,3.9373,3.9373,3.9373,3.9373,3.9373,3.9373,3.9373,3.9373,3.9373,3.9373,3.9373,3.9373,3.9373,3.9373,3.9373,3.9373,3.9373,3.8583,3.7994,3.7805,3.7175,3.6721,3.6526,3.7587,3.8107,3.8107,3.898,3.9373,3.9373,3.8509,3.7994,3.7767,3.6905,3.6526,3.6565,3.7434,3.7291,3.6408,3.54,3.4345,3.3386,3.3197,3.3111,3.3111,3.3111,3.3111,3.3111,3.3111,3.3111,3.3111,3.3111,3.3111,3.3111,3.3111,3.3111,3.3111,3.3111,3.3111,3.3111,3.3111,3.3111,3.3111,3.3111,3.3111,3.3111,3.3111,3.3111,3.3111,3.3111,3.3111,3.3111,3.3111,3.3111,3.3111,3.3111,3.3111,3.2698,3.1689,3.1356,3.0305,2.8143,2.772,2.7078,2.5771,2.5693,2.5693,2.5693,2.5693,2.5693,2.5693,2.5693,2.5693,2.5693,2.5693,2.5693,2.5693,2.5693,2.5693,4.2201,4.1332,4.0397,4.0307,3.9858,3.9373,3.9373,0.0,3.9373,3.9373,0.0,3.9373,3.9373,0.0,0.0,3.9373,3.9373,3.9373,3.9373,3.9373,3.9373,3.9373,3.9373,3.9373,3.9373,3.9373,3.9373,3.9373,3.9373,3.9373,3.9373,3.9265,3.8797,3.7843,3.8583,3.8583,3.7625,3.8657,3.9228,3.9228,3.9337,3.9373,3.9373,3.9265,3.8694,3.7805,3.7663,3.7625,3.7625,3.7767,3.7701,3.751,3.6448,3.54,3.4387,3.3428,3.3111,3.3111,3.3111,3.3111,3.3111,3.3111,3.3111,3.3111,3.3111,3.3111,3.3111,3.3111,3.3111,3.3111,3.3111,3.3111,3.3111,3.3111,3.3111,3.3111,3.3111,3.3111,3.3111,3.3111,3.3111,3.3111,3.3111,3.3111,3.3111,3.3111,3.3111,3.3111,3.3111,3.3111,3.3025,3.2896,3.1865,3.0664,2.9326,2.8236,2.7078,2.5771,2.5693,2.5693,2.5693,2.5693,2.5693,2.5693,2.5693,2.5693,2.5693,2.5693,2.5693,2.5693,2.5693,2.5693,4.25,4.1991,4.1354,4.0576,4.0187,3.9888,3.9499,3.9373,3.9373,3.9373,0.0,0.0,0.0,0.0,0.0,0.0,3.9373,3.9373,3.9373,3.9373,3.9373,3.9373,3.9373,3.9373,3.9373,3.9373,3.9373,3.9373,3.9373,3.9373,3.9373,3.9373,3.9192,3.873,3.9192,3.9192,3.873,3.9192,3.9373,3.9373,3.9373,3.9373,3.9373,3.9373,3.9156,3.873,3.873,3.873,3.873,3.873,3.873,3.862,3.7548,3.6515,3.544,3.4428,3.4037,3.4037,3.4037,3.3641,3.3111,3.3111,3.3111,3.3111,3.3111,3.3111,3.3111,3.3111,3.3111,3.3111,3.3111,3.3111,3.3111,3.3111,3.3111,3.3111,3.3111,3.3111,3.3111,3.3111,3.3111,3.3111,3.3111,3.3111,3.3111,3.3111,3.3111,3.3111,3.3111,3.3111,3.3111,3.3111,3.2612,3.1777,3.053,2.9988,2.8866,2.6935,2.611,2.5693,2.5693,2.5693,2.5693,2.5693,2.5693,2.5693,2.5693,2.5693,2.5693,2.5693,2.5693,2.5693,4.2761,4.253,4.2171,4.1175,4.0666,4.0277,3.9798,3.9523,3.9373,3.9373,3.9373,0.0,0.0,0.0,3.9373,3.9373,0.0,3.9373,3.9373,3.9373,3.9373,3.9373,3.9373,3.9373,3.9373,3.9373,3.9373,3.9373,3.9373,3.9373,3.9373,3.9373,3.9373,3.9373,3.9373,3.9373,3.9373,3.9373,3.9373,3.9373,3.9373,3.9373,3.9373,3.9373,3.9373,3.9373,3.9373,3.9373,3.9373,3.9373,3.9373,3.9301,3.8219,3.751,3.6916,3.5601,3.4938,3.4718,3.4718,3.3995,3.3111,3.3111,3.3111,3.3111,3.3111,3.3111,3.3111,3.3111,3.3111,3.3111,3.3111,3.3111,3.3111,3.3111,3.3111,3.3111,3.3111,3.3111,3.3111,3.3111,3.3111,3.3111,3.3111,3.3111,3.3111,3.3111,3.3111,3.3111,3.3111,3.3111,3.3111,3.3111,3.3111,3.2568,3.1311,3.1223,3.0169,2.7767,2.6716,2.6062,2.5693,2.5693,2.5693,2.5693,2.5693,2.5693,2.5693,2.5693,2.5693,2.5693,2.5693,2.5693,4.326,4.2851,4.2381,4.2351,4.1354,4.0397,4.0367,3.9888,3.9373,3.9373,3.9373,3.9373,3.9373,3.9373,3.9373,3.9373,3.9373,0.0,0.0,3.9373,3.9373,3.9373,3.9373,3.9373,3.9373,3.9373,3.9373,3.9373,3.9373,3.9373,3.9373,3.9373,3.9373,3.9373,3.9373,3.9373,3.9373,3.9373,3.9373,3.9373,3.9373,3.9373,3.9373,3.9373,3.9373,3.9373,3.9373,3.9373,3.9373,3.9373,3.9373,3.9301,3.8219,3.8435,3.9053,3.6916,3.5561,3.4718,3.4718,3.3995,3.3111,3.3111,3.3111,3.3111,3.3111,3.3111,3.3111,3.3111,3.3111,3.3111,3.3111,3.3111,3.3111,3.3111,3.3111,3.3111,3.3111,3.3111,3.3111,3.3111,3.3111,3.3111,3.3111,3.3111,3.3111,3.3111,3.3111,3.3111,3.3111,3.3111,3.3111,3.3111,3.3111,3.2568,3.1311,3.1223,3.0169,2.7767,2.7552,2.6982,2.5742,2.5693,2.5693,2.5693,2.5693,2.5693,2.5693,2.5693,2.5693,2.5693,2.5693,2.5693,0.0,0.0,4.291,4.25,4.2081,4.1512,4.0606,4.0217,3.9948,3.9499,3.9373,3.9373,3.9373,3.9373,3.9373,3.9373,3.9373,3.9373,0.0,3.9373,3.9373,3.9373,3.9373,3.9373,3.9373,3.9373,3.9373,3.9373,3.9373,3.9373,3.9373,3.9373,3.9373,3.9373,3.9373,3.9373,3.9373,3.9373,3.9373,3.9373,3.9373,3.9373,3.9373,3.9373,3.9373,3.9373,3.9373,3.9373,3.9373,3.9373,3.9373,3.9337,3.898,3.9053,3.9228,3.7776,3.7021,3.6554,3.5183,3.3995,3.3111,3.3111,3.3111,3.3111,3.3111,3.3111,3.3111,3.3111,3.3111,3.3111,3.3111,3.3111,3.3111,3.3111,3.3111,3.3111,3.3111,3.3111,3.3111,3.3111,3.3111,3.3111,3.3111,3.3111,3.3111,3.3111,3.3111,3.3111,3.3111,3.3111,3.3111,3.3111,3.3111,3.2939,3.25,3.1689,3.0866,3.0033,2.8495,2.741,2.6982,2.6159,2.5693,2.5693,2.5693,2.5693,2.5693,2.5693,2.5693,2.5693,2.5693,2.5693,4.329,4.329,0.0,4.2821,4.256,4.2171,4.1294,4.0726,4.0277,3.9858,3.9589,3.9373,3.9373,3.9373,3.9373,3.9373,3.9373,3.9373,0.0,3.9373,3.9373,3.9373,3.9373,3.9373,3.9373,3.9373,3.9373,3.9373,3.9373,3.9373,3.9373,3.9373,3.9373,3.9373,3.9373,3.9373,3.9373,3.9373,3.9373,3.9373,3.9373,3.9373,3.9373,3.9373,3.9373,3.9373,3.9373,3.9373,3.9373,3.9373,3.9373,3.9373,3.9373,3.9373,3.9301,3.862,3.8144,3.751,3.5427,3.422,3.3598,3.324,3.3111,3.3111,3.3111,3.3111,3.3111,3.3111,3.3111,3.3111,3.3111,3.3111,3.3111,3.3111,3.3111,3.3111,3.3111,3.3111,3.3111,3.3111,3.3111,3.3111,3.3111,3.3111,3.3111,3.3111,3.3111,3.3111,3.3111,3.3111,3.3111,3.3111,3.3111,3.3111,3.3111,3.2326,3.1689,3.1223,2.9715,2.8495,2.7626,2.6812,2.6159,2.5693,2.5693,2.5693,2.5693,2.5693,2.5693,2.5693,2.5693,2.5693]}]]